<?xml version="1.0"?>
<gpx xmlns="http://www.topografix.com/GPX/1/1" xmlns:xsi="http://www.w3.org/2001/XMLSchema-instance" version="1.1" creator="GPX RubyGem 1.0.0 -- http://dougfales.github.io/gpx/" xsi:schemaLocation="http://www.topografix.com/GPX/1/1 http://www.topografix.com/GPX/1/1/gpx.xsd">
  <metadata>
    <name/>
    <time>2026-05-08T14:44:58+00:00</time>
    <bound minlat="90.0" minlon="180.0" maxlat="-90.0" maxlon="-180.0"/>
  </metadata>
  <trk>
    <name/>
    <trkseg>
      <trkpt lat="44.688718" lon="6.166417">
        <time>2021-12-28T15:39:32+00:00</time>
        <ele>1595.0</ele>
      </trkpt>
      <trkpt lat="44.688718" lon="6.166417">
        <time>2021-12-28T15:39:33+00:00</time>
        <ele>1595.0</ele>
      </trkpt>
      <trkpt lat="44.68872" lon="6.166412">
        <time>2021-12-28T15:39:44+00:00</time>
        <ele>1595.0</ele>
      </trkpt>
      <trkpt lat="44.68872" lon="6.16641">
        <time>2021-12-28T15:39:50+00:00</time>
        <ele>1595.0</ele>
      </trkpt>
      <trkpt lat="44.68872" lon="6.16641">
        <time>2021-12-28T15:39:53+00:00</time>
        <ele>1595.0</ele>
      </trkpt>
      <trkpt lat="44.68872" lon="6.16641">
        <time>2021-12-28T15:39:57+00:00</time>
        <ele>1595.0</ele>
      </trkpt>
      <trkpt lat="44.68872" lon="6.166412">
        <time>2021-12-28T15:40:01+00:00</time>
        <ele>1595.0</ele>
      </trkpt>
      <trkpt lat="44.68872" lon="6.166415">
        <time>2021-12-28T15:40:04+00:00</time>
        <ele>1595.0</ele>
      </trkpt>
      <trkpt lat="44.68872" lon="6.166416">
        <time>2021-12-28T15:40:10+00:00</time>
        <ele>1595.0</ele>
      </trkpt>
      <trkpt lat="44.688734" lon="6.166424">
        <time>2021-12-28T15:40:28+00:00</time>
        <ele>1595.0</ele>
      </trkpt>
      <trkpt lat="44.688754" lon="6.1664">
        <time>2021-12-28T15:40:52+00:00</time>
        <ele>1595.0</ele>
      </trkpt>
      <trkpt lat="44.688745" lon="6.1664">
        <time>2021-12-28T15:40:59+00:00</time>
        <ele>1595.0</ele>
      </trkpt>
      <trkpt lat="44.688743" lon="6.166398">
        <time>2021-12-28T15:41:02+00:00</time>
        <ele>1595.0</ele>
      </trkpt>
      <trkpt lat="44.68874" lon="6.166397">
        <time>2021-12-28T15:41:05+00:00</time>
        <ele>1595.0</ele>
      </trkpt>
      <trkpt lat="44.688737" lon="6.166397">
        <time>2021-12-28T15:41:06+00:00</time>
        <ele>1595.0</ele>
      </trkpt>
      <trkpt lat="44.688727" lon="6.166397">
        <time>2021-12-28T15:41:10+00:00</time>
        <ele>1595.0</ele>
      </trkpt>
      <trkpt lat="44.688724" lon="6.166397">
        <time>2021-12-28T15:41:14+00:00</time>
        <ele>1595.0</ele>
      </trkpt>
      <trkpt lat="44.688726" lon="6.166406">
        <time>2021-12-28T15:41:31+00:00</time>
        <ele>1595.0</ele>
      </trkpt>
      <trkpt lat="44.688729" lon="6.166409">
        <time>2021-12-28T15:41:36+00:00</time>
        <ele>1595.0</ele>
      </trkpt>
      <trkpt lat="44.68873" lon="6.166415">
        <time>2021-12-28T15:41:51+00:00</time>
        <ele>1595.0</ele>
      </trkpt>
      <trkpt lat="44.68873" lon="6.166415">
        <time>2021-12-28T15:41:53+00:00</time>
        <ele>1595.0</ele>
      </trkpt>
      <trkpt lat="44.68873" lon="6.166415">
        <time>2021-12-28T15:41:58+00:00</time>
        <ele>1595.0</ele>
      </trkpt>
      <trkpt lat="44.68873" lon="6.166415">
        <time>2021-12-28T15:42:01+00:00</time>
        <ele>1595.0</ele>
      </trkpt>
      <trkpt lat="44.68873" lon="6.166415">
        <time>2021-12-28T15:42:04+00:00</time>
        <ele>1595.0</ele>
      </trkpt>
      <trkpt lat="44.68873" lon="6.166413">
        <time>2021-12-28T15:42:20+00:00</time>
        <ele>1595.0</ele>
      </trkpt>
      <trkpt lat="44.68873" lon="6.166413">
        <time>2021-12-28T15:42:27+00:00</time>
        <ele>1595.0</ele>
      </trkpt>
      <trkpt lat="44.688729" lon="6.166414">
        <time>2021-12-28T15:42:35+00:00</time>
        <ele>1595.0</ele>
      </trkpt>
      <trkpt lat="44.688729" lon="6.166414">
        <time>2021-12-28T15:42:42+00:00</time>
        <ele>1595.0</ele>
      </trkpt>
      <trkpt lat="44.68873" lon="6.166414">
        <time>2021-12-28T15:43:04+00:00</time>
        <ele>1595.0</ele>
      </trkpt>
      <trkpt lat="44.68873" lon="6.166414">
        <time>2021-12-28T15:43:07+00:00</time>
        <ele>1595.0</ele>
      </trkpt>
      <trkpt lat="44.688731" lon="6.166415">
        <time>2021-12-28T15:43:24+00:00</time>
        <ele>1595.0</ele>
      </trkpt>
      <trkpt lat="44.688785" lon="6.166421">
        <time>2021-12-28T15:43:31+00:00</time>
        <ele>1596.0</ele>
      </trkpt>
      <trkpt lat="44.688816" lon="6.166425">
        <time>2021-12-28T15:43:33+00:00</time>
        <ele>1597.0</ele>
      </trkpt>
      <trkpt lat="44.68885" lon="6.166434">
        <time>2021-12-28T15:43:35+00:00</time>
        <ele>1597.0</ele>
      </trkpt>
      <trkpt lat="44.68889" lon="6.166441">
        <time>2021-12-28T15:43:37+00:00</time>
        <ele>1598.0</ele>
      </trkpt>
      <trkpt lat="44.688901" lon="6.166437">
        <time>2021-12-28T15:43:38+00:00</time>
        <ele>1598.0</ele>
      </trkpt>
      <trkpt lat="44.68894" lon="6.166433">
        <time>2021-12-28T15:43:42+00:00</time>
        <ele>1599.0</ele>
      </trkpt>
      <trkpt lat="44.689039" lon="6.166449">
        <time>2021-12-28T15:43:53+00:00</time>
        <ele>1601.0</ele>
      </trkpt>
      <trkpt lat="44.689052" lon="6.166454">
        <time>2021-12-28T15:43:55+00:00</time>
        <ele>1601.0</ele>
      </trkpt>
      <trkpt lat="44.689091" lon="6.166464">
        <time>2021-12-28T15:44:01+00:00</time>
        <ele>1602.0</ele>
      </trkpt>
      <trkpt lat="44.689099" lon="6.166464">
        <time>2021-12-28T15:44:02+00:00</time>
        <ele>1602.0</ele>
      </trkpt>
      <trkpt lat="44.689107" lon="6.166461">
        <time>2021-12-28T15:44:03+00:00</time>
        <ele>1602.0</ele>
      </trkpt>
      <trkpt lat="44.689149" lon="6.16646">
        <time>2021-12-28T15:44:09+00:00</time>
        <ele>1602.0</ele>
      </trkpt>
      <trkpt lat="44.689157" lon="6.166461">
        <time>2021-12-28T15:44:10+00:00</time>
        <ele>1603.0</ele>
      </trkpt>
      <trkpt lat="44.689218" lon="6.166484">
        <time>2021-12-28T15:44:18+00:00</time>
        <ele>1604.0</ele>
      </trkpt>
      <trkpt lat="44.68925" lon="6.166494">
        <time>2021-12-28T15:44:22+00:00</time>
        <ele>1604.0</ele>
      </trkpt>
      <trkpt lat="44.68926" lon="6.166494">
        <time>2021-12-28T15:44:23+00:00</time>
        <ele>1604.0</ele>
      </trkpt>
      <trkpt lat="44.689302" lon="6.166503">
        <time>2021-12-28T15:44:30+00:00</time>
        <ele>1605.0</ele>
      </trkpt>
      <trkpt lat="44.68933" lon="6.166524">
        <time>2021-12-28T15:44:34+00:00</time>
        <ele>1605.0</ele>
      </trkpt>
      <trkpt lat="44.689353" lon="6.16654">
        <time>2021-12-28T15:44:37+00:00</time>
        <ele>1606.0</ele>
      </trkpt>
      <trkpt lat="44.689384" lon="6.166567">
        <time>2021-12-28T15:44:42+00:00</time>
        <ele>1607.0</ele>
      </trkpt>
      <trkpt lat="44.689467" lon="6.166605">
        <time>2021-12-28T15:44:52+00:00</time>
        <ele>1608.0</ele>
      </trkpt>
      <trkpt lat="44.689494" lon="6.166614">
        <time>2021-12-28T15:44:56+00:00</time>
        <ele>1608.0</ele>
      </trkpt>
      <trkpt lat="44.689512" lon="6.166622">
        <time>2021-12-28T15:45:00+00:00</time>
        <ele>1609.0</ele>
      </trkpt>
      <trkpt lat="44.689537" lon="6.166624">
        <time>2021-12-28T15:45:04+00:00</time>
        <ele>1609.0</ele>
      </trkpt>
      <trkpt lat="44.689552" lon="6.166624">
        <time>2021-12-28T15:45:06+00:00</time>
        <ele>1610.0</ele>
      </trkpt>
      <trkpt lat="44.689579" lon="6.166627">
        <time>2021-12-28T15:45:10+00:00</time>
        <ele>1610.0</ele>
      </trkpt>
      <trkpt lat="44.689597" lon="6.166632">
        <time>2021-12-28T15:45:13+00:00</time>
        <ele>1610.0</ele>
      </trkpt>
      <trkpt lat="44.689611" lon="6.166631">
        <time>2021-12-28T15:45:16+00:00</time>
        <ele>1611.0</ele>
      </trkpt>
      <trkpt lat="44.689615" lon="6.166629">
        <time>2021-12-28T15:45:18+00:00</time>
        <ele>1611.0</ele>
      </trkpt>
      <trkpt lat="44.689626" lon="6.166624">
        <time>2021-12-28T15:45:23+00:00</time>
        <ele>1611.0</ele>
      </trkpt>
      <trkpt lat="44.689607" lon="6.166624">
        <time>2021-12-28T15:45:30+00:00</time>
        <ele>1611.0</ele>
      </trkpt>
      <trkpt lat="44.689605" lon="6.166624">
        <time>2021-12-28T15:45:33+00:00</time>
        <ele>1611.0</ele>
      </trkpt>
      <trkpt lat="44.68961" lon="6.166631">
        <time>2021-12-28T15:45:37+00:00</time>
        <ele>1611.0</ele>
      </trkpt>
      <trkpt lat="44.68961" lon="6.166631">
        <time>2021-12-28T15:45:41+00:00</time>
        <ele>1611.0</ele>
      </trkpt>
      <trkpt lat="44.689614" lon="6.166628">
        <time>2021-12-28T15:45:47+00:00</time>
        <ele>1611.0</ele>
      </trkpt>
      <trkpt lat="44.689632" lon="6.166611">
        <time>2021-12-28T15:45:49+00:00</time>
        <ele>1611.0</ele>
      </trkpt>
      <trkpt lat="44.689678" lon="6.166568">
        <time>2021-12-28T15:45:53+00:00</time>
        <ele>1612.0</ele>
      </trkpt>
      <trkpt lat="44.689692" lon="6.166552">
        <time>2021-12-28T15:45:55+00:00</time>
        <ele>1612.0</ele>
      </trkpt>
      <trkpt lat="44.689738" lon="6.166504">
        <time>2021-12-28T15:46:02+00:00</time>
        <ele>1614.0</ele>
      </trkpt>
      <trkpt lat="44.689754" lon="6.166484">
        <time>2021-12-28T15:46:04+00:00</time>
        <ele>1614.0</ele>
      </trkpt>
      <trkpt lat="44.689779" lon="6.166445">
        <time>2021-12-28T15:46:08+00:00</time>
        <ele>1615.0</ele>
      </trkpt>
      <trkpt lat="44.689796" lon="6.16643">
        <time>2021-12-28T15:46:10+00:00</time>
        <ele>1615.0</ele>
      </trkpt>
      <trkpt lat="44.689844" lon="6.166367">
        <time>2021-12-28T15:46:17+00:00</time>
        <ele>1616.0</ele>
      </trkpt>
      <trkpt lat="44.689852" lon="6.166357">
        <time>2021-12-28T15:46:18+00:00</time>
        <ele>1617.0</ele>
      </trkpt>
      <trkpt lat="44.689894" lon="6.166282">
        <time>2021-12-28T15:46:25+00:00</time>
        <ele>1618.0</ele>
      </trkpt>
      <trkpt lat="44.689897" lon="6.166223">
        <time>2021-12-28T15:46:30+00:00</time>
        <ele>1617.0</ele>
      </trkpt>
      <trkpt lat="44.689913" lon="6.166202">
        <time>2021-12-28T15:46:33+00:00</time>
        <ele>1618.0</ele>
      </trkpt>
      <trkpt lat="44.689947" lon="6.16614">
        <time>2021-12-28T15:46:41+00:00</time>
        <ele>1619.0</ele>
      </trkpt>
      <trkpt lat="44.68995" lon="6.166126">
        <time>2021-12-28T15:46:42+00:00</time>
        <ele>1619.0</ele>
      </trkpt>
      <trkpt lat="44.689962" lon="6.166071">
        <time>2021-12-28T15:46:46+00:00</time>
        <ele>1619.0</ele>
      </trkpt>
      <trkpt lat="44.689975" lon="6.166036">
        <time>2021-12-28T15:46:49+00:00</time>
        <ele>1619.0</ele>
      </trkpt>
      <trkpt lat="44.689994" lon="6.165963">
        <time>2021-12-28T15:46:56+00:00</time>
        <ele>1620.0</ele>
      </trkpt>
      <trkpt lat="44.69003" lon="6.165887">
        <time>2021-12-28T15:47:03+00:00</time>
        <ele>1620.0</ele>
      </trkpt>
      <trkpt lat="44.69008" lon="6.16573">
        <time>2021-12-28T15:47:13+00:00</time>
        <ele>1621.0</ele>
      </trkpt>
      <trkpt lat="44.690088" lon="6.165579">
        <time>2021-12-28T15:47:20+00:00</time>
        <ele>1619.0</ele>
      </trkpt>
      <trkpt lat="44.690114" lon="6.165437">
        <time>2021-12-28T15:47:28+00:00</time>
        <ele>1618.0</ele>
      </trkpt>
      <trkpt lat="44.690158" lon="6.1653">
        <time>2021-12-28T15:47:36+00:00</time>
        <ele>1617.0</ele>
      </trkpt>
      <trkpt lat="44.690206" lon="6.165134">
        <time>2021-12-28T15:47:46+00:00</time>
        <ele>1617.0</ele>
      </trkpt>
      <trkpt lat="44.690227" lon="6.165106">
        <time>2021-12-28T15:47:49+00:00</time>
        <ele>1618.0</ele>
      </trkpt>
      <trkpt lat="44.690254" lon="6.165079">
        <time>2021-12-28T15:47:52+00:00</time>
        <ele>1618.0</ele>
      </trkpt>
      <trkpt lat="44.690305" lon="6.164973">
        <time>2021-12-28T15:47:59+00:00</time>
        <ele>1619.0</ele>
      </trkpt>
      <trkpt lat="44.690365" lon="6.164861">
        <time>2021-12-28T15:48:07+00:00</time>
        <ele>1620.0</ele>
      </trkpt>
      <trkpt lat="44.690473" lon="6.164712">
        <time>2021-12-28T15:48:18+00:00</time>
        <ele>1622.0</ele>
      </trkpt>
      <trkpt lat="44.690523" lon="6.164626">
        <time>2021-12-28T15:48:24+00:00</time>
        <ele>1623.0</ele>
      </trkpt>
      <trkpt lat="44.69055" lon="6.16457">
        <time>2021-12-28T15:48:28+00:00</time>
        <ele>1623.0</ele>
      </trkpt>
      <trkpt lat="44.690602" lon="6.164437">
        <time>2021-12-28T15:48:37+00:00</time>
        <ele>1623.0</ele>
      </trkpt>
      <trkpt lat="44.690647" lon="6.164286">
        <time>2021-12-28T15:48:46+00:00</time>
        <ele>1622.0</ele>
      </trkpt>
      <trkpt lat="44.690662" lon="6.164197">
        <time>2021-12-28T15:48:51+00:00</time>
        <ele>1621.0</ele>
      </trkpt>
      <trkpt lat="44.690673" lon="6.164163">
        <time>2021-12-28T15:48:53+00:00</time>
        <ele>1621.0</ele>
      </trkpt>
      <trkpt lat="44.690704" lon="6.164008">
        <time>2021-12-28T15:49:01+00:00</time>
        <ele>1619.0</ele>
      </trkpt>
      <trkpt lat="44.690739" lon="6.163826">
        <time>2021-12-28T15:49:11+00:00</time>
        <ele>1618.0</ele>
      </trkpt>
      <trkpt lat="44.690753" lon="6.163781">
        <time>2021-12-28T15:49:14+00:00</time>
        <ele>1618.0</ele>
      </trkpt>
      <trkpt lat="44.690774" lon="6.163736">
        <time>2021-12-28T15:49:17+00:00</time>
        <ele>1619.0</ele>
      </trkpt>
      <trkpt lat="44.690779" lon="6.163721">
        <time>2021-12-28T15:49:18+00:00</time>
        <ele>1619.0</ele>
      </trkpt>
      <trkpt lat="44.690797" lon="6.163597">
        <time>2021-12-28T15:49:25+00:00</time>
        <ele>1618.0</ele>
      </trkpt>
      <trkpt lat="44.6908" lon="6.163452">
        <time>2021-12-28T15:49:32+00:00</time>
        <ele>1618.0</ele>
      </trkpt>
      <trkpt lat="44.690787" lon="6.163324">
        <time>2021-12-28T15:49:39+00:00</time>
        <ele>1617.0</ele>
      </trkpt>
      <trkpt lat="44.690796" lon="6.163195">
        <time>2021-12-28T15:49:47+00:00</time>
        <ele>1618.0</ele>
      </trkpt>
      <trkpt lat="44.690815" lon="6.163126">
        <time>2021-12-28T15:49:52+00:00</time>
        <ele>1619.0</ele>
      </trkpt>
      <trkpt lat="44.690816" lon="6.163093">
        <time>2021-12-28T15:49:54+00:00</time>
        <ele>1619.0</ele>
      </trkpt>
      <trkpt lat="44.690816" lon="6.163076">
        <time>2021-12-28T15:49:55+00:00</time>
        <ele>1619.0</ele>
      </trkpt>
      <trkpt lat="44.690814" lon="6.163027">
        <time>2021-12-28T15:49:59+00:00</time>
        <ele>1619.0</ele>
      </trkpt>
      <trkpt lat="44.690811" lon="6.163001">
        <time>2021-12-28T15:50:01+00:00</time>
        <ele>1620.0</ele>
      </trkpt>
      <trkpt lat="44.690829" lon="6.16289">
        <time>2021-12-28T15:50:10+00:00</time>
        <ele>1621.0</ele>
      </trkpt>
      <trkpt lat="44.690827" lon="6.162868">
        <time>2021-12-28T15:50:11+00:00</time>
        <ele>1621.0</ele>
      </trkpt>
      <trkpt lat="44.69082" lon="6.162837">
        <time>2021-12-28T15:50:13+00:00</time>
        <ele>1621.0</ele>
      </trkpt>
      <trkpt lat="44.690824" lon="6.162761">
        <time>2021-12-28T15:50:19+00:00</time>
        <ele>1622.0</ele>
      </trkpt>
      <trkpt lat="44.690832" lon="6.162667">
        <time>2021-12-28T15:50:26+00:00</time>
        <ele>1622.0</ele>
      </trkpt>
      <trkpt lat="44.690836" lon="6.162642">
        <time>2021-12-28T15:50:28+00:00</time>
        <ele>1623.0</ele>
      </trkpt>
      <trkpt lat="44.69084" lon="6.162593">
        <time>2021-12-28T15:50:32+00:00</time>
        <ele>1623.0</ele>
      </trkpt>
      <trkpt lat="44.690839" lon="6.162579">
        <time>2021-12-28T15:50:34+00:00</time>
        <ele>1623.0</ele>
      </trkpt>
      <trkpt lat="44.690847" lon="6.162536">
        <time>2021-12-28T15:50:38+00:00</time>
        <ele>1624.0</ele>
      </trkpt>
      <trkpt lat="44.690861" lon="6.162466">
        <time>2021-12-28T15:50:44+00:00</time>
        <ele>1625.0</ele>
      </trkpt>
      <trkpt lat="44.690861" lon="6.162456">
        <time>2021-12-28T15:50:45+00:00</time>
        <ele>1625.0</ele>
      </trkpt>
      <trkpt lat="44.690877" lon="6.162351">
        <time>2021-12-28T15:50:53+00:00</time>
        <ele>1626.0</ele>
      </trkpt>
      <trkpt lat="44.690877" lon="6.162335">
        <time>2021-12-28T15:50:54+00:00</time>
        <ele>1626.0</ele>
      </trkpt>
      <trkpt lat="44.690886" lon="6.162285">
        <time>2021-12-28T15:50:58+00:00</time>
        <ele>1627.0</ele>
      </trkpt>
      <trkpt lat="44.690888" lon="6.162247">
        <time>2021-12-28T15:51:01+00:00</time>
        <ele>1627.0</ele>
      </trkpt>
      <trkpt lat="44.6909" lon="6.162221">
        <time>2021-12-28T15:51:04+00:00</time>
        <ele>1627.0</ele>
      </trkpt>
      <trkpt lat="44.690905" lon="6.162199">
        <time>2021-12-28T15:51:06+00:00</time>
        <ele>1627.0</ele>
      </trkpt>
      <trkpt lat="44.690916" lon="6.162142">
        <time>2021-12-28T15:51:11+00:00</time>
        <ele>1628.0</ele>
      </trkpt>
      <trkpt lat="44.690918" lon="6.16213">
        <time>2021-12-28T15:51:12+00:00</time>
        <ele>1628.0</ele>
      </trkpt>
      <trkpt lat="44.690928" lon="6.162092">
        <time>2021-12-28T15:51:15+00:00</time>
        <ele>1628.0</ele>
      </trkpt>
      <trkpt lat="44.690933" lon="6.16208">
        <time>2021-12-28T15:51:16+00:00</time>
        <ele>1629.0</ele>
      </trkpt>
      <trkpt lat="44.69096" lon="6.16202">
        <time>2021-12-28T15:51:23+00:00</time>
        <ele>1630.0</ele>
      </trkpt>
      <trkpt lat="44.690965" lon="6.162008">
        <time>2021-12-28T15:51:24+00:00</time>
        <ele>1630.0</ele>
      </trkpt>
      <trkpt lat="44.690993" lon="6.161937">
        <time>2021-12-28T15:51:31+00:00</time>
        <ele>1631.0</ele>
      </trkpt>
      <trkpt lat="44.691" lon="6.161917">
        <time>2021-12-28T15:51:34+00:00</time>
        <ele>1631.0</ele>
      </trkpt>
      <trkpt lat="44.691028" lon="6.161888">
        <time>2021-12-28T15:51:39+00:00</time>
        <ele>1632.0</ele>
      </trkpt>
      <trkpt lat="44.69104" lon="6.161858">
        <time>2021-12-28T15:51:42+00:00</time>
        <ele>1633.0</ele>
      </trkpt>
      <trkpt lat="44.691069" lon="6.161809">
        <time>2021-12-28T15:51:48+00:00</time>
        <ele>1634.0</ele>
      </trkpt>
      <trkpt lat="44.691081" lon="6.161795">
        <time>2021-12-28T15:51:50+00:00</time>
        <ele>1635.0</ele>
      </trkpt>
      <trkpt lat="44.691119" lon="6.161765">
        <time>2021-12-28T15:51:54+00:00</time>
        <ele>1636.0</ele>
      </trkpt>
      <trkpt lat="44.691139" lon="6.161729">
        <time>2021-12-28T15:51:58+00:00</time>
        <ele>1637.0</ele>
      </trkpt>
      <trkpt lat="44.691155" lon="6.161708">
        <time>2021-12-28T15:52:00+00:00</time>
        <ele>1637.0</ele>
      </trkpt>
      <trkpt lat="44.691193" lon="6.161656">
        <time>2021-12-28T15:52:07+00:00</time>
        <ele>1639.0</ele>
      </trkpt>
      <trkpt lat="44.6912" lon="6.161645">
        <time>2021-12-28T15:52:08+00:00</time>
        <ele>1639.0</ele>
      </trkpt>
      <trkpt lat="44.691248" lon="6.16156">
        <time>2021-12-28T15:52:17+00:00</time>
        <ele>1640.0</ele>
      </trkpt>
      <trkpt lat="44.69126" lon="6.161539">
        <time>2021-12-28T15:52:19+00:00</time>
        <ele>1640.0</ele>
      </trkpt>
      <trkpt lat="44.691287" lon="6.161493">
        <time>2021-12-28T15:52:24+00:00</time>
        <ele>1641.0</ele>
      </trkpt>
      <trkpt lat="44.691295" lon="6.161478">
        <time>2021-12-28T15:52:26+00:00</time>
        <ele>1641.0</ele>
      </trkpt>
      <trkpt lat="44.69132" lon="6.161404">
        <time>2021-12-28T15:52:33+00:00</time>
        <ele>1640.0</ele>
      </trkpt>
      <trkpt lat="44.691323" lon="6.161395">
        <time>2021-12-28T15:52:34+00:00</time>
        <ele>1640.0</ele>
      </trkpt>
      <trkpt lat="44.691371" lon="6.161308">
        <time>2021-12-28T15:52:42+00:00</time>
        <ele>1640.0</ele>
      </trkpt>
      <trkpt lat="44.691385" lon="6.161273">
        <time>2021-12-28T15:52:45+00:00</time>
        <ele>1640.0</ele>
      </trkpt>
      <trkpt lat="44.69141" lon="6.161225">
        <time>2021-12-28T15:52:49+00:00</time>
        <ele>1640.0</ele>
      </trkpt>
      <trkpt lat="44.691431" lon="6.161174">
        <time>2021-12-28T15:52:53+00:00</time>
        <ele>1640.0</ele>
      </trkpt>
      <trkpt lat="44.691458" lon="6.16114">
        <time>2021-12-28T15:52:56+00:00</time>
        <ele>1640.0</ele>
      </trkpt>
      <trkpt lat="44.69148" lon="6.16111">
        <time>2021-12-28T15:52:59+00:00</time>
        <ele>1641.0</ele>
      </trkpt>
      <trkpt lat="44.691502" lon="6.161095">
        <time>2021-12-28T15:53:01+00:00</time>
        <ele>1641.0</ele>
      </trkpt>
      <trkpt lat="44.691558" lon="6.161054">
        <time>2021-12-28T15:53:07+00:00</time>
        <ele>1643.0</ele>
      </trkpt>
      <trkpt lat="44.691602" lon="6.161034">
        <time>2021-12-28T15:53:11+00:00</time>
        <ele>1645.0</ele>
      </trkpt>
      <trkpt lat="44.691627" lon="6.16102">
        <time>2021-12-28T15:53:14+00:00</time>
        <ele>1646.0</ele>
      </trkpt>
      <trkpt lat="44.691652" lon="6.161002">
        <time>2021-12-28T15:53:17+00:00</time>
        <ele>1647.0</ele>
      </trkpt>
      <trkpt lat="44.691703" lon="6.160967">
        <time>2021-12-28T15:53:22+00:00</time>
        <ele>1648.0</ele>
      </trkpt>
      <trkpt lat="44.691748" lon="6.160934">
        <time>2021-12-28T15:53:27+00:00</time>
        <ele>1649.0</ele>
      </trkpt>
      <trkpt lat="44.691774" lon="6.160915">
        <time>2021-12-28T15:53:30+00:00</time>
        <ele>1649.0</ele>
      </trkpt>
      <trkpt lat="44.691794" lon="6.160897">
        <time>2021-12-28T15:53:32+00:00</time>
        <ele>1650.0</ele>
      </trkpt>
      <trkpt lat="44.691817" lon="6.160872">
        <time>2021-12-28T15:53:35+00:00</time>
        <ele>1649.0</ele>
      </trkpt>
      <trkpt lat="44.691829" lon="6.160854">
        <time>2021-12-28T15:53:37+00:00</time>
        <ele>1649.0</ele>
      </trkpt>
      <trkpt lat="44.691892" lon="6.160809">
        <time>2021-12-28T15:53:44+00:00</time>
        <ele>1649.0</ele>
      </trkpt>
      <trkpt lat="44.691921" lon="6.160789">
        <time>2021-12-28T15:53:47+00:00</time>
        <ele>1649.0</ele>
      </trkpt>
      <trkpt lat="44.691992" lon="6.160745">
        <time>2021-12-28T15:53:54+00:00</time>
        <ele>1650.0</ele>
      </trkpt>
      <trkpt lat="44.692038" lon="6.160722">
        <time>2021-12-28T15:53:59+00:00</time>
        <ele>1650.0</ele>
      </trkpt>
      <trkpt lat="44.692077" lon="6.160702">
        <time>2021-12-28T15:54:03+00:00</time>
        <ele>1651.0</ele>
      </trkpt>
      <trkpt lat="44.692108" lon="6.160691">
        <time>2021-12-28T15:54:06+00:00</time>
        <ele>1651.0</ele>
      </trkpt>
      <trkpt lat="44.692201" lon="6.160677">
        <time>2021-12-28T15:54:14+00:00</time>
        <ele>1654.0</ele>
      </trkpt>
      <trkpt lat="44.692262" lon="6.160667">
        <time>2021-12-28T15:54:19+00:00</time>
        <ele>1656.0</ele>
      </trkpt>
      <trkpt lat="44.692273" lon="6.160665">
        <time>2021-12-28T15:54:20+00:00</time>
        <ele>1656.0</ele>
      </trkpt>
      <trkpt lat="44.69232" lon="6.160645">
        <time>2021-12-28T15:54:25+00:00</time>
        <ele>1657.0</ele>
      </trkpt>
      <trkpt lat="44.692395" lon="6.160615">
        <time>2021-12-28T15:54:31+00:00</time>
        <ele>1658.0</ele>
      </trkpt>
      <trkpt lat="44.692432" lon="6.160574">
        <time>2021-12-28T15:54:36+00:00</time>
        <ele>1657.0</ele>
      </trkpt>
      <trkpt lat="44.692434" lon="6.160567">
        <time>2021-12-28T15:54:37+00:00</time>
        <ele>1657.0</ele>
      </trkpt>
      <trkpt lat="44.692464" lon="6.160515">
        <time>2021-12-28T15:54:41+00:00</time>
        <ele>1655.0</ele>
      </trkpt>
      <trkpt lat="44.69249" lon="6.160504">
        <time>2021-12-28T15:54:42+00:00</time>
        <ele>1655.0</ele>
      </trkpt>
      <trkpt lat="44.692512" lon="6.160488">
        <time>2021-12-28T15:54:45+00:00</time>
        <ele>1654.0</ele>
      </trkpt>
      <trkpt lat="44.692573" lon="6.160408">
        <time>2021-12-28T15:54:52+00:00</time>
        <ele>1652.0</ele>
      </trkpt>
      <trkpt lat="44.692628" lon="6.160365">
        <time>2021-12-28T15:54:57+00:00</time>
        <ele>1652.0</ele>
      </trkpt>
      <trkpt lat="44.692673" lon="6.160334">
        <time>2021-12-28T15:55:01+00:00</time>
        <ele>1652.0</ele>
      </trkpt>
      <trkpt lat="44.692704" lon="6.160295">
        <time>2021-12-28T15:55:04+00:00</time>
        <ele>1652.0</ele>
      </trkpt>
      <trkpt lat="44.692753" lon="6.160256">
        <time>2021-12-28T15:55:09+00:00</time>
        <ele>1652.0</ele>
      </trkpt>
      <trkpt lat="44.692812" lon="6.160231">
        <time>2021-12-28T15:55:14+00:00</time>
        <ele>1653.0</ele>
      </trkpt>
      <trkpt lat="44.692897" lon="6.160196">
        <time>2021-12-28T15:55:22+00:00</time>
        <ele>1655.0</ele>
      </trkpt>
      <trkpt lat="44.692905" lon="6.160188">
        <time>2021-12-28T15:55:23+00:00</time>
        <ele>1655.0</ele>
      </trkpt>
      <trkpt lat="44.692978" lon="6.160148">
        <time>2021-12-28T15:55:30+00:00</time>
        <ele>1656.0</ele>
      </trkpt>
      <trkpt lat="44.693002" lon="6.160136">
        <time>2021-12-28T15:55:32+00:00</time>
        <ele>1656.0</ele>
      </trkpt>
      <trkpt lat="44.693068" lon="6.160097">
        <time>2021-12-28T15:55:38+00:00</time>
        <ele>1657.0</ele>
      </trkpt>
      <trkpt lat="44.693083" lon="6.160076">
        <time>2021-12-28T15:55:40+00:00</time>
        <ele>1658.0</ele>
      </trkpt>
      <trkpt lat="44.693192" lon="6.160023">
        <time>2021-12-28T15:55:49+00:00</time>
        <ele>1660.0</ele>
      </trkpt>
      <trkpt lat="44.693228" lon="6.160004">
        <time>2021-12-28T15:55:52+00:00</time>
        <ele>1661.0</ele>
      </trkpt>
      <trkpt lat="44.693283" lon="6.159967">
        <time>2021-12-28T15:55:57+00:00</time>
        <ele>1662.0</ele>
      </trkpt>
      <trkpt lat="44.693381" lon="6.1599">
        <time>2021-12-28T15:56:07+00:00</time>
        <ele>1663.0</ele>
      </trkpt>
      <trkpt lat="44.693422" lon="6.159868">
        <time>2021-12-28T15:56:13+00:00</time>
        <ele>1663.0</ele>
      </trkpt>
      <trkpt lat="44.693434" lon="6.159856">
        <time>2021-12-28T15:56:15+00:00</time>
        <ele>1663.0</ele>
      </trkpt>
      <trkpt lat="44.693458" lon="6.159837">
        <time>2021-12-28T15:56:21+00:00</time>
        <ele>1664.0</ele>
      </trkpt>
      <trkpt lat="44.693499" lon="6.159826">
        <time>2021-12-28T15:56:26+00:00</time>
        <ele>1664.0</ele>
      </trkpt>
      <trkpt lat="44.693511" lon="6.159821">
        <time>2021-12-28T15:56:28+00:00</time>
        <ele>1664.0</ele>
      </trkpt>
      <trkpt lat="44.69351" lon="6.159815">
        <time>2021-12-28T15:56:31+00:00</time>
        <ele>1664.0</ele>
      </trkpt>
      <trkpt lat="44.693505" lon="6.159797">
        <time>2021-12-28T15:56:34+00:00</time>
        <ele>1664.0</ele>
      </trkpt>
      <trkpt lat="44.693513" lon="6.159791">
        <time>2021-12-28T15:56:39+00:00</time>
        <ele>1665.0</ele>
      </trkpt>
      <trkpt lat="44.693513" lon="6.159791">
        <time>2021-12-28T15:56:41+00:00</time>
        <ele>1665.0</ele>
      </trkpt>
      <trkpt lat="44.693508" lon="6.159791">
        <time>2021-12-28T15:56:55+00:00</time>
        <ele>1664.0</ele>
      </trkpt>
      <trkpt lat="44.693512" lon="6.159793">
        <time>2021-12-28T15:57:04+00:00</time>
        <ele>1665.0</ele>
      </trkpt>
      <trkpt lat="44.693519" lon="6.159793">
        <time>2021-12-28T15:57:09+00:00</time>
        <ele>1665.0</ele>
      </trkpt>
      <trkpt lat="44.693526" lon="6.159791">
        <time>2021-12-28T15:57:38+00:00</time>
        <ele>1665.0</ele>
      </trkpt>
      <trkpt lat="44.693519" lon="6.159755">
        <time>2021-12-28T15:58:09+00:00</time>
        <ele>1665.0</ele>
      </trkpt>
      <trkpt lat="44.69352" lon="6.159755">
        <time>2021-12-28T15:58:13+00:00</time>
        <ele>1665.0</ele>
      </trkpt>
      <trkpt lat="44.693521" lon="6.159755">
        <time>2021-12-28T15:58:15+00:00</time>
        <ele>1665.0</ele>
      </trkpt>
      <trkpt lat="44.693523" lon="6.159756">
        <time>2021-12-28T15:58:18+00:00</time>
        <ele>1665.0</ele>
      </trkpt>
      <trkpt lat="44.693523" lon="6.159757">
        <time>2021-12-28T15:58:20+00:00</time>
        <ele>1665.0</ele>
      </trkpt>
      <trkpt lat="44.693524" lon="6.159761">
        <time>2021-12-28T15:58:22+00:00</time>
        <ele>1665.0</ele>
      </trkpt>
      <trkpt lat="44.693525" lon="6.159781">
        <time>2021-12-28T15:58:26+00:00</time>
        <ele>1665.0</ele>
      </trkpt>
      <trkpt lat="44.693545" lon="6.159792">
        <time>2021-12-28T15:58:41+00:00</time>
        <ele>1665.0</ele>
      </trkpt>
      <trkpt lat="44.693545" lon="6.159791">
        <time>2021-12-28T15:58:47+00:00</time>
        <ele>1665.0</ele>
      </trkpt>
      <trkpt lat="44.693545" lon="6.159785">
        <time>2021-12-28T15:58:53+00:00</time>
        <ele>1665.0</ele>
      </trkpt>
      <trkpt lat="44.693535" lon="6.159782">
        <time>2021-12-28T15:58:59+00:00</time>
        <ele>1665.0</ele>
      </trkpt>
      <trkpt lat="44.693532" lon="6.159773">
        <time>2021-12-28T15:59:16+00:00</time>
        <ele>1665.0</ele>
      </trkpt>
      <trkpt lat="44.693486" lon="6.159746">
        <time>2021-12-28T15:59:20+00:00</time>
        <ele>1664.0</ele>
      </trkpt>
      <trkpt lat="44.693415" lon="6.159679">
        <time>2021-12-28T15:59:26+00:00</time>
        <ele>1663.0</ele>
      </trkpt>
      <trkpt lat="44.693403" lon="6.159662">
        <time>2021-12-28T15:59:28+00:00</time>
        <ele>1663.0</ele>
      </trkpt>
      <trkpt lat="44.693387" lon="6.159631">
        <time>2021-12-28T15:59:31+00:00</time>
        <ele>1663.0</ele>
      </trkpt>
      <trkpt lat="44.693379" lon="6.159616">
        <time>2021-12-28T15:59:32+00:00</time>
        <ele>1663.0</ele>
      </trkpt>
      <trkpt lat="44.693346" lon="6.159602">
        <time>2021-12-28T15:59:40+00:00</time>
        <ele>1663.0</ele>
      </trkpt>
      <trkpt lat="44.693335" lon="6.159596">
        <time>2021-12-28T15:59:41+00:00</time>
        <ele>1663.0</ele>
      </trkpt>
      <trkpt lat="44.693306" lon="6.159569">
        <time>2021-12-28T15:59:45+00:00</time>
        <ele>1662.0</ele>
      </trkpt>
      <trkpt lat="44.693284" lon="6.159534">
        <time>2021-12-28T15:59:50+00:00</time>
        <ele>1663.0</ele>
      </trkpt>
      <trkpt lat="44.693282" lon="6.159529">
        <time>2021-12-28T15:59:51+00:00</time>
        <ele>1663.0</ele>
      </trkpt>
      <trkpt lat="44.693263" lon="6.159481">
        <time>2021-12-28T15:59:58+00:00</time>
        <ele>1663.0</ele>
      </trkpt>
      <trkpt lat="44.693246" lon="6.159456">
        <time>2021-12-28T16:00:01+00:00</time>
        <ele>1664.0</ele>
      </trkpt>
      <trkpt lat="44.693233" lon="6.159434">
        <time>2021-12-28T16:00:02+00:00</time>
        <ele>1664.0</ele>
      </trkpt>
      <trkpt lat="44.693216" lon="6.159388">
        <time>2021-12-28T16:00:08+00:00</time>
        <ele>1664.0</ele>
      </trkpt>
      <trkpt lat="44.693204" lon="6.159373">
        <time>2021-12-28T16:00:10+00:00</time>
        <ele>1665.0</ele>
      </trkpt>
      <trkpt lat="44.693203" lon="6.159345">
        <time>2021-12-28T16:00:14+00:00</time>
        <ele>1665.0</ele>
      </trkpt>
      <trkpt lat="44.693187" lon="6.159307">
        <time>2021-12-28T16:00:18+00:00</time>
        <ele>1666.0</ele>
      </trkpt>
      <trkpt lat="44.693184" lon="6.1593">
        <time>2021-12-28T16:00:19+00:00</time>
        <ele>1666.0</ele>
      </trkpt>
      <trkpt lat="44.693178" lon="6.159286">
        <time>2021-12-28T16:00:22+00:00</time>
        <ele>1666.0</ele>
      </trkpt>
      <trkpt lat="44.693176" lon="6.159273">
        <time>2021-12-28T16:00:23+00:00</time>
        <ele>1667.0</ele>
      </trkpt>
      <trkpt lat="44.693173" lon="6.159245">
        <time>2021-12-28T16:00:26+00:00</time>
        <ele>1667.0</ele>
      </trkpt>
      <trkpt lat="44.69317" lon="6.159238">
        <time>2021-12-28T16:00:27+00:00</time>
        <ele>1668.0</ele>
      </trkpt>
      <trkpt lat="44.693145" lon="6.159204">
        <time>2021-12-28T16:00:31+00:00</time>
        <ele>1668.0</ele>
      </trkpt>
      <trkpt lat="44.693115" lon="6.15917">
        <time>2021-12-28T16:00:35+00:00</time>
        <ele>1669.0</ele>
      </trkpt>
      <trkpt lat="44.693108" lon="6.159153">
        <time>2021-12-28T16:00:36+00:00</time>
        <ele>1669.0</ele>
      </trkpt>
      <trkpt lat="44.693085" lon="6.159132">
        <time>2021-12-28T16:00:40+00:00</time>
        <ele>1670.0</ele>
      </trkpt>
      <trkpt lat="44.693079" lon="6.15911">
        <time>2021-12-28T16:00:43+00:00</time>
        <ele>1671.0</ele>
      </trkpt>
      <trkpt lat="44.693068" lon="6.159092">
        <time>2021-12-28T16:00:45+00:00</time>
        <ele>1671.0</ele>
      </trkpt>
      <trkpt lat="44.69306" lon="6.159075">
        <time>2021-12-28T16:00:47+00:00</time>
        <ele>1672.0</ele>
      </trkpt>
      <trkpt lat="44.693028" lon="6.159028">
        <time>2021-12-28T16:00:52+00:00</time>
        <ele>1673.0</ele>
      </trkpt>
      <trkpt lat="44.693009" lon="6.158998">
        <time>2021-12-28T16:00:55+00:00</time>
        <ele>1675.0</ele>
      </trkpt>
      <trkpt lat="44.692997" lon="6.158974">
        <time>2021-12-28T16:00:58+00:00</time>
        <ele>1676.0</ele>
      </trkpt>
      <trkpt lat="44.692989" lon="6.158952">
        <time>2021-12-28T16:01:02+00:00</time>
        <ele>1676.0</ele>
      </trkpt>
      <trkpt lat="44.692982" lon="6.158944">
        <time>2021-12-28T16:01:03+00:00</time>
        <ele>1677.0</ele>
      </trkpt>
      <trkpt lat="44.692952" lon="6.158902">
        <time>2021-12-28T16:01:08+00:00</time>
        <ele>1679.0</ele>
      </trkpt>
      <trkpt lat="44.69295" lon="6.158868">
        <time>2021-12-28T16:01:11+00:00</time>
        <ele>1680.0</ele>
      </trkpt>
      <trkpt lat="44.692948" lon="6.158857">
        <time>2021-12-28T16:01:14+00:00</time>
        <ele>1681.0</ele>
      </trkpt>
      <trkpt lat="44.692928" lon="6.158841">
        <time>2021-12-28T16:01:16+00:00</time>
        <ele>1681.0</ele>
      </trkpt>
      <trkpt lat="44.692904" lon="6.158827">
        <time>2021-12-28T16:01:19+00:00</time>
        <ele>1682.0</ele>
      </trkpt>
      <trkpt lat="44.692886" lon="6.1588">
        <time>2021-12-28T16:01:24+00:00</time>
        <ele>1683.0</ele>
      </trkpt>
      <trkpt lat="44.692879" lon="6.158781">
        <time>2021-12-28T16:01:26+00:00</time>
        <ele>1684.0</ele>
      </trkpt>
      <trkpt lat="44.692871" lon="6.158771">
        <time>2021-12-28T16:01:27+00:00</time>
        <ele>1684.0</ele>
      </trkpt>
      <trkpt lat="44.692848" lon="6.158744">
        <time>2021-12-28T16:01:30+00:00</time>
        <ele>1685.0</ele>
      </trkpt>
      <trkpt lat="44.692838" lon="6.158737">
        <time>2021-12-28T16:01:31+00:00</time>
        <ele>1685.0</ele>
      </trkpt>
      <trkpt lat="44.692808" lon="6.158707">
        <time>2021-12-28T16:01:34+00:00</time>
        <ele>1686.0</ele>
      </trkpt>
      <trkpt lat="44.692785" lon="6.158688">
        <time>2021-12-28T16:01:36+00:00</time>
        <ele>1687.0</ele>
      </trkpt>
      <trkpt lat="44.69274" lon="6.158649">
        <time>2021-12-28T16:01:41+00:00</time>
        <ele>1688.0</ele>
      </trkpt>
      <trkpt lat="44.692725" lon="6.158633">
        <time>2021-12-28T16:01:43+00:00</time>
        <ele>1688.0</ele>
      </trkpt>
      <trkpt lat="44.692714" lon="6.158616">
        <time>2021-12-28T16:01:45+00:00</time>
        <ele>1689.0</ele>
      </trkpt>
      <trkpt lat="44.692678" lon="6.15858">
        <time>2021-12-28T16:01:50+00:00</time>
        <ele>1690.0</ele>
      </trkpt>
      <trkpt lat="44.692663" lon="6.158546">
        <time>2021-12-28T16:01:53+00:00</time>
        <ele>1691.0</ele>
      </trkpt>
      <trkpt lat="44.692626" lon="6.15852">
        <time>2021-12-28T16:01:55+00:00</time>
        <ele>1692.0</ele>
      </trkpt>
      <trkpt lat="44.692619" lon="6.158504">
        <time>2021-12-28T16:01:57+00:00</time>
        <ele>1692.0</ele>
      </trkpt>
      <trkpt lat="44.692591" lon="6.158477">
        <time>2021-12-28T16:02:00+00:00</time>
        <ele>1692.0</ele>
      </trkpt>
      <trkpt lat="44.692568" lon="6.158445">
        <time>2021-12-28T16:02:03+00:00</time>
        <ele>1693.0</ele>
      </trkpt>
      <trkpt lat="44.692552" lon="6.158426">
        <time>2021-12-28T16:02:05+00:00</time>
        <ele>1693.0</ele>
      </trkpt>
      <trkpt lat="44.692517" lon="6.158375">
        <time>2021-12-28T16:02:10+00:00</time>
        <ele>1694.0</ele>
      </trkpt>
      <trkpt lat="44.692485" lon="6.158337">
        <time>2021-12-28T16:02:14+00:00</time>
        <ele>1695.0</ele>
      </trkpt>
      <trkpt lat="44.692478" lon="6.158327">
        <time>2021-12-28T16:02:15+00:00</time>
        <ele>1696.0</ele>
      </trkpt>
      <trkpt lat="44.692457" lon="6.158301">
        <time>2021-12-28T16:02:18+00:00</time>
        <ele>1696.0</ele>
      </trkpt>
      <trkpt lat="44.692457" lon="6.15829">
        <time>2021-12-28T16:02:19+00:00</time>
        <ele>1696.0</ele>
      </trkpt>
      <trkpt lat="44.692452" lon="6.158268">
        <time>2021-12-28T16:02:21+00:00</time>
        <ele>1697.0</ele>
      </trkpt>
      <trkpt lat="44.692404" lon="6.158202">
        <time>2021-12-28T16:02:28+00:00</time>
        <ele>1698.0</ele>
      </trkpt>
      <trkpt lat="44.692388" lon="6.158167">
        <time>2021-12-28T16:02:32+00:00</time>
        <ele>1699.0</ele>
      </trkpt>
      <trkpt lat="44.692368" lon="6.158125">
        <time>2021-12-28T16:02:37+00:00</time>
        <ele>1700.0</ele>
      </trkpt>
      <trkpt lat="44.692353" lon="6.158074">
        <time>2021-12-28T16:02:42+00:00</time>
        <ele>1701.0</ele>
      </trkpt>
      <trkpt lat="44.692367" lon="6.158026">
        <time>2021-12-28T16:02:48+00:00</time>
        <ele>1702.0</ele>
      </trkpt>
      <trkpt lat="44.692394" lon="6.157935">
        <time>2021-12-28T16:02:57+00:00</time>
        <ele>1703.0</ele>
      </trkpt>
      <trkpt lat="44.692392" lon="6.157905">
        <time>2021-12-28T16:03:00+00:00</time>
        <ele>1703.0</ele>
      </trkpt>
      <trkpt lat="44.692383" lon="6.157843">
        <time>2021-12-28T16:03:05+00:00</time>
        <ele>1704.0</ele>
      </trkpt>
      <trkpt lat="44.692387" lon="6.157803">
        <time>2021-12-28T16:03:08+00:00</time>
        <ele>1704.0</ele>
      </trkpt>
      <trkpt lat="44.692387" lon="6.157735">
        <time>2021-12-28T16:03:13+00:00</time>
        <ele>1704.0</ele>
      </trkpt>
      <trkpt lat="44.692392" lon="6.157672">
        <time>2021-12-28T16:03:19+00:00</time>
        <ele>1705.0</ele>
      </trkpt>
      <trkpt lat="44.692393" lon="6.157589">
        <time>2021-12-28T16:03:26+00:00</time>
        <ele>1705.0</ele>
      </trkpt>
      <trkpt lat="44.692409" lon="6.157522">
        <time>2021-12-28T16:03:32+00:00</time>
        <ele>1706.0</ele>
      </trkpt>
      <trkpt lat="44.692414" lon="6.157514">
        <time>2021-12-28T16:03:33+00:00</time>
        <ele>1706.0</ele>
      </trkpt>
      <trkpt lat="44.692413" lon="6.157487">
        <time>2021-12-28T16:03:40+00:00</time>
        <ele>1706.0</ele>
      </trkpt>
      <trkpt lat="44.692413" lon="6.157491">
        <time>2021-12-28T16:03:49+00:00</time>
        <ele>1706.0</ele>
      </trkpt>
      <trkpt lat="44.692413" lon="6.157491">
        <time>2021-12-28T16:03:57+00:00</time>
        <ele>1706.0</ele>
      </trkpt>
      <trkpt lat="44.692442" lon="6.157418">
        <time>2021-12-28T16:04:03+00:00</time>
        <ele>1707.0</ele>
      </trkpt>
      <trkpt lat="44.692448" lon="6.1574">
        <time>2021-12-28T16:04:04+00:00</time>
        <ele>1707.0</ele>
      </trkpt>
      <trkpt lat="44.692452" lon="6.157381">
        <time>2021-12-28T16:04:05+00:00</time>
        <ele>1707.0</ele>
      </trkpt>
      <trkpt lat="44.69248" lon="6.157312">
        <time>2021-12-28T16:04:10+00:00</time>
        <ele>1708.0</ele>
      </trkpt>
      <trkpt lat="44.692493" lon="6.157282">
        <time>2021-12-28T16:04:13+00:00</time>
        <ele>1708.0</ele>
      </trkpt>
      <trkpt lat="44.692498" lon="6.157273">
        <time>2021-12-28T16:04:14+00:00</time>
        <ele>1709.0</ele>
      </trkpt>
      <trkpt lat="44.692508" lon="6.157245">
        <time>2021-12-28T16:04:17+00:00</time>
        <ele>1709.0</ele>
      </trkpt>
      <trkpt lat="44.692531" lon="6.157211">
        <time>2021-12-28T16:04:21+00:00</time>
        <ele>1710.0</ele>
      </trkpt>
      <trkpt lat="44.692541" lon="6.157192">
        <time>2021-12-28T16:04:23+00:00</time>
        <ele>1710.0</ele>
      </trkpt>
      <trkpt lat="44.692571" lon="6.157166">
        <time>2021-12-28T16:04:27+00:00</time>
        <ele>1711.0</ele>
      </trkpt>
      <trkpt lat="44.692584" lon="6.157156">
        <time>2021-12-28T16:04:29+00:00</time>
        <ele>1711.0</ele>
      </trkpt>
      <trkpt lat="44.692614" lon="6.157127">
        <time>2021-12-28T16:04:32+00:00</time>
        <ele>1711.0</ele>
      </trkpt>
      <trkpt lat="44.692626" lon="6.157111">
        <time>2021-12-28T16:04:34+00:00</time>
        <ele>1711.0</ele>
      </trkpt>
      <trkpt lat="44.692663" lon="6.157094">
        <time>2021-12-28T16:04:40+00:00</time>
        <ele>1712.0</ele>
      </trkpt>
      <trkpt lat="44.692677" lon="6.15708">
        <time>2021-12-28T16:04:43+00:00</time>
        <ele>1712.0</ele>
      </trkpt>
      <trkpt lat="44.692692" lon="6.157063">
        <time>2021-12-28T16:04:47+00:00</time>
        <ele>1713.0</ele>
      </trkpt>
      <trkpt lat="44.692714" lon="6.157061">
        <time>2021-12-28T16:04:50+00:00</time>
        <ele>1713.0</ele>
      </trkpt>
      <trkpt lat="44.692736" lon="6.157057">
        <time>2021-12-28T16:04:54+00:00</time>
        <ele>1713.0</ele>
      </trkpt>
      <trkpt lat="44.692737" lon="6.157042">
        <time>2021-12-28T16:04:55+00:00</time>
        <ele>1714.0</ele>
      </trkpt>
      <trkpt lat="44.692767" lon="6.157033">
        <time>2021-12-28T16:05:00+00:00</time>
        <ele>1714.0</ele>
      </trkpt>
      <trkpt lat="44.692781" lon="6.157032">
        <time>2021-12-28T16:05:02+00:00</time>
        <ele>1715.0</ele>
      </trkpt>
      <trkpt lat="44.692799" lon="6.157033">
        <time>2021-12-28T16:05:06+00:00</time>
        <ele>1715.0</ele>
      </trkpt>
      <trkpt lat="44.692826" lon="6.157012">
        <time>2021-12-28T16:05:13+00:00</time>
        <ele>1716.0</ele>
      </trkpt>
      <trkpt lat="44.692828" lon="6.15701">
        <time>2021-12-28T16:05:14+00:00</time>
        <ele>1716.0</ele>
      </trkpt>
      <trkpt lat="44.692841" lon="6.156999">
        <time>2021-12-28T16:05:18+00:00</time>
        <ele>1716.0</ele>
      </trkpt>
      <trkpt lat="44.692848" lon="6.156991">
        <time>2021-12-28T16:05:20+00:00</time>
        <ele>1717.0</ele>
      </trkpt>
      <trkpt lat="44.692863" lon="6.156978">
        <time>2021-12-28T16:05:24+00:00</time>
        <ele>1717.0</ele>
      </trkpt>
      <trkpt lat="44.692876" lon="6.156969">
        <time>2021-12-28T16:05:28+00:00</time>
        <ele>1718.0</ele>
      </trkpt>
      <trkpt lat="44.692891" lon="6.156967">
        <time>2021-12-28T16:05:31+00:00</time>
        <ele>1718.0</ele>
      </trkpt>
      <trkpt lat="44.692896" lon="6.156963">
        <time>2021-12-28T16:05:32+00:00</time>
        <ele>1718.0</ele>
      </trkpt>
      <trkpt lat="44.692898" lon="6.156949">
        <time>2021-12-28T16:05:36+00:00</time>
        <ele>1718.0</ele>
      </trkpt>
      <trkpt lat="44.692917" lon="6.156932">
        <time>2021-12-28T16:05:41+00:00</time>
        <ele>1719.0</ele>
      </trkpt>
      <trkpt lat="44.692926" lon="6.156928">
        <time>2021-12-28T16:05:43+00:00</time>
        <ele>1719.0</ele>
      </trkpt>
      <trkpt lat="44.692953" lon="6.156915">
        <time>2021-12-28T16:05:48+00:00</time>
        <ele>1720.0</ele>
      </trkpt>
      <trkpt lat="44.692986" lon="6.156898">
        <time>2021-12-28T16:05:53+00:00</time>
        <ele>1721.0</ele>
      </trkpt>
      <trkpt lat="44.692988" lon="6.156886">
        <time>2021-12-28T16:05:55+00:00</time>
        <ele>1721.0</ele>
      </trkpt>
      <trkpt lat="44.693003" lon="6.15686">
        <time>2021-12-28T16:06:00+00:00</time>
        <ele>1722.0</ele>
      </trkpt>
      <trkpt lat="44.693006" lon="6.156842">
        <time>2021-12-28T16:06:02+00:00</time>
        <ele>1722.0</ele>
      </trkpt>
      <trkpt lat="44.693024" lon="6.156811">
        <time>2021-12-28T16:06:06+00:00</time>
        <ele>1723.0</ele>
      </trkpt>
      <trkpt lat="44.693047" lon="6.156776">
        <time>2021-12-28T16:06:12+00:00</time>
        <ele>1724.0</ele>
      </trkpt>
      <trkpt lat="44.693057" lon="6.156772">
        <time>2021-12-28T16:06:13+00:00</time>
        <ele>1724.0</ele>
      </trkpt>
      <trkpt lat="44.693084" lon="6.156734">
        <time>2021-12-28T16:06:19+00:00</time>
        <ele>1725.0</ele>
      </trkpt>
      <trkpt lat="44.693086" lon="6.15671">
        <time>2021-12-28T16:06:21+00:00</time>
        <ele>1725.0</ele>
      </trkpt>
      <trkpt lat="44.693109" lon="6.15669">
        <time>2021-12-28T16:06:25+00:00</time>
        <ele>1726.0</ele>
      </trkpt>
      <trkpt lat="44.69312" lon="6.15668">
        <time>2021-12-28T16:06:28+00:00</time>
        <ele>1726.0</ele>
      </trkpt>
      <trkpt lat="44.693136" lon="6.156664">
        <time>2021-12-28T16:06:31+00:00</time>
        <ele>1727.0</ele>
      </trkpt>
      <trkpt lat="44.693168" lon="6.156646">
        <time>2021-12-28T16:06:36+00:00</time>
        <ele>1728.0</ele>
      </trkpt>
      <trkpt lat="44.693175" lon="6.156627">
        <time>2021-12-28T16:06:38+00:00</time>
        <ele>1728.0</ele>
      </trkpt>
      <trkpt lat="44.693178" lon="6.156619">
        <time>2021-12-28T16:06:39+00:00</time>
        <ele>1729.0</ele>
      </trkpt>
      <trkpt lat="44.693181" lon="6.156609">
        <time>2021-12-28T16:06:41+00:00</time>
        <ele>1729.0</ele>
      </trkpt>
      <trkpt lat="44.693184" lon="6.156565">
        <time>2021-12-28T16:06:45+00:00</time>
        <ele>1729.0</ele>
      </trkpt>
      <trkpt lat="44.693183" lon="6.15656">
        <time>2021-12-28T16:06:46+00:00</time>
        <ele>1729.0</ele>
      </trkpt>
      <trkpt lat="44.693228" lon="6.156543">
        <time>2021-12-28T16:06:52+00:00</time>
        <ele>1731.0</ele>
      </trkpt>
      <trkpt lat="44.69323" lon="6.156534">
        <time>2021-12-28T16:06:53+00:00</time>
        <ele>1731.0</ele>
      </trkpt>
      <trkpt lat="44.693234" lon="6.156478">
        <time>2021-12-28T16:06:59+00:00</time>
        <ele>1732.0</ele>
      </trkpt>
      <trkpt lat="44.693244" lon="6.156459">
        <time>2021-12-28T16:07:02+00:00</time>
        <ele>1732.0</ele>
      </trkpt>
      <trkpt lat="44.693259" lon="6.156448">
        <time>2021-12-28T16:07:05+00:00</time>
        <ele>1733.0</ele>
      </trkpt>
      <trkpt lat="44.693269" lon="6.15642">
        <time>2021-12-28T16:07:09+00:00</time>
        <ele>1733.0</ele>
      </trkpt>
      <trkpt lat="44.693271" lon="6.156412">
        <time>2021-12-28T16:07:10+00:00</time>
        <ele>1733.0</ele>
      </trkpt>
      <trkpt lat="44.693288" lon="6.156384">
        <time>2021-12-28T16:07:15+00:00</time>
        <ele>1734.0</ele>
      </trkpt>
      <trkpt lat="44.69329" lon="6.156377">
        <time>2021-12-28T16:07:16+00:00</time>
        <ele>1734.0</ele>
      </trkpt>
      <trkpt lat="44.69329" lon="6.156348">
        <time>2021-12-28T16:07:20+00:00</time>
        <ele>1734.0</ele>
      </trkpt>
      <trkpt lat="44.693292" lon="6.156331">
        <time>2021-12-28T16:07:22+00:00</time>
        <ele>1735.0</ele>
      </trkpt>
      <trkpt lat="44.693292" lon="6.156308">
        <time>2021-12-28T16:07:24+00:00</time>
        <ele>1735.0</ele>
      </trkpt>
      <trkpt lat="44.693292" lon="6.156284">
        <time>2021-12-28T16:07:26+00:00</time>
        <ele>1735.0</ele>
      </trkpt>
      <trkpt lat="44.693306" lon="6.156241">
        <time>2021-12-28T16:07:31+00:00</time>
        <ele>1736.0</ele>
      </trkpt>
      <trkpt lat="44.693313" lon="6.156233">
        <time>2021-12-28T16:07:32+00:00</time>
        <ele>1736.0</ele>
      </trkpt>
      <trkpt lat="44.693319" lon="6.156167">
        <time>2021-12-28T16:07:39+00:00</time>
        <ele>1737.0</ele>
      </trkpt>
      <trkpt lat="44.693322" lon="6.156163">
        <time>2021-12-28T16:07:40+00:00</time>
        <ele>1737.0</ele>
      </trkpt>
      <trkpt lat="44.693327" lon="6.156124">
        <time>2021-12-28T16:07:45+00:00</time>
        <ele>1738.0</ele>
      </trkpt>
      <trkpt lat="44.693335" lon="6.1561">
        <time>2021-12-28T16:07:47+00:00</time>
        <ele>1738.0</ele>
      </trkpt>
      <trkpt lat="44.69333" lon="6.156062">
        <time>2021-12-28T16:07:50+00:00</time>
        <ele>1739.0</ele>
      </trkpt>
      <trkpt lat="44.693342" lon="6.156004">
        <time>2021-12-28T16:07:55+00:00</time>
        <ele>1740.0</ele>
      </trkpt>
      <trkpt lat="44.69336" lon="6.155979">
        <time>2021-12-28T16:07:58+00:00</time>
        <ele>1741.0</ele>
      </trkpt>
      <trkpt lat="44.693372" lon="6.155954">
        <time>2021-12-28T16:08:01+00:00</time>
        <ele>1742.0</ele>
      </trkpt>
      <trkpt lat="44.69338" lon="6.155935">
        <time>2021-12-28T16:08:04+00:00</time>
        <ele>1742.0</ele>
      </trkpt>
      <trkpt lat="44.693392" lon="6.155903">
        <time>2021-12-28T16:08:08+00:00</time>
        <ele>1743.0</ele>
      </trkpt>
      <trkpt lat="44.693397" lon="6.155863">
        <time>2021-12-28T16:08:12+00:00</time>
        <ele>1744.0</ele>
      </trkpt>
      <trkpt lat="44.693404" lon="6.155847">
        <time>2021-12-28T16:08:14+00:00</time>
        <ele>1744.0</ele>
      </trkpt>
      <trkpt lat="44.693412" lon="6.155803">
        <time>2021-12-28T16:08:18+00:00</time>
        <ele>1745.0</ele>
      </trkpt>
      <trkpt lat="44.69342" lon="6.155769">
        <time>2021-12-28T16:08:22+00:00</time>
        <ele>1746.0</ele>
      </trkpt>
      <trkpt lat="44.693418" lon="6.155757">
        <time>2021-12-28T16:08:23+00:00</time>
        <ele>1746.0</ele>
      </trkpt>
      <trkpt lat="44.693415" lon="6.155716">
        <time>2021-12-28T16:08:27+00:00</time>
        <ele>1746.0</ele>
      </trkpt>
      <trkpt lat="44.693427" lon="6.15566">
        <time>2021-12-28T16:08:33+00:00</time>
        <ele>1747.0</ele>
      </trkpt>
      <trkpt lat="44.693431" lon="6.15565">
        <time>2021-12-28T16:08:34+00:00</time>
        <ele>1747.0</ele>
      </trkpt>
      <trkpt lat="44.69343" lon="6.155609">
        <time>2021-12-28T16:08:38+00:00</time>
        <ele>1747.0</ele>
      </trkpt>
      <trkpt lat="44.693434" lon="6.155576">
        <time>2021-12-28T16:08:42+00:00</time>
        <ele>1748.0</ele>
      </trkpt>
      <trkpt lat="44.693434" lon="6.155567">
        <time>2021-12-28T16:08:43+00:00</time>
        <ele>1748.0</ele>
      </trkpt>
      <trkpt lat="44.693456" lon="6.155513">
        <time>2021-12-28T16:08:49+00:00</time>
        <ele>1749.0</ele>
      </trkpt>
      <trkpt lat="44.693458" lon="6.155485">
        <time>2021-12-28T16:08:52+00:00</time>
        <ele>1750.0</ele>
      </trkpt>
      <trkpt lat="44.693463" lon="6.155446">
        <time>2021-12-28T16:08:56+00:00</time>
        <ele>1750.0</ele>
      </trkpt>
      <trkpt lat="44.693471" lon="6.155387">
        <time>2021-12-28T16:09:02+00:00</time>
        <ele>1751.0</ele>
      </trkpt>
      <trkpt lat="44.693474" lon="6.155377">
        <time>2021-12-28T16:09:03+00:00</time>
        <ele>1752.0</ele>
      </trkpt>
      <trkpt lat="44.693481" lon="6.155325">
        <time>2021-12-28T16:09:08+00:00</time>
        <ele>1752.0</ele>
      </trkpt>
      <trkpt lat="44.69348" lon="6.155314">
        <time>2021-12-28T16:09:09+00:00</time>
        <ele>1752.0</ele>
      </trkpt>
      <trkpt lat="44.69348" lon="6.155303">
        <time>2021-12-28T16:09:10+00:00</time>
        <ele>1753.0</ele>
      </trkpt>
      <trkpt lat="44.693499" lon="6.155246">
        <time>2021-12-28T16:09:16+00:00</time>
        <ele>1754.0</ele>
      </trkpt>
      <trkpt lat="44.69351" lon="6.155205">
        <time>2021-12-28T16:09:20+00:00</time>
        <ele>1755.0</ele>
      </trkpt>
      <trkpt lat="44.693512" lon="6.155198">
        <time>2021-12-28T16:09:21+00:00</time>
        <ele>1755.0</ele>
      </trkpt>
      <trkpt lat="44.693517" lon="6.155136">
        <time>2021-12-28T16:09:27+00:00</time>
        <ele>1756.0</ele>
      </trkpt>
      <trkpt lat="44.693522" lon="6.155113">
        <time>2021-12-28T16:09:30+00:00</time>
        <ele>1756.0</ele>
      </trkpt>
      <trkpt lat="44.693533" lon="6.155056">
        <time>2021-12-28T16:09:36+00:00</time>
        <ele>1757.0</ele>
      </trkpt>
      <trkpt lat="44.693552" lon="6.155022">
        <time>2021-12-28T16:09:40+00:00</time>
        <ele>1758.0</ele>
      </trkpt>
      <trkpt lat="44.693562" lon="6.154994">
        <time>2021-12-28T16:09:43+00:00</time>
        <ele>1759.0</ele>
      </trkpt>
      <trkpt lat="44.69359" lon="6.154954">
        <time>2021-12-28T16:09:49+00:00</time>
        <ele>1760.0</ele>
      </trkpt>
      <trkpt lat="44.693605" lon="6.154941">
        <time>2021-12-28T16:09:51+00:00</time>
        <ele>1760.0</ele>
      </trkpt>
      <trkpt lat="44.693623" lon="6.154934">
        <time>2021-12-28T16:09:53+00:00</time>
        <ele>1761.0</ele>
      </trkpt>
      <trkpt lat="44.693656" lon="6.154904">
        <time>2021-12-28T16:09:58+00:00</time>
        <ele>1762.0</ele>
      </trkpt>
      <trkpt lat="44.693673" lon="6.154892">
        <time>2021-12-28T16:10:01+00:00</time>
        <ele>1763.0</ele>
      </trkpt>
      <trkpt lat="44.693693" lon="6.154877">
        <time>2021-12-28T16:10:04+00:00</time>
        <ele>1763.0</ele>
      </trkpt>
      <trkpt lat="44.693723" lon="6.154846">
        <time>2021-12-28T16:10:10+00:00</time>
        <ele>1764.0</ele>
      </trkpt>
      <trkpt lat="44.69375" lon="6.15484">
        <time>2021-12-28T16:10:13+00:00</time>
        <ele>1765.0</ele>
      </trkpt>
      <trkpt lat="44.693765" lon="6.154834">
        <time>2021-12-28T16:10:16+00:00</time>
        <ele>1766.0</ele>
      </trkpt>
      <trkpt lat="44.693797" lon="6.154808">
        <time>2021-12-28T16:10:21+00:00</time>
        <ele>1768.0</ele>
      </trkpt>
      <trkpt lat="44.69381" lon="6.154806">
        <time>2021-12-28T16:10:22+00:00</time>
        <ele>1768.0</ele>
      </trkpt>
      <trkpt lat="44.693853" lon="6.154773">
        <time>2021-12-28T16:10:29+00:00</time>
        <ele>1770.0</ele>
      </trkpt>
      <trkpt lat="44.693883" lon="6.154765">
        <time>2021-12-28T16:10:32+00:00</time>
        <ele>1771.0</ele>
      </trkpt>
      <trkpt lat="44.69391" lon="6.154739">
        <time>2021-12-28T16:10:36+00:00</time>
        <ele>1772.0</ele>
      </trkpt>
      <trkpt lat="44.693959" lon="6.154702">
        <time>2021-12-28T16:10:42+00:00</time>
        <ele>1774.0</ele>
      </trkpt>
      <trkpt lat="44.693966" lon="6.154687">
        <time>2021-12-28T16:10:44+00:00</time>
        <ele>1774.0</ele>
      </trkpt>
      <trkpt lat="44.693982" lon="6.154617">
        <time>2021-12-28T16:10:51+00:00</time>
        <ele>1774.0</ele>
      </trkpt>
      <trkpt lat="44.693993" lon="6.154604">
        <time>2021-12-28T16:10:53+00:00</time>
        <ele>1774.0</ele>
      </trkpt>
      <trkpt lat="44.694013" lon="6.154581">
        <time>2021-12-28T16:10:56+00:00</time>
        <ele>1774.0</ele>
      </trkpt>
      <trkpt lat="44.694043" lon="6.154563">
        <time>2021-12-28T16:11:00+00:00</time>
        <ele>1775.0</ele>
      </trkpt>
      <trkpt lat="44.694073" lon="6.154533">
        <time>2021-12-28T16:11:05+00:00</time>
        <ele>1776.0</ele>
      </trkpt>
      <trkpt lat="44.694084" lon="6.154521">
        <time>2021-12-28T16:11:07+00:00</time>
        <ele>1776.0</ele>
      </trkpt>
      <trkpt lat="44.694108" lon="6.154507">
        <time>2021-12-28T16:11:10+00:00</time>
        <ele>1777.0</ele>
      </trkpt>
      <trkpt lat="44.694139" lon="6.154488">
        <time>2021-12-28T16:11:15+00:00</time>
        <ele>1778.0</ele>
      </trkpt>
      <trkpt lat="44.694142" lon="6.154479">
        <time>2021-12-28T16:11:16+00:00</time>
        <ele>1778.0</ele>
      </trkpt>
      <trkpt lat="44.69415" lon="6.154472">
        <time>2021-12-28T16:11:17+00:00</time>
        <ele>1778.0</ele>
      </trkpt>
      <trkpt lat="44.694202" lon="6.15444">
        <time>2021-12-28T16:11:23+00:00</time>
        <ele>1779.0</ele>
      </trkpt>
      <trkpt lat="44.694241" lon="6.154379">
        <time>2021-12-28T16:11:30+00:00</time>
        <ele>1779.0</ele>
      </trkpt>
      <trkpt lat="44.694243" lon="6.154372">
        <time>2021-12-28T16:11:31+00:00</time>
        <ele>1779.0</ele>
      </trkpt>
      <trkpt lat="44.694257" lon="6.154352">
        <time>2021-12-28T16:11:33+00:00</time>
        <ele>1779.0</ele>
      </trkpt>
      <trkpt lat="44.694324" lon="6.154287">
        <time>2021-12-28T16:11:41+00:00</time>
        <ele>1780.0</ele>
      </trkpt>
      <trkpt lat="44.694352" lon="6.154274">
        <time>2021-12-28T16:11:44+00:00</time>
        <ele>1781.0</ele>
      </trkpt>
      <trkpt lat="44.694402" lon="6.154252">
        <time>2021-12-28T16:11:49+00:00</time>
        <ele>1782.0</ele>
      </trkpt>
      <trkpt lat="44.694453" lon="6.15421">
        <time>2021-12-28T16:11:56+00:00</time>
        <ele>1782.0</ele>
      </trkpt>
      <trkpt lat="44.694467" lon="6.154198">
        <time>2021-12-28T16:11:58+00:00</time>
        <ele>1783.0</ele>
      </trkpt>
      <trkpt lat="44.694553" lon="6.154174">
        <time>2021-12-28T16:12:06+00:00</time>
        <ele>1785.0</ele>
      </trkpt>
      <trkpt lat="44.694614" lon="6.154132">
        <time>2021-12-28T16:12:13+00:00</time>
        <ele>1785.0</ele>
      </trkpt>
      <trkpt lat="44.694622" lon="6.154129">
        <time>2021-12-28T16:12:14+00:00</time>
        <ele>1786.0</ele>
      </trkpt>
      <trkpt lat="44.694646" lon="6.154108">
        <time>2021-12-28T16:12:17+00:00</time>
        <ele>1786.0</ele>
      </trkpt>
      <trkpt lat="44.694681" lon="6.154093">
        <time>2021-12-28T16:12:21+00:00</time>
        <ele>1786.0</ele>
      </trkpt>
      <trkpt lat="44.694701" lon="6.154074">
        <time>2021-12-28T16:12:24+00:00</time>
        <ele>1787.0</ele>
      </trkpt>
      <trkpt lat="44.69473" lon="6.154059">
        <time>2021-12-28T16:12:27+00:00</time>
        <ele>1788.0</ele>
      </trkpt>
      <trkpt lat="44.694763" lon="6.15405">
        <time>2021-12-28T16:12:30+00:00</time>
        <ele>1789.0</ele>
      </trkpt>
      <trkpt lat="44.694782" lon="6.154043">
        <time>2021-12-28T16:12:32+00:00</time>
        <ele>1789.0</ele>
      </trkpt>
      <trkpt lat="44.694827" lon="6.154024">
        <time>2021-12-28T16:12:37+00:00</time>
        <ele>1791.0</ele>
      </trkpt>
      <trkpt lat="44.694837" lon="6.154016">
        <time>2021-12-28T16:12:38+00:00</time>
        <ele>1791.0</ele>
      </trkpt>
      <trkpt lat="44.694844" lon="6.154009">
        <time>2021-12-28T16:12:39+00:00</time>
        <ele>1791.0</ele>
      </trkpt>
      <trkpt lat="44.694862" lon="6.153977">
        <time>2021-12-28T16:12:42+00:00</time>
        <ele>1791.0</ele>
      </trkpt>
      <trkpt lat="44.69489" lon="6.15396">
        <time>2021-12-28T16:12:45+00:00</time>
        <ele>1792.0</ele>
      </trkpt>
      <trkpt lat="44.694898" lon="6.153954">
        <time>2021-12-28T16:12:46+00:00</time>
        <ele>1792.0</ele>
      </trkpt>
      <trkpt lat="44.694966" lon="6.153918">
        <time>2021-12-28T16:12:53+00:00</time>
        <ele>1794.0</ele>
      </trkpt>
      <trkpt lat="44.694974" lon="6.153912">
        <time>2021-12-28T16:12:54+00:00</time>
        <ele>1794.0</ele>
      </trkpt>
      <trkpt lat="44.695041" lon="6.153869">
        <time>2021-12-28T16:13:02+00:00</time>
        <ele>1796.0</ele>
      </trkpt>
      <trkpt lat="44.695065" lon="6.153839">
        <time>2021-12-28T16:13:06+00:00</time>
        <ele>1796.0</ele>
      </trkpt>
      <trkpt lat="44.69507" lon="6.153832">
        <time>2021-12-28T16:13:07+00:00</time>
        <ele>1796.0</ele>
      </trkpt>
      <trkpt lat="44.695085" lon="6.153804">
        <time>2021-12-28T16:13:10+00:00</time>
        <ele>1796.0</ele>
      </trkpt>
      <trkpt lat="44.69512" lon="6.153752">
        <time>2021-12-28T16:13:15+00:00</time>
        <ele>1796.0</ele>
      </trkpt>
      <trkpt lat="44.695145" lon="6.153737">
        <time>2021-12-28T16:13:18+00:00</time>
        <ele>1796.0</ele>
      </trkpt>
      <trkpt lat="44.695173" lon="6.153718">
        <time>2021-12-28T16:13:22+00:00</time>
        <ele>1797.0</ele>
      </trkpt>
      <trkpt lat="44.695184" lon="6.1537">
        <time>2021-12-28T16:13:24+00:00</time>
        <ele>1797.0</ele>
      </trkpt>
      <trkpt lat="44.695186" lon="6.153686">
        <time>2021-12-28T16:13:25+00:00</time>
        <ele>1796.0</ele>
      </trkpt>
      <trkpt lat="44.695222" lon="6.153623">
        <time>2021-12-28T16:13:32+00:00</time>
        <ele>1796.0</ele>
      </trkpt>
      <trkpt lat="44.695269" lon="6.153528">
        <time>2021-12-28T16:13:40+00:00</time>
        <ele>1796.0</ele>
      </trkpt>
      <trkpt lat="44.695297" lon="6.153473">
        <time>2021-12-28T16:13:46+00:00</time>
        <ele>1796.0</ele>
      </trkpt>
      <trkpt lat="44.695301" lon="6.153455">
        <time>2021-12-28T16:13:47+00:00</time>
        <ele>1796.0</ele>
      </trkpt>
      <trkpt lat="44.695301" lon="6.15344">
        <time>2021-12-28T16:13:48+00:00</time>
        <ele>1795.0</ele>
      </trkpt>
      <trkpt lat="44.695305" lon="6.153418">
        <time>2021-12-28T16:13:50+00:00</time>
        <ele>1795.0</ele>
      </trkpt>
      <trkpt lat="44.695319" lon="6.15337">
        <time>2021-12-28T16:13:54+00:00</time>
        <ele>1795.0</ele>
      </trkpt>
      <trkpt lat="44.695337" lon="6.153326">
        <time>2021-12-28T16:13:58+00:00</time>
        <ele>1795.0</ele>
      </trkpt>
      <trkpt lat="44.695359" lon="6.153289">
        <time>2021-12-28T16:14:02+00:00</time>
        <ele>1796.0</ele>
      </trkpt>
      <trkpt lat="44.695357" lon="6.153273">
        <time>2021-12-28T16:14:03+00:00</time>
        <ele>1795.0</ele>
      </trkpt>
      <trkpt lat="44.695372" lon="6.15322">
        <time>2021-12-28T16:14:08+00:00</time>
        <ele>1796.0</ele>
      </trkpt>
      <trkpt lat="44.695389" lon="6.153176">
        <time>2021-12-28T16:14:12+00:00</time>
        <ele>1796.0</ele>
      </trkpt>
      <trkpt lat="44.695396" lon="6.153169">
        <time>2021-12-28T16:14:13+00:00</time>
        <ele>1796.0</ele>
      </trkpt>
      <trkpt lat="44.69543" lon="6.15313">
        <time>2021-12-28T16:14:18+00:00</time>
        <ele>1797.0</ele>
      </trkpt>
      <trkpt lat="44.69545" lon="6.153092">
        <time>2021-12-28T16:14:22+00:00</time>
        <ele>1797.0</ele>
      </trkpt>
      <trkpt lat="44.695475" lon="6.153029">
        <time>2021-12-28T16:14:28+00:00</time>
        <ele>1798.0</ele>
      </trkpt>
      <trkpt lat="44.695496" lon="6.152979">
        <time>2021-12-28T16:14:33+00:00</time>
        <ele>1798.0</ele>
      </trkpt>
      <trkpt lat="44.695504" lon="6.152968">
        <time>2021-12-28T16:14:34+00:00</time>
        <ele>1799.0</ele>
      </trkpt>
      <trkpt lat="44.695524" lon="6.152923">
        <time>2021-12-28T16:14:38+00:00</time>
        <ele>1799.0</ele>
      </trkpt>
      <trkpt lat="44.695535" lon="6.152895">
        <time>2021-12-28T16:14:41+00:00</time>
        <ele>1799.0</ele>
      </trkpt>
      <trkpt lat="44.695559" lon="6.152844">
        <time>2021-12-28T16:14:46+00:00</time>
        <ele>1800.0</ele>
      </trkpt>
      <trkpt lat="44.695574" lon="6.152796">
        <time>2021-12-28T16:14:51+00:00</time>
        <ele>1800.0</ele>
      </trkpt>
      <trkpt lat="44.695598" lon="6.152731">
        <time>2021-12-28T16:14:57+00:00</time>
        <ele>1800.0</ele>
      </trkpt>
      <trkpt lat="44.695613" lon="6.1527">
        <time>2021-12-28T16:15:00+00:00</time>
        <ele>1801.0</ele>
      </trkpt>
      <trkpt lat="44.695635" lon="6.152664">
        <time>2021-12-28T16:15:04+00:00</time>
        <ele>1801.0</ele>
      </trkpt>
      <trkpt lat="44.69564" lon="6.152658">
        <time>2021-12-28T16:15:05+00:00</time>
        <ele>1801.0</ele>
      </trkpt>
      <trkpt lat="44.695652" lon="6.152627">
        <time>2021-12-28T16:15:08+00:00</time>
        <ele>1801.0</ele>
      </trkpt>
      <trkpt lat="44.695657" lon="6.152616">
        <time>2021-12-28T16:15:09+00:00</time>
        <ele>1801.0</ele>
      </trkpt>
      <trkpt lat="44.695661" lon="6.152604">
        <time>2021-12-28T16:15:10+00:00</time>
        <ele>1802.0</ele>
      </trkpt>
      <trkpt lat="44.695669" lon="6.152561">
        <time>2021-12-28T16:15:13+00:00</time>
        <ele>1802.0</ele>
      </trkpt>
      <trkpt lat="44.695678" lon="6.152527">
        <time>2021-12-28T16:15:16+00:00</time>
        <ele>1802.0</ele>
      </trkpt>
      <trkpt lat="44.69569" lon="6.152477">
        <time>2021-12-28T16:15:21+00:00</time>
        <ele>1802.0</ele>
      </trkpt>
      <trkpt lat="44.695712" lon="6.152441">
        <time>2021-12-28T16:15:25+00:00</time>
        <ele>1803.0</ele>
      </trkpt>
      <trkpt lat="44.695743" lon="6.152388">
        <time>2021-12-28T16:15:31+00:00</time>
        <ele>1804.0</ele>
      </trkpt>
      <trkpt lat="44.695749" lon="6.152367">
        <time>2021-12-28T16:15:33+00:00</time>
        <ele>1804.0</ele>
      </trkpt>
      <trkpt lat="44.695766" lon="6.15232">
        <time>2021-12-28T16:15:37+00:00</time>
        <ele>1805.0</ele>
      </trkpt>
      <trkpt lat="44.69578" lon="6.152288">
        <time>2021-12-28T16:15:40+00:00</time>
        <ele>1805.0</ele>
      </trkpt>
      <trkpt lat="44.695797" lon="6.152255">
        <time>2021-12-28T16:15:44+00:00</time>
        <ele>1805.0</ele>
      </trkpt>
      <trkpt lat="44.695831" lon="6.152215">
        <time>2021-12-28T16:15:49+00:00</time>
        <ele>1806.0</ele>
      </trkpt>
      <trkpt lat="44.69584" lon="6.152194">
        <time>2021-12-28T16:15:51+00:00</time>
        <ele>1807.0</ele>
      </trkpt>
      <trkpt lat="44.695857" lon="6.152151">
        <time>2021-12-28T16:15:55+00:00</time>
        <ele>1807.0</ele>
      </trkpt>
      <trkpt lat="44.695886" lon="6.152112">
        <time>2021-12-28T16:16:00+00:00</time>
        <ele>1808.0</ele>
      </trkpt>
      <trkpt lat="44.6959" lon="6.152094">
        <time>2021-12-28T16:16:02+00:00</time>
        <ele>1808.0</ele>
      </trkpt>
      <trkpt lat="44.695909" lon="6.152069">
        <time>2021-12-28T16:16:05+00:00</time>
        <ele>1809.0</ele>
      </trkpt>
      <trkpt lat="44.695918" lon="6.152027">
        <time>2021-12-28T16:16:09+00:00</time>
        <ele>1809.0</ele>
      </trkpt>
      <trkpt lat="44.695931" lon="6.152001">
        <time>2021-12-28T16:16:12+00:00</time>
        <ele>1809.0</ele>
      </trkpt>
      <trkpt lat="44.695956" lon="6.151953">
        <time>2021-12-28T16:16:18+00:00</time>
        <ele>1810.0</ele>
      </trkpt>
      <trkpt lat="44.695961" lon="6.151947">
        <time>2021-12-28T16:16:19+00:00</time>
        <ele>1810.0</ele>
      </trkpt>
      <trkpt lat="44.695991" lon="6.151911">
        <time>2021-12-28T16:16:24+00:00</time>
        <ele>1811.0</ele>
      </trkpt>
      <trkpt lat="44.696003" lon="6.151885">
        <time>2021-12-28T16:16:27+00:00</time>
        <ele>1811.0</ele>
      </trkpt>
      <trkpt lat="44.696033" lon="6.151834">
        <time>2021-12-28T16:16:32+00:00</time>
        <ele>1812.0</ele>
      </trkpt>
      <trkpt lat="44.696053" lon="6.151788">
        <time>2021-12-28T16:16:37+00:00</time>
        <ele>1813.0</ele>
      </trkpt>
      <trkpt lat="44.696069" lon="6.151737">
        <time>2021-12-28T16:16:42+00:00</time>
        <ele>1813.0</ele>
      </trkpt>
      <trkpt lat="44.696097" lon="6.151686">
        <time>2021-12-28T16:16:48+00:00</time>
        <ele>1814.0</ele>
      </trkpt>
      <trkpt lat="44.696104" lon="6.151667">
        <time>2021-12-28T16:16:50+00:00</time>
        <ele>1815.0</ele>
      </trkpt>
      <trkpt lat="44.696115" lon="6.151638">
        <time>2021-12-28T16:16:53+00:00</time>
        <ele>1815.0</ele>
      </trkpt>
      <trkpt lat="44.696135" lon="6.151596">
        <time>2021-12-28T16:16:57+00:00</time>
        <ele>1816.0</ele>
      </trkpt>
      <trkpt lat="44.696154" lon="6.151545">
        <time>2021-12-28T16:17:02+00:00</time>
        <ele>1816.0</ele>
      </trkpt>
      <trkpt lat="44.696166" lon="6.151511">
        <time>2021-12-28T16:17:05+00:00</time>
        <ele>1817.0</ele>
      </trkpt>
      <trkpt lat="44.69617" lon="6.1515">
        <time>2021-12-28T16:17:06+00:00</time>
        <ele>1817.0</ele>
      </trkpt>
      <trkpt lat="44.696174" lon="6.15149">
        <time>2021-12-28T16:17:07+00:00</time>
        <ele>1817.0</ele>
      </trkpt>
      <trkpt lat="44.696188" lon="6.151453">
        <time>2021-12-28T16:17:10+00:00</time>
        <ele>1817.0</ele>
      </trkpt>
      <trkpt lat="44.696192" lon="6.15144">
        <time>2021-12-28T16:17:11+00:00</time>
        <ele>1817.0</ele>
      </trkpt>
      <trkpt lat="44.696211" lon="6.151411">
        <time>2021-12-28T16:17:14+00:00</time>
        <ele>1818.0</ele>
      </trkpt>
      <trkpt lat="44.696224" lon="6.151378">
        <time>2021-12-28T16:17:17+00:00</time>
        <ele>1819.0</ele>
      </trkpt>
      <trkpt lat="44.696262" lon="6.151304">
        <time>2021-12-28T16:17:25+00:00</time>
        <ele>1820.0</ele>
      </trkpt>
      <trkpt lat="44.696273" lon="6.151269">
        <time>2021-12-28T16:17:28+00:00</time>
        <ele>1820.0</ele>
      </trkpt>
      <trkpt lat="44.696299" lon="6.151194">
        <time>2021-12-28T16:17:35+00:00</time>
        <ele>1821.0</ele>
      </trkpt>
      <trkpt lat="44.696348" lon="6.151113">
        <time>2021-12-28T16:17:43+00:00</time>
        <ele>1822.0</ele>
      </trkpt>
      <trkpt lat="44.696368" lon="6.151087">
        <time>2021-12-28T16:17:46+00:00</time>
        <ele>1823.0</ele>
      </trkpt>
      <trkpt lat="44.696376" lon="6.151073">
        <time>2021-12-28T16:17:48+00:00</time>
        <ele>1823.0</ele>
      </trkpt>
      <trkpt lat="44.696407" lon="6.151003">
        <time>2021-12-28T16:17:55+00:00</time>
        <ele>1824.0</ele>
      </trkpt>
      <trkpt lat="44.696437" lon="6.150931">
        <time>2021-12-28T16:18:02+00:00</time>
        <ele>1824.0</ele>
      </trkpt>
      <trkpt lat="44.696441" lon="6.150909">
        <time>2021-12-28T16:18:04+00:00</time>
        <ele>1824.0</ele>
      </trkpt>
      <trkpt lat="44.696447" lon="6.150892">
        <time>2021-12-28T16:18:06+00:00</time>
        <ele>1825.0</ele>
      </trkpt>
      <trkpt lat="44.69647" lon="6.150843">
        <time>2021-12-28T16:18:11+00:00</time>
        <ele>1825.0</ele>
      </trkpt>
      <trkpt lat="44.696475" lon="6.150836">
        <time>2021-12-28T16:18:12+00:00</time>
        <ele>1825.0</ele>
      </trkpt>
      <trkpt lat="44.696498" lon="6.150781">
        <time>2021-12-28T16:18:18+00:00</time>
        <ele>1826.0</ele>
      </trkpt>
      <trkpt lat="44.696515" lon="6.150746">
        <time>2021-12-28T16:18:22+00:00</time>
        <ele>1826.0</ele>
      </trkpt>
      <trkpt lat="44.696521" lon="6.15072">
        <time>2021-12-28T16:18:24+00:00</time>
        <ele>1826.0</ele>
      </trkpt>
      <trkpt lat="44.696539" lon="6.150657">
        <time>2021-12-28T16:18:30+00:00</time>
        <ele>1826.0</ele>
      </trkpt>
      <trkpt lat="44.69655" lon="6.150634">
        <time>2021-12-28T16:18:32+00:00</time>
        <ele>1826.0</ele>
      </trkpt>
      <trkpt lat="44.696552" lon="6.150625">
        <time>2021-12-28T16:18:33+00:00</time>
        <ele>1826.0</ele>
      </trkpt>
      <trkpt lat="44.696569" lon="6.150545">
        <time>2021-12-28T16:18:40+00:00</time>
        <ele>1827.0</ele>
      </trkpt>
      <trkpt lat="44.69657" lon="6.150536">
        <time>2021-12-28T16:18:41+00:00</time>
        <ele>1826.0</ele>
      </trkpt>
      <trkpt lat="44.696585" lon="6.15048">
        <time>2021-12-28T16:18:47+00:00</time>
        <ele>1827.0</ele>
      </trkpt>
      <trkpt lat="44.696588" lon="6.15047">
        <time>2021-12-28T16:18:48+00:00</time>
        <ele>1827.0</ele>
      </trkpt>
      <trkpt lat="44.696604" lon="6.150414">
        <time>2021-12-28T16:18:53+00:00</time>
        <ele>1827.0</ele>
      </trkpt>
      <trkpt lat="44.69661" lon="6.150379">
        <time>2021-12-28T16:18:56+00:00</time>
        <ele>1827.0</ele>
      </trkpt>
      <trkpt lat="44.696613" lon="6.150371">
        <time>2021-12-28T16:18:57+00:00</time>
        <ele>1827.0</ele>
      </trkpt>
      <trkpt lat="44.696615" lon="6.150361">
        <time>2021-12-28T16:18:58+00:00</time>
        <ele>1827.0</ele>
      </trkpt>
      <trkpt lat="44.696649" lon="6.150295">
        <time>2021-12-28T16:19:06+00:00</time>
        <ele>1828.0</ele>
      </trkpt>
      <trkpt lat="44.696654" lon="6.150285">
        <time>2021-12-28T16:19:07+00:00</time>
        <ele>1828.0</ele>
      </trkpt>
      <trkpt lat="44.696693" lon="6.150219">
        <time>2021-12-28T16:19:14+00:00</time>
        <ele>1829.0</ele>
      </trkpt>
      <trkpt lat="44.696707" lon="6.150191">
        <time>2021-12-28T16:19:17+00:00</time>
        <ele>1829.0</ele>
      </trkpt>
      <trkpt lat="44.696734" lon="6.150144">
        <time>2021-12-28T16:19:22+00:00</time>
        <ele>1830.0</ele>
      </trkpt>
      <trkpt lat="44.69676" lon="6.150089">
        <time>2021-12-28T16:19:28+00:00</time>
        <ele>1830.0</ele>
      </trkpt>
      <trkpt lat="44.696762" lon="6.150085">
        <time>2021-12-28T16:19:29+00:00</time>
        <ele>1830.0</ele>
      </trkpt>
      <trkpt lat="44.696796" lon="6.150017">
        <time>2021-12-28T16:19:36+00:00</time>
        <ele>1831.0</ele>
      </trkpt>
      <trkpt lat="44.696826" lon="6.149973">
        <time>2021-12-28T16:19:41+00:00</time>
        <ele>1832.0</ele>
      </trkpt>
      <trkpt lat="44.696833" lon="6.149962">
        <time>2021-12-28T16:19:42+00:00</time>
        <ele>1832.0</ele>
      </trkpt>
      <trkpt lat="44.696867" lon="6.149911">
        <time>2021-12-28T16:19:49+00:00</time>
        <ele>1833.0</ele>
      </trkpt>
      <trkpt lat="44.696884" lon="6.149892">
        <time>2021-12-28T16:19:52+00:00</time>
        <ele>1834.0</ele>
      </trkpt>
      <trkpt lat="44.696916" lon="6.149883">
        <time>2021-12-28T16:19:56+00:00</time>
        <ele>1835.0</ele>
      </trkpt>
      <trkpt lat="44.696924" lon="6.149879">
        <time>2021-12-28T16:19:57+00:00</time>
        <ele>1835.0</ele>
      </trkpt>
      <trkpt lat="44.69696" lon="6.149837">
        <time>2021-12-28T16:20:03+00:00</time>
        <ele>1836.0</ele>
      </trkpt>
      <trkpt lat="44.696987" lon="6.149809">
        <time>2021-12-28T16:20:07+00:00</time>
        <ele>1836.0</ele>
      </trkpt>
      <trkpt lat="44.697018" lon="6.149782">
        <time>2021-12-28T16:20:12+00:00</time>
        <ele>1838.0</ele>
      </trkpt>
      <trkpt lat="44.697048" lon="6.149762">
        <time>2021-12-28T16:20:16+00:00</time>
        <ele>1839.0</ele>
      </trkpt>
      <trkpt lat="44.697077" lon="6.14975">
        <time>2021-12-28T16:20:20+00:00</time>
        <ele>1840.0</ele>
      </trkpt>
      <trkpt lat="44.697107" lon="6.149741">
        <time>2021-12-28T16:20:24+00:00</time>
        <ele>1841.0</ele>
      </trkpt>
      <trkpt lat="44.697112" lon="6.149741">
        <time>2021-12-28T16:20:25+00:00</time>
        <ele>1841.0</ele>
      </trkpt>
      <trkpt lat="44.697118" lon="6.149738">
        <time>2021-12-28T16:20:26+00:00</time>
        <ele>1842.0</ele>
      </trkpt>
      <trkpt lat="44.697143" lon="6.14972">
        <time>2021-12-28T16:20:31+00:00</time>
        <ele>1842.0</ele>
      </trkpt>
      <trkpt lat="44.697153" lon="6.14972">
        <time>2021-12-28T16:20:33+00:00</time>
        <ele>1843.0</ele>
      </trkpt>
      <trkpt lat="44.697181" lon="6.149711">
        <time>2021-12-28T16:20:37+00:00</time>
        <ele>1844.0</ele>
      </trkpt>
      <trkpt lat="44.697205" lon="6.149718">
        <time>2021-12-28T16:20:41+00:00</time>
        <ele>1845.0</ele>
      </trkpt>
      <trkpt lat="44.69721" lon="6.149718">
        <time>2021-12-28T16:20:42+00:00</time>
        <ele>1845.0</ele>
      </trkpt>
      <trkpt lat="44.697215" lon="6.149716">
        <time>2021-12-28T16:20:43+00:00</time>
        <ele>1845.0</ele>
      </trkpt>
      <trkpt lat="44.697243" lon="6.149716">
        <time>2021-12-28T16:20:47+00:00</time>
        <ele>1846.0</ele>
      </trkpt>
      <trkpt lat="44.697274" lon="6.149709">
        <time>2021-12-28T16:20:52+00:00</time>
        <ele>1847.0</ele>
      </trkpt>
      <trkpt lat="44.697279" lon="6.149709">
        <time>2021-12-28T16:20:53+00:00</time>
        <ele>1847.0</ele>
      </trkpt>
      <trkpt lat="44.697298" lon="6.149706">
        <time>2021-12-28T16:20:57+00:00</time>
        <ele>1848.0</ele>
      </trkpt>
      <trkpt lat="44.697329" lon="6.149708">
        <time>2021-12-28T16:21:02+00:00</time>
        <ele>1849.0</ele>
      </trkpt>
      <trkpt lat="44.697352" lon="6.149708">
        <time>2021-12-28T16:21:06+00:00</time>
        <ele>1850.0</ele>
      </trkpt>
      <trkpt lat="44.697376" lon="6.149701">
        <time>2021-12-28T16:21:11+00:00</time>
        <ele>1851.0</ele>
      </trkpt>
      <trkpt lat="44.697401" lon="6.149705">
        <time>2021-12-28T16:21:15+00:00</time>
        <ele>1851.0</ele>
      </trkpt>
      <trkpt lat="44.697427" lon="6.149708">
        <time>2021-12-28T16:21:19+00:00</time>
        <ele>1852.0</ele>
      </trkpt>
      <trkpt lat="44.697432" lon="6.14971">
        <time>2021-12-28T16:21:20+00:00</time>
        <ele>1852.0</ele>
      </trkpt>
      <trkpt lat="44.697457" lon="6.149723">
        <time>2021-12-28T16:21:24+00:00</time>
        <ele>1853.0</ele>
      </trkpt>
      <trkpt lat="44.697479" lon="6.149727">
        <time>2021-12-28T16:21:27+00:00</time>
        <ele>1854.0</ele>
      </trkpt>
      <trkpt lat="44.697501" lon="6.14974">
        <time>2021-12-28T16:21:30+00:00</time>
        <ele>1854.0</ele>
      </trkpt>
      <trkpt lat="44.69751" lon="6.149748">
        <time>2021-12-28T16:21:31+00:00</time>
        <ele>1855.0</ele>
      </trkpt>
      <trkpt lat="44.697517" lon="6.149754">
        <time>2021-12-28T16:21:32+00:00</time>
        <ele>1855.0</ele>
      </trkpt>
      <trkpt lat="44.69754" lon="6.149792">
        <time>2021-12-28T16:21:35+00:00</time>
        <ele>1856.0</ele>
      </trkpt>
      <trkpt lat="44.697564" lon="6.149798">
        <time>2021-12-28T16:21:40+00:00</time>
        <ele>1857.0</ele>
      </trkpt>
      <trkpt lat="44.697579" lon="6.149793">
        <time>2021-12-28T16:21:42+00:00</time>
        <ele>1857.0</ele>
      </trkpt>
      <trkpt lat="44.697606" lon="6.149812">
        <time>2021-12-28T16:21:46+00:00</time>
        <ele>1859.0</ele>
      </trkpt>
      <trkpt lat="44.697629" lon="6.149843">
        <time>2021-12-28T16:21:51+00:00</time>
        <ele>1860.0</ele>
      </trkpt>
      <trkpt lat="44.697638" lon="6.149846">
        <time>2021-12-28T16:21:53+00:00</time>
        <ele>1860.0</ele>
      </trkpt>
      <trkpt lat="44.697641" lon="6.149848">
        <time>2021-12-28T16:21:54+00:00</time>
        <ele>1860.0</ele>
      </trkpt>
      <trkpt lat="44.697665" lon="6.149883">
        <time>2021-12-28T16:21:59+00:00</time>
        <ele>1862.0</ele>
      </trkpt>
      <trkpt lat="44.697687" lon="6.149903">
        <time>2021-12-28T16:22:03+00:00</time>
        <ele>1863.0</ele>
      </trkpt>
      <trkpt lat="44.697692" lon="6.149908">
        <time>2021-12-28T16:22:04+00:00</time>
        <ele>1863.0</ele>
      </trkpt>
      <trkpt lat="44.697712" lon="6.149931">
        <time>2021-12-28T16:22:08+00:00</time>
        <ele>1864.0</ele>
      </trkpt>
      <trkpt lat="44.697734" lon="6.149952">
        <time>2021-12-28T16:22:14+00:00</time>
        <ele>1865.0</ele>
      </trkpt>
      <trkpt lat="44.69774" lon="6.149962">
        <time>2021-12-28T16:22:16+00:00</time>
        <ele>1865.0</ele>
      </trkpt>
      <trkpt lat="44.697753" lon="6.149976">
        <time>2021-12-28T16:22:19+00:00</time>
        <ele>1866.0</ele>
      </trkpt>
      <trkpt lat="44.697784" lon="6.150009">
        <time>2021-12-28T16:22:25+00:00</time>
        <ele>1867.0</ele>
      </trkpt>
      <trkpt lat="44.697788" lon="6.150012">
        <time>2021-12-28T16:22:26+00:00</time>
        <ele>1867.0</ele>
      </trkpt>
      <trkpt lat="44.697812" lon="6.150029">
        <time>2021-12-28T16:22:31+00:00</time>
        <ele>1869.0</ele>
      </trkpt>
      <trkpt lat="44.697837" lon="6.150061">
        <time>2021-12-28T16:22:36+00:00</time>
        <ele>1870.0</ele>
      </trkpt>
      <trkpt lat="44.697839" lon="6.150069">
        <time>2021-12-28T16:22:37+00:00</time>
        <ele>1870.0</ele>
      </trkpt>
      <trkpt lat="44.697851" lon="6.150083">
        <time>2021-12-28T16:22:40+00:00</time>
        <ele>1871.0</ele>
      </trkpt>
      <trkpt lat="44.697868" lon="6.150097">
        <time>2021-12-28T16:22:43+00:00</time>
        <ele>1871.0</ele>
      </trkpt>
      <trkpt lat="44.697879" lon="6.150112">
        <time>2021-12-28T16:22:45+00:00</time>
        <ele>1872.0</ele>
      </trkpt>
      <trkpt lat="44.697886" lon="6.150121">
        <time>2021-12-28T16:22:46+00:00</time>
        <ele>1872.0</ele>
      </trkpt>
      <trkpt lat="44.697896" lon="6.15015">
        <time>2021-12-28T16:22:51+00:00</time>
        <ele>1873.0</ele>
      </trkpt>
      <trkpt lat="44.697898" lon="6.150156">
        <time>2021-12-28T16:22:52+00:00</time>
        <ele>1873.0</ele>
      </trkpt>
      <trkpt lat="44.697901" lon="6.15016">
        <time>2021-12-28T16:22:53+00:00</time>
        <ele>1873.0</ele>
      </trkpt>
      <trkpt lat="44.697924" lon="6.15018">
        <time>2021-12-28T16:22:57+00:00</time>
        <ele>1874.0</ele>
      </trkpt>
      <trkpt lat="44.697946" lon="6.150204">
        <time>2021-12-28T16:23:01+00:00</time>
        <ele>1875.0</ele>
      </trkpt>
      <trkpt lat="44.697958" lon="6.150228">
        <time>2021-12-28T16:23:04+00:00</time>
        <ele>1876.0</ele>
      </trkpt>
      <trkpt lat="44.69797" lon="6.150264">
        <time>2021-12-28T16:23:09+00:00</time>
        <ele>1877.0</ele>
      </trkpt>
      <trkpt lat="44.697964" lon="6.150275">
        <time>2021-12-28T16:23:14+00:00</time>
        <ele>1876.0</ele>
      </trkpt>
      <trkpt lat="44.697974" lon="6.150289">
        <time>2021-12-28T16:23:17+00:00</time>
        <ele>1877.0</ele>
      </trkpt>
      <trkpt lat="44.697979" lon="6.150281">
        <time>2021-12-28T16:23:21+00:00</time>
        <ele>1877.0</ele>
      </trkpt>
      <trkpt lat="44.697978" lon="6.150286">
        <time>2021-12-28T16:23:32+00:00</time>
        <ele>1877.0</ele>
      </trkpt>
      <trkpt lat="44.697978" lon="6.150286">
        <time>2021-12-28T16:23:34+00:00</time>
        <ele>1877.0</ele>
      </trkpt>
      <trkpt lat="44.697978" lon="6.150289">
        <time>2021-12-28T16:23:36+00:00</time>
        <ele>1877.0</ele>
      </trkpt>
      <trkpt lat="44.69798" lon="6.150293">
        <time>2021-12-28T16:23:39+00:00</time>
        <ele>1877.0</ele>
      </trkpt>
      <trkpt lat="44.69802" lon="6.150438">
        <time>2021-12-28T16:23:48+00:00</time>
        <ele>1880.0</ele>
      </trkpt>
      <trkpt lat="44.698049" lon="6.150533">
        <time>2021-12-28T16:23:52+00:00</time>
        <ele>1881.0</ele>
      </trkpt>
      <trkpt lat="44.698055" lon="6.150573">
        <time>2021-12-28T16:23:56+00:00</time>
        <ele>1882.0</ele>
      </trkpt>
      <trkpt lat="44.698055" lon="6.150598">
        <time>2021-12-28T16:23:59+00:00</time>
        <ele>1882.0</ele>
      </trkpt>
      <trkpt lat="44.69807" lon="6.150668">
        <time>2021-12-28T16:24:06+00:00</time>
        <ele>1883.0</ele>
      </trkpt>
      <trkpt lat="44.698074" lon="6.150683">
        <time>2021-12-28T16:24:08+00:00</time>
        <ele>1883.0</ele>
      </trkpt>
      <trkpt lat="44.698075" lon="6.150712">
        <time>2021-12-28T16:24:11+00:00</time>
        <ele>1883.0</ele>
      </trkpt>
      <trkpt lat="44.698086" lon="6.150745">
        <time>2021-12-28T16:24:15+00:00</time>
        <ele>1884.0</ele>
      </trkpt>
      <trkpt lat="44.698086" lon="6.150755">
        <time>2021-12-28T16:24:16+00:00</time>
        <ele>1884.0</ele>
      </trkpt>
      <trkpt lat="44.698091" lon="6.150809">
        <time>2021-12-28T16:24:22+00:00</time>
        <ele>1884.0</ele>
      </trkpt>
      <trkpt lat="44.698097" lon="6.150821">
        <time>2021-12-28T16:24:23+00:00</time>
        <ele>1884.0</ele>
      </trkpt>
      <trkpt lat="44.698114" lon="6.15085">
        <time>2021-12-28T16:24:26+00:00</time>
        <ele>1885.0</ele>
      </trkpt>
      <trkpt lat="44.698123" lon="6.150864">
        <time>2021-12-28T16:24:27+00:00</time>
        <ele>1885.0</ele>
      </trkpt>
      <trkpt lat="44.698124" lon="6.150889">
        <time>2021-12-28T16:24:30+00:00</time>
        <ele>1885.0</ele>
      </trkpt>
      <trkpt lat="44.698127" lon="6.150907">
        <time>2021-12-28T16:24:32+00:00</time>
        <ele>1885.0</ele>
      </trkpt>
      <trkpt lat="44.698133" lon="6.150934">
        <time>2021-12-28T16:24:35+00:00</time>
        <ele>1886.0</ele>
      </trkpt>
      <trkpt lat="44.698135" lon="6.150963">
        <time>2021-12-28T16:24:37+00:00</time>
        <ele>1886.0</ele>
      </trkpt>
      <trkpt lat="44.698141" lon="6.150971">
        <time>2021-12-28T16:24:39+00:00</time>
        <ele>1886.0</ele>
      </trkpt>
      <trkpt lat="44.698146" lon="6.150979">
        <time>2021-12-28T16:24:40+00:00</time>
        <ele>1886.0</ele>
      </trkpt>
      <trkpt lat="44.698157" lon="6.151036">
        <time>2021-12-28T16:24:45+00:00</time>
        <ele>1887.0</ele>
      </trkpt>
      <trkpt lat="44.698159" lon="6.151069">
        <time>2021-12-28T16:24:48+00:00</time>
        <ele>1887.0</ele>
      </trkpt>
      <trkpt lat="44.698189" lon="6.151153">
        <time>2021-12-28T16:24:56+00:00</time>
        <ele>1888.0</ele>
      </trkpt>
      <trkpt lat="44.6982" lon="6.151217">
        <time>2021-12-28T16:25:02+00:00</time>
        <ele>1889.0</ele>
      </trkpt>
      <trkpt lat="44.698216" lon="6.151269">
        <time>2021-12-28T16:25:06+00:00</time>
        <ele>1890.0</ele>
      </trkpt>
      <trkpt lat="44.698219" lon="6.151283">
        <time>2021-12-28T16:25:07+00:00</time>
        <ele>1890.0</ele>
      </trkpt>
      <trkpt lat="44.698246" lon="6.151356">
        <time>2021-12-28T16:25:14+00:00</time>
        <ele>1892.0</ele>
      </trkpt>
      <trkpt lat="44.69825" lon="6.151375">
        <time>2021-12-28T16:25:16+00:00</time>
        <ele>1892.0</ele>
      </trkpt>
      <trkpt lat="44.698265" lon="6.151425">
        <time>2021-12-28T16:25:21+00:00</time>
        <ele>1893.0</ele>
      </trkpt>
      <trkpt lat="44.698285" lon="6.151448">
        <time>2021-12-28T16:25:24+00:00</time>
        <ele>1894.0</ele>
      </trkpt>
      <trkpt lat="44.69829" lon="6.151458">
        <time>2021-12-28T16:25:25+00:00</time>
        <ele>1894.0</ele>
      </trkpt>
      <trkpt lat="44.698298" lon="6.151484">
        <time>2021-12-28T16:25:27+00:00</time>
        <ele>1895.0</ele>
      </trkpt>
      <trkpt lat="44.698302" lon="6.151558">
        <time>2021-12-28T16:25:34+00:00</time>
        <ele>1896.0</ele>
      </trkpt>
      <trkpt lat="44.698303" lon="6.15157">
        <time>2021-12-28T16:25:35+00:00</time>
        <ele>1896.0</ele>
      </trkpt>
      <trkpt lat="44.698322" lon="6.151637">
        <time>2021-12-28T16:25:42+00:00</time>
        <ele>1897.0</ele>
      </trkpt>
      <trkpt lat="44.69833" lon="6.151647">
        <time>2021-12-28T16:25:43+00:00</time>
        <ele>1898.0</ele>
      </trkpt>
      <trkpt lat="44.698337" lon="6.151657">
        <time>2021-12-28T16:25:44+00:00</time>
        <ele>1898.0</ele>
      </trkpt>
      <trkpt lat="44.698369" lon="6.151714">
        <time>2021-12-28T16:25:50+00:00</time>
        <ele>1899.0</ele>
      </trkpt>
      <trkpt lat="44.698391" lon="6.151752">
        <time>2021-12-28T16:25:54+00:00</time>
        <ele>1900.0</ele>
      </trkpt>
      <trkpt lat="44.698403" lon="6.151769">
        <time>2021-12-28T16:25:56+00:00</time>
        <ele>1901.0</ele>
      </trkpt>
      <trkpt lat="44.698429" lon="6.151797">
        <time>2021-12-28T16:26:01+00:00</time>
        <ele>1901.0</ele>
      </trkpt>
      <trkpt lat="44.698446" lon="6.151827">
        <time>2021-12-28T16:26:05+00:00</time>
        <ele>1902.0</ele>
      </trkpt>
      <trkpt lat="44.698458" lon="6.151843">
        <time>2021-12-28T16:26:07+00:00</time>
        <ele>1903.0</ele>
      </trkpt>
      <trkpt lat="44.698482" lon="6.151867">
        <time>2021-12-28T16:26:10+00:00</time>
        <ele>1904.0</ele>
      </trkpt>
      <trkpt lat="44.698511" lon="6.151903">
        <time>2021-12-28T16:26:15+00:00</time>
        <ele>1905.0</ele>
      </trkpt>
      <trkpt lat="44.698516" lon="6.151903">
        <time>2021-12-28T16:26:16+00:00</time>
        <ele>1905.0</ele>
      </trkpt>
      <trkpt lat="44.698544" lon="6.151922">
        <time>2021-12-28T16:26:20+00:00</time>
        <ele>1906.0</ele>
      </trkpt>
      <trkpt lat="44.698558" lon="6.151934">
        <time>2021-12-28T16:26:22+00:00</time>
        <ele>1906.0</ele>
      </trkpt>
      <trkpt lat="44.698587" lon="6.151971">
        <time>2021-12-28T16:26:28+00:00</time>
        <ele>1907.0</ele>
      </trkpt>
      <trkpt lat="44.698602" lon="6.151985">
        <time>2021-12-28T16:26:30+00:00</time>
        <ele>1908.0</ele>
      </trkpt>
      <trkpt lat="44.698623" lon="6.152008">
        <time>2021-12-28T16:26:35+00:00</time>
        <ele>1908.0</ele>
      </trkpt>
      <trkpt lat="44.698645" lon="6.152027">
        <time>2021-12-28T16:26:39+00:00</time>
        <ele>1909.0</ele>
      </trkpt>
      <trkpt lat="44.698667" lon="6.152038">
        <time>2021-12-28T16:26:42+00:00</time>
        <ele>1910.0</ele>
      </trkpt>
      <trkpt lat="44.698681" lon="6.15205">
        <time>2021-12-28T16:26:45+00:00</time>
        <ele>1910.0</ele>
      </trkpt>
      <trkpt lat="44.698734" lon="6.15208">
        <time>2021-12-28T16:26:52+00:00</time>
        <ele>1912.0</ele>
      </trkpt>
      <trkpt lat="44.698782" lon="6.152115">
        <time>2021-12-28T16:26:59+00:00</time>
        <ele>1913.0</ele>
      </trkpt>
      <trkpt lat="44.698851" lon="6.15217">
        <time>2021-12-28T16:27:09+00:00</time>
        <ele>1915.0</ele>
      </trkpt>
      <trkpt lat="44.698862" lon="6.152175">
        <time>2021-12-28T16:27:10+00:00</time>
        <ele>1916.0</ele>
      </trkpt>
      <trkpt lat="44.698877" lon="6.15219">
        <time>2021-12-28T16:27:13+00:00</time>
        <ele>1916.0</ele>
      </trkpt>
      <trkpt lat="44.698935" lon="6.152242">
        <time>2021-12-28T16:27:25+00:00</time>
        <ele>1918.0</ele>
      </trkpt>
      <trkpt lat="44.698953" lon="6.152257">
        <time>2021-12-28T16:27:28+00:00</time>
        <ele>1919.0</ele>
      </trkpt>
      <trkpt lat="44.699009" lon="6.152302">
        <time>2021-12-28T16:27:38+00:00</time>
        <ele>1921.0</ele>
      </trkpt>
      <trkpt lat="44.699031" lon="6.152314">
        <time>2021-12-28T16:27:42+00:00</time>
        <ele>1921.0</ele>
      </trkpt>
      <trkpt lat="44.699067" lon="6.152338">
        <time>2021-12-28T16:27:49+00:00</time>
        <ele>1922.0</ele>
      </trkpt>
      <trkpt lat="44.699088" lon="6.15236">
        <time>2021-12-28T16:27:54+00:00</time>
        <ele>1923.0</ele>
      </trkpt>
      <trkpt lat="44.699117" lon="6.152403">
        <time>2021-12-28T16:28:01+00:00</time>
        <ele>1924.0</ele>
      </trkpt>
      <trkpt lat="44.699127" lon="6.152425">
        <time>2021-12-28T16:28:04+00:00</time>
        <ele>1925.0</ele>
      </trkpt>
      <trkpt lat="44.699132" lon="6.152433">
        <time>2021-12-28T16:28:05+00:00</time>
        <ele>1925.0</ele>
      </trkpt>
      <trkpt lat="44.699172" lon="6.152462">
        <time>2021-12-28T16:28:12+00:00</time>
        <ele>1926.0</ele>
      </trkpt>
      <trkpt lat="44.699181" lon="6.152472">
        <time>2021-12-28T16:28:14+00:00</time>
        <ele>1927.0</ele>
      </trkpt>
      <trkpt lat="44.699194" lon="6.152476">
        <time>2021-12-28T16:28:16+00:00</time>
        <ele>1927.0</ele>
      </trkpt>
      <trkpt lat="44.699203" lon="6.152476">
        <time>2021-12-28T16:28:17+00:00</time>
        <ele>1927.0</ele>
      </trkpt>
      <trkpt lat="44.699227" lon="6.152484">
        <time>2021-12-28T16:28:21+00:00</time>
        <ele>1928.0</ele>
      </trkpt>
      <trkpt lat="44.699246" lon="6.152489">
        <time>2021-12-28T16:28:24+00:00</time>
        <ele>1928.0</ele>
      </trkpt>
      <trkpt lat="44.69926" lon="6.152488">
        <time>2021-12-28T16:28:27+00:00</time>
        <ele>1929.0</ele>
      </trkpt>
      <trkpt lat="44.699274" lon="6.152495">
        <time>2021-12-28T16:28:29+00:00</time>
        <ele>1929.0</ele>
      </trkpt>
      <trkpt lat="44.699286" lon="6.152505">
        <time>2021-12-28T16:28:31+00:00</time>
        <ele>1929.0</ele>
      </trkpt>
      <trkpt lat="44.6993" lon="6.152506">
        <time>2021-12-28T16:28:33+00:00</time>
        <ele>1930.0</ele>
      </trkpt>
      <trkpt lat="44.699313" lon="6.15251">
        <time>2021-12-28T16:28:35+00:00</time>
        <ele>1930.0</ele>
      </trkpt>
      <trkpt lat="44.699352" lon="6.152527">
        <time>2021-12-28T16:28:41+00:00</time>
        <ele>1931.0</ele>
      </trkpt>
      <trkpt lat="44.699357" lon="6.15253">
        <time>2021-12-28T16:28:42+00:00</time>
        <ele>1931.0</ele>
      </trkpt>
      <trkpt lat="44.699376" lon="6.152539">
        <time>2021-12-28T16:28:44+00:00</time>
        <ele>1931.0</ele>
      </trkpt>
      <trkpt lat="44.69943" lon="6.152573">
        <time>2021-12-28T16:28:51+00:00</time>
        <ele>1933.0</ele>
      </trkpt>
      <trkpt lat="44.699507" lon="6.152599">
        <time>2021-12-28T16:29:00+00:00</time>
        <ele>1934.0</ele>
      </trkpt>
      <trkpt lat="44.699514" lon="6.1526">
        <time>2021-12-28T16:29:01+00:00</time>
        <ele>1934.0</ele>
      </trkpt>
      <trkpt lat="44.699533" lon="6.152603">
        <time>2021-12-28T16:29:04+00:00</time>
        <ele>1935.0</ele>
      </trkpt>
      <trkpt lat="44.699564" lon="6.152608">
        <time>2021-12-28T16:29:08+00:00</time>
        <ele>1935.0</ele>
      </trkpt>
      <trkpt lat="44.699585" lon="6.152616">
        <time>2021-12-28T16:29:11+00:00</time>
        <ele>1936.0</ele>
      </trkpt>
      <trkpt lat="44.699618" lon="6.152636">
        <time>2021-12-28T16:29:16+00:00</time>
        <ele>1936.0</ele>
      </trkpt>
      <trkpt lat="44.699636" lon="6.152644">
        <time>2021-12-28T16:29:19+00:00</time>
        <ele>1937.0</ele>
      </trkpt>
      <trkpt lat="44.699666" lon="6.152659">
        <time>2021-12-28T16:29:24+00:00</time>
        <ele>1937.0</ele>
      </trkpt>
      <trkpt lat="44.69968" lon="6.152675">
        <time>2021-12-28T16:29:27+00:00</time>
        <ele>1938.0</ele>
      </trkpt>
      <trkpt lat="44.699714" lon="6.152712">
        <time>2021-12-28T16:29:32+00:00</time>
        <ele>1939.0</ele>
      </trkpt>
      <trkpt lat="44.699735" lon="6.152768">
        <time>2021-12-28T16:29:39+00:00</time>
        <ele>1940.0</ele>
      </trkpt>
      <trkpt lat="44.699743" lon="6.152787">
        <time>2021-12-28T16:29:40+00:00</time>
        <ele>1940.0</ele>
      </trkpt>
      <trkpt lat="44.699783" lon="6.152842">
        <time>2021-12-28T16:29:46+00:00</time>
        <ele>1941.0</ele>
      </trkpt>
      <trkpt lat="44.699797" lon="6.152859">
        <time>2021-12-28T16:29:48+00:00</time>
        <ele>1942.0</ele>
      </trkpt>
      <trkpt lat="44.699812" lon="6.152877">
        <time>2021-12-28T16:29:50+00:00</time>
        <ele>1942.0</ele>
      </trkpt>
      <trkpt lat="44.699816" lon="6.152893">
        <time>2021-12-28T16:29:52+00:00</time>
        <ele>1942.0</ele>
      </trkpt>
      <trkpt lat="44.69983" lon="6.152923">
        <time>2021-12-28T16:29:56+00:00</time>
        <ele>1942.0</ele>
      </trkpt>
      <trkpt lat="44.699832" lon="6.15293">
        <time>2021-12-28T16:29:57+00:00</time>
        <ele>1942.0</ele>
      </trkpt>
      <trkpt lat="44.699838" lon="6.152951">
        <time>2021-12-28T16:30:00+00:00</time>
        <ele>1943.0</ele>
      </trkpt>
      <trkpt lat="44.699846" lon="6.152971">
        <time>2021-12-28T16:30:02+00:00</time>
        <ele>1943.0</ele>
      </trkpt>
      <trkpt lat="44.699845" lon="6.15299">
        <time>2021-12-28T16:30:05+00:00</time>
        <ele>1943.0</ele>
      </trkpt>
      <trkpt lat="44.699864" lon="6.153038">
        <time>2021-12-28T16:30:11+00:00</time>
        <ele>1943.0</ele>
      </trkpt>
      <trkpt lat="44.699869" lon="6.153046">
        <time>2021-12-28T16:30:12+00:00</time>
        <ele>1944.0</ele>
      </trkpt>
      <trkpt lat="44.699872" lon="6.153055">
        <time>2021-12-28T16:30:13+00:00</time>
        <ele>1944.0</ele>
      </trkpt>
      <trkpt lat="44.699901" lon="6.153119">
        <time>2021-12-28T16:30:21+00:00</time>
        <ele>1945.0</ele>
      </trkpt>
      <trkpt lat="44.699909" lon="6.153178">
        <time>2021-12-28T16:30:28+00:00</time>
        <ele>1945.0</ele>
      </trkpt>
      <trkpt lat="44.69991" lon="6.153188">
        <time>2021-12-28T16:30:29+00:00</time>
        <ele>1945.0</ele>
      </trkpt>
      <trkpt lat="44.699917" lon="6.153209">
        <time>2021-12-28T16:30:35+00:00</time>
        <ele>1945.0</ele>
      </trkpt>
      <trkpt lat="44.699916" lon="6.153211">
        <time>2021-12-28T16:30:37+00:00</time>
        <ele>1945.0</ele>
      </trkpt>
      <trkpt lat="44.699902" lon="6.153211">
        <time>2021-12-28T16:30:42+00:00</time>
        <ele>1945.0</ele>
      </trkpt>
      <trkpt lat="44.699902" lon="6.153211">
        <time>2021-12-28T16:30:46+00:00</time>
        <ele>1945.0</ele>
      </trkpt>
      <trkpt lat="44.699903" lon="6.153211">
        <time>2021-12-28T16:30:56+00:00</time>
        <ele>1945.0</ele>
      </trkpt>
      <trkpt lat="44.699903" lon="6.15322">
        <time>2021-12-28T16:30:59+00:00</time>
        <ele>1945.0</ele>
      </trkpt>
      <trkpt lat="44.699902" lon="6.153223">
        <time>2021-12-28T16:31:03+00:00</time>
        <ele>1945.0</ele>
      </trkpt>
      <trkpt lat="44.699901" lon="6.153223">
        <time>2021-12-28T16:31:06+00:00</time>
        <ele>1945.0</ele>
      </trkpt>
      <trkpt lat="44.6999" lon="6.153224">
        <time>2021-12-28T16:31:07+00:00</time>
        <ele>1945.0</ele>
      </trkpt>
      <trkpt lat="44.699898" lon="6.153227">
        <time>2021-12-28T16:31:11+00:00</time>
        <ele>1945.0</ele>
      </trkpt>
      <trkpt lat="44.699897" lon="6.153232">
        <time>2021-12-28T16:31:13+00:00</time>
        <ele>1944.0</ele>
      </trkpt>
      <trkpt lat="44.699894" lon="6.153259">
        <time>2021-12-28T16:31:16+00:00</time>
        <ele>1944.0</ele>
      </trkpt>
      <trkpt lat="44.699894" lon="6.15327">
        <time>2021-12-28T16:31:19+00:00</time>
        <ele>1944.0</ele>
      </trkpt>
      <trkpt lat="44.699894" lon="6.153271">
        <time>2021-12-28T16:31:23+00:00</time>
        <ele>1944.0</ele>
      </trkpt>
      <trkpt lat="44.699893" lon="6.153273">
        <time>2021-12-28T16:31:26+00:00</time>
        <ele>1944.0</ele>
      </trkpt>
      <trkpt lat="44.69989" lon="6.153295">
        <time>2021-12-28T16:31:32+00:00</time>
        <ele>1944.0</ele>
      </trkpt>
      <trkpt lat="44.699894" lon="6.153293">
        <time>2021-12-28T16:31:47+00:00</time>
        <ele>1944.0</ele>
      </trkpt>
      <trkpt lat="44.6999" lon="6.153277">
        <time>2021-12-28T16:31:56+00:00</time>
        <ele>1945.0</ele>
      </trkpt>
      <trkpt lat="44.699905" lon="6.153272">
        <time>2021-12-28T16:32:05+00:00</time>
        <ele>1945.0</ele>
      </trkpt>
      <trkpt lat="44.699903" lon="6.153261">
        <time>2021-12-28T16:32:25+00:00</time>
        <ele>1945.0</ele>
      </trkpt>
      <trkpt lat="44.699901" lon="6.15326">
        <time>2021-12-28T16:32:28+00:00</time>
        <ele>1945.0</ele>
      </trkpt>
      <trkpt lat="44.69989" lon="6.153263">
        <time>2021-12-28T16:32:42+00:00</time>
        <ele>1944.0</ele>
      </trkpt>
      <trkpt lat="44.699888" lon="6.153265">
        <time>2021-12-28T16:32:45+00:00</time>
        <ele>1944.0</ele>
      </trkpt>
      <trkpt lat="44.699888" lon="6.153292">
        <time>2021-12-28T16:32:56+00:00</time>
        <ele>1944.0</ele>
      </trkpt>
      <trkpt lat="44.699895" lon="6.153318">
        <time>2021-12-28T16:33:02+00:00</time>
        <ele>1944.0</ele>
      </trkpt>
      <trkpt lat="44.699887" lon="6.153324">
        <time>2021-12-28T16:33:49+00:00</time>
        <ele>1944.0</ele>
      </trkpt>
      <trkpt lat="44.699883" lon="6.153326">
        <time>2021-12-28T16:34:09+00:00</time>
        <ele>1944.0</ele>
      </trkpt>
      <trkpt lat="44.699883" lon="6.153326">
        <time>2021-12-28T16:34:16+00:00</time>
        <ele>1944.0</ele>
      </trkpt>
      <trkpt lat="44.699883" lon="6.153325">
        <time>2021-12-28T16:34:28+00:00</time>
        <ele>1944.0</ele>
      </trkpt>
      <trkpt lat="44.699883" lon="6.153325">
        <time>2021-12-28T16:34:32+00:00</time>
        <ele>1944.0</ele>
      </trkpt>
      <trkpt lat="44.699883" lon="6.153325">
        <time>2021-12-28T16:34:42+00:00</time>
        <ele>1944.0</ele>
      </trkpt>
      <trkpt lat="44.699883" lon="6.153325">
        <time>2021-12-28T16:34:49+00:00</time>
        <ele>1944.0</ele>
      </trkpt>
      <trkpt lat="44.699884" lon="6.153325">
        <time>2021-12-28T16:34:58+00:00</time>
        <ele>1944.0</ele>
      </trkpt>
      <trkpt lat="44.699884" lon="6.153325">
        <time>2021-12-28T16:35:01+00:00</time>
        <ele>1944.0</ele>
      </trkpt>
      <trkpt lat="44.699884" lon="6.153325">
        <time>2021-12-28T16:35:05+00:00</time>
        <ele>1944.0</ele>
      </trkpt>
      <trkpt lat="44.699885" lon="6.153324">
        <time>2021-12-28T16:35:27+00:00</time>
        <ele>1944.0</ele>
      </trkpt>
      <trkpt lat="44.699885" lon="6.153324">
        <time>2021-12-28T16:35:31+00:00</time>
        <ele>1944.0</ele>
      </trkpt>
      <trkpt lat="44.699885" lon="6.153322">
        <time>2021-12-28T16:36:02+00:00</time>
        <ele>1944.0</ele>
      </trkpt>
      <trkpt lat="44.699885" lon="6.153321">
        <time>2021-12-28T16:36:05+00:00</time>
        <ele>1944.0</ele>
      </trkpt>
      <trkpt lat="44.699885" lon="6.15332">
        <time>2021-12-28T16:36:16+00:00</time>
        <ele>1944.0</ele>
      </trkpt>
      <trkpt lat="44.699884" lon="6.153319">
        <time>2021-12-28T16:36:31+00:00</time>
        <ele>1944.0</ele>
      </trkpt>
      <trkpt lat="44.699883" lon="6.153318">
        <time>2021-12-28T16:36:36+00:00</time>
        <ele>1944.0</ele>
      </trkpt>
      <trkpt lat="44.699883" lon="6.153318">
        <time>2021-12-28T16:36:39+00:00</time>
        <ele>1944.0</ele>
      </trkpt>
      <trkpt lat="44.699883" lon="6.153317">
        <time>2021-12-28T16:36:51+00:00</time>
        <ele>1944.0</ele>
      </trkpt>
      <trkpt lat="44.699882" lon="6.153315">
        <time>2021-12-28T16:37:26+00:00</time>
        <ele>1944.0</ele>
      </trkpt>
      <trkpt lat="44.699882" lon="6.153315">
        <time>2021-12-28T16:37:31+00:00</time>
        <ele>1944.0</ele>
      </trkpt>
      <trkpt lat="44.699882" lon="6.153315">
        <time>2021-12-28T16:37:40+00:00</time>
        <ele>1944.0</ele>
      </trkpt>
      <trkpt lat="44.699882" lon="6.153315">
        <time>2021-12-28T16:37:42+00:00</time>
        <ele>1944.0</ele>
      </trkpt>
      <trkpt lat="44.699882" lon="6.153314">
        <time>2021-12-28T16:37:46+00:00</time>
        <ele>1944.0</ele>
      </trkpt>
      <trkpt lat="44.699882" lon="6.153314">
        <time>2021-12-28T16:37:49+00:00</time>
        <ele>1944.0</ele>
      </trkpt>
      <trkpt lat="44.699882" lon="6.153314">
        <time>2021-12-28T16:37:53+00:00</time>
        <ele>1944.0</ele>
      </trkpt>
      <trkpt lat="44.699882" lon="6.153313">
        <time>2021-12-28T16:38:22+00:00</time>
        <ele>1944.0</ele>
      </trkpt>
      <trkpt lat="44.699881" lon="6.153312">
        <time>2021-12-28T16:38:31+00:00</time>
        <ele>1944.0</ele>
      </trkpt>
      <trkpt lat="44.699881" lon="6.153312">
        <time>2021-12-28T16:38:36+00:00</time>
        <ele>1944.0</ele>
      </trkpt>
      <trkpt lat="44.699881" lon="6.153312">
        <time>2021-12-28T16:38:54+00:00</time>
        <ele>1944.0</ele>
      </trkpt>
      <trkpt lat="44.699881" lon="6.153312">
        <time>2021-12-28T16:38:55+00:00</time>
        <ele>1944.0</ele>
      </trkpt>
      <trkpt lat="44.699881" lon="6.153312">
        <time>2021-12-28T16:38:56+00:00</time>
        <ele>1944.0</ele>
      </trkpt>
      <trkpt lat="44.699879" lon="6.153309">
        <time>2021-12-28T16:39:37+00:00</time>
        <ele>1944.0</ele>
      </trkpt>
      <trkpt lat="44.699879" lon="6.153308">
        <time>2021-12-28T16:39:49+00:00</time>
        <ele>1944.0</ele>
      </trkpt>
      <trkpt lat="44.699879" lon="6.153307">
        <time>2021-12-28T16:40:00+00:00</time>
        <ele>1944.0</ele>
      </trkpt>
      <trkpt lat="44.699879" lon="6.153307">
        <time>2021-12-28T16:40:03+00:00</time>
        <ele>1944.0</ele>
      </trkpt>
      <trkpt lat="44.699879" lon="6.153306">
        <time>2021-12-28T16:40:12+00:00</time>
        <ele>1944.0</ele>
      </trkpt>
      <trkpt lat="44.699879" lon="6.153306">
        <time>2021-12-28T16:40:16+00:00</time>
        <ele>1944.0</ele>
      </trkpt>
      <trkpt lat="44.699878" lon="6.153305">
        <time>2021-12-28T16:40:33+00:00</time>
        <ele>1944.0</ele>
      </trkpt>
      <trkpt lat="44.699878" lon="6.153304">
        <time>2021-12-28T16:40:47+00:00</time>
        <ele>1944.0</ele>
      </trkpt>
      <trkpt lat="44.699878" lon="6.153303">
        <time>2021-12-28T16:41:08+00:00</time>
        <ele>1944.0</ele>
      </trkpt>
      <trkpt lat="44.699878" lon="6.153303">
        <time>2021-12-28T16:41:10+00:00</time>
        <ele>1944.0</ele>
      </trkpt>
      <trkpt lat="44.699878" lon="6.153302">
        <time>2021-12-28T16:41:17+00:00</time>
        <ele>1944.0</ele>
      </trkpt>
      <trkpt lat="44.699878" lon="6.153302">
        <time>2021-12-28T16:41:32+00:00</time>
        <ele>1944.0</ele>
      </trkpt>
      <trkpt lat="44.699878" lon="6.153302">
        <time>2021-12-28T16:41:41+00:00</time>
        <ele>1944.0</ele>
      </trkpt>
      <trkpt lat="44.699878" lon="6.153302">
        <time>2021-12-28T16:41:59+00:00</time>
        <ele>1944.0</ele>
      </trkpt>
      <trkpt lat="44.699878" lon="6.153302">
        <time>2021-12-28T16:42:02+00:00</time>
        <ele>1944.0</ele>
      </trkpt>
      <trkpt lat="44.699878" lon="6.153302">
        <time>2021-12-28T16:42:09+00:00</time>
        <ele>1944.0</ele>
      </trkpt>
      <trkpt lat="44.699878" lon="6.153302">
        <time>2021-12-28T16:42:13+00:00</time>
        <ele>1944.0</ele>
      </trkpt>
      <trkpt lat="44.699877" lon="6.153301">
        <time>2021-12-28T16:42:48+00:00</time>
        <ele>1944.0</ele>
      </trkpt>
      <trkpt lat="44.699876" lon="6.153301">
        <time>2021-12-28T16:42:51+00:00</time>
        <ele>1944.0</ele>
      </trkpt>
      <trkpt lat="44.699876" lon="6.153301">
        <time>2021-12-28T16:43:00+00:00</time>
        <ele>1944.0</ele>
      </trkpt>
      <trkpt lat="44.699876" lon="6.153301">
        <time>2021-12-28T16:43:02+00:00</time>
        <ele>1944.0</ele>
      </trkpt>
      <trkpt lat="44.699876" lon="6.153301">
        <time>2021-12-28T16:43:04+00:00</time>
        <ele>1944.0</ele>
      </trkpt>
      <trkpt lat="44.699876" lon="6.153301">
        <time>2021-12-28T16:43:08+00:00</time>
        <ele>1944.0</ele>
      </trkpt>
      <trkpt lat="44.699876" lon="6.1533">
        <time>2021-12-28T16:43:12+00:00</time>
        <ele>1944.0</ele>
      </trkpt>
      <trkpt lat="44.699876" lon="6.1533">
        <time>2021-12-28T16:43:20+00:00</time>
        <ele>1944.0</ele>
      </trkpt>
      <trkpt lat="44.699876" lon="6.1533">
        <time>2021-12-28T16:43:25+00:00</time>
        <ele>1944.0</ele>
      </trkpt>
      <trkpt lat="44.699875" lon="6.153299">
        <time>2021-12-28T16:43:46+00:00</time>
        <ele>1944.0</ele>
      </trkpt>
      <trkpt lat="44.699875" lon="6.153299">
        <time>2021-12-28T16:43:50+00:00</time>
        <ele>1944.0</ele>
      </trkpt>
      <trkpt lat="44.699875" lon="6.153298">
        <time>2021-12-28T16:43:58+00:00</time>
        <ele>1944.0</ele>
      </trkpt>
      <trkpt lat="44.699874" lon="6.153298">
        <time>2021-12-28T16:44:21+00:00</time>
        <ele>1944.0</ele>
      </trkpt>
      <trkpt lat="44.699874" lon="6.153297">
        <time>2021-12-28T16:44:35+00:00</time>
        <ele>1944.0</ele>
      </trkpt>
      <trkpt lat="44.699867" lon="6.153294">
        <time>2021-12-28T16:44:41+00:00</time>
        <ele>1944.0</ele>
      </trkpt>
      <trkpt lat="44.69978" lon="6.153247">
        <time>2021-12-28T16:44:44+00:00</time>
        <ele>1942.0</ele>
      </trkpt>
      <trkpt lat="44.699659" lon="6.153171">
        <time>2021-12-28T16:44:47+00:00</time>
        <ele>1940.0</ele>
      </trkpt>
      <trkpt lat="44.69958" lon="6.153126">
        <time>2021-12-28T16:44:49+00:00</time>
        <ele>1940.0</ele>
      </trkpt>
      <trkpt lat="44.699524" lon="6.153085">
        <time>2021-12-28T16:44:51+00:00</time>
        <ele>1939.0</ele>
      </trkpt>
      <trkpt lat="44.699507" lon="6.153074">
        <time>2021-12-28T16:44:53+00:00</time>
        <ele>1939.0</ele>
      </trkpt>
      <trkpt lat="44.69948" lon="6.153056">
        <time>2021-12-28T16:44:58+00:00</time>
        <ele>1938.0</ele>
      </trkpt>
      <trkpt lat="44.699467" lon="6.153048">
        <time>2021-12-28T16:45:00+00:00</time>
        <ele>1938.0</ele>
      </trkpt>
      <trkpt lat="44.699454" lon="6.153036">
        <time>2021-12-28T16:45:02+00:00</time>
        <ele>1938.0</ele>
      </trkpt>
      <trkpt lat="44.699376" lon="6.152996">
        <time>2021-12-28T16:45:07+00:00</time>
        <ele>1937.0</ele>
      </trkpt>
      <trkpt lat="44.69931" lon="6.15296">
        <time>2021-12-28T16:45:09+00:00</time>
        <ele>1936.0</ele>
      </trkpt>
      <trkpt lat="44.699219" lon="6.152913">
        <time>2021-12-28T16:45:11+00:00</time>
        <ele>1934.0</ele>
      </trkpt>
      <trkpt lat="44.699176" lon="6.152899">
        <time>2021-12-28T16:45:12+00:00</time>
        <ele>1933.0</ele>
      </trkpt>
      <trkpt lat="44.699117" lon="6.152881">
        <time>2021-12-28T16:45:13+00:00</time>
        <ele>1932.0</ele>
      </trkpt>
      <trkpt lat="44.699082" lon="6.152865">
        <time>2021-12-28T16:45:14+00:00</time>
        <ele>1932.0</ele>
      </trkpt>
      <trkpt lat="44.699056" lon="6.152847">
        <time>2021-12-28T16:45:15+00:00</time>
        <ele>1931.0</ele>
      </trkpt>
      <trkpt lat="44.699031" lon="6.15283">
        <time>2021-12-28T16:45:16+00:00</time>
        <ele>1930.0</ele>
      </trkpt>
      <trkpt lat="44.699008" lon="6.152822">
        <time>2021-12-28T16:45:19+00:00</time>
        <ele>1930.0</ele>
      </trkpt>
      <trkpt lat="44.699013" lon="6.152817">
        <time>2021-12-28T16:45:29+00:00</time>
        <ele>1930.0</ele>
      </trkpt>
      <trkpt lat="44.699017" lon="6.152818">
        <time>2021-12-28T16:45:33+00:00</time>
        <ele>1930.0</ele>
      </trkpt>
      <trkpt lat="44.699017" lon="6.152818">
        <time>2021-12-28T16:45:34+00:00</time>
        <ele>1930.0</ele>
      </trkpt>
      <trkpt lat="44.699017" lon="6.152818">
        <time>2021-12-28T16:45:39+00:00</time>
        <ele>1930.0</ele>
      </trkpt>
      <trkpt lat="44.699017" lon="6.152813">
        <time>2021-12-28T16:45:42+00:00</time>
        <ele>1930.0</ele>
      </trkpt>
      <trkpt lat="44.699047" lon="6.15273">
        <time>2021-12-28T16:45:44+00:00</time>
        <ele>1929.0</ele>
      </trkpt>
      <trkpt lat="44.699063" lon="6.152616">
        <time>2021-12-28T16:45:46+00:00</time>
        <ele>1927.0</ele>
      </trkpt>
      <trkpt lat="44.69905" lon="6.152539">
        <time>2021-12-28T16:45:47+00:00</time>
        <ele>1925.0</ele>
      </trkpt>
      <trkpt lat="44.699029" lon="6.152472">
        <time>2021-12-28T16:45:48+00:00</time>
        <ele>1924.0</ele>
      </trkpt>
      <trkpt lat="44.699004" lon="6.152418">
        <time>2021-12-28T16:45:49+00:00</time>
        <ele>1922.0</ele>
      </trkpt>
      <trkpt lat="44.69896" lon="6.152352">
        <time>2021-12-28T16:45:50+00:00</time>
        <ele>1920.0</ele>
      </trkpt>
      <trkpt lat="44.698908" lon="6.15229">
        <time>2021-12-28T16:45:51+00:00</time>
        <ele>1918.0</ele>
      </trkpt>
      <trkpt lat="44.698831" lon="6.152225">
        <time>2021-12-28T16:45:52+00:00</time>
        <ele>1916.0</ele>
      </trkpt>
      <trkpt lat="44.698759" lon="6.152173">
        <time>2021-12-28T16:45:53+00:00</time>
        <ele>1914.0</ele>
      </trkpt>
      <trkpt lat="44.698697" lon="6.152133">
        <time>2021-12-28T16:45:54+00:00</time>
        <ele>1912.0</ele>
      </trkpt>
      <trkpt lat="44.698618" lon="6.152082">
        <time>2021-12-28T16:45:55+00:00</time>
        <ele>1910.0</ele>
      </trkpt>
      <trkpt lat="44.698543" lon="6.152027">
        <time>2021-12-28T16:45:56+00:00</time>
        <ele>1908.0</ele>
      </trkpt>
      <trkpt lat="44.698463" lon="6.151947">
        <time>2021-12-28T16:45:57+00:00</time>
        <ele>1905.0</ele>
      </trkpt>
      <trkpt lat="44.69841" lon="6.151859">
        <time>2021-12-28T16:45:58+00:00</time>
        <ele>1902.0</ele>
      </trkpt>
      <trkpt lat="44.698367" lon="6.151781">
        <time>2021-12-28T16:45:59+00:00</time>
        <ele>1900.0</ele>
      </trkpt>
      <trkpt lat="44.698325" lon="6.151679">
        <time>2021-12-28T16:46:00+00:00</time>
        <ele>1898.0</ele>
      </trkpt>
      <trkpt lat="44.698274" lon="6.151563">
        <time>2021-12-28T16:46:01+00:00</time>
        <ele>1895.0</ele>
      </trkpt>
      <trkpt lat="44.698239" lon="6.151471">
        <time>2021-12-28T16:46:02+00:00</time>
        <ele>1893.0</ele>
      </trkpt>
      <trkpt lat="44.69822" lon="6.151396">
        <time>2021-12-28T16:46:03+00:00</time>
        <ele>1892.0</ele>
      </trkpt>
      <trkpt lat="44.698188" lon="6.151322">
        <time>2021-12-28T16:46:04+00:00</time>
        <ele>1890.0</ele>
      </trkpt>
      <trkpt lat="44.698146" lon="6.151243">
        <time>2021-12-28T16:46:05+00:00</time>
        <ele>1888.0</ele>
      </trkpt>
      <trkpt lat="44.698127" lon="6.15118">
        <time>2021-12-28T16:46:06+00:00</time>
        <ele>1887.0</ele>
      </trkpt>
      <trkpt lat="44.698132" lon="6.151125">
        <time>2021-12-28T16:46:07+00:00</time>
        <ele>1887.0</ele>
      </trkpt>
      <trkpt lat="44.698163" lon="6.151032">
        <time>2021-12-28T16:46:09+00:00</time>
        <ele>1887.0</ele>
      </trkpt>
      <trkpt lat="44.698189" lon="6.150921">
        <time>2021-12-28T16:46:11+00:00</time>
        <ele>1887.0</ele>
      </trkpt>
      <trkpt lat="44.698183" lon="6.150881">
        <time>2021-12-28T16:46:12+00:00</time>
        <ele>1887.0</ele>
      </trkpt>
      <trkpt lat="44.698173" lon="6.150865">
        <time>2021-12-28T16:46:14+00:00</time>
        <ele>1886.0</ele>
      </trkpt>
      <trkpt lat="44.698171" lon="6.150864">
        <time>2021-12-28T16:46:15+00:00</time>
        <ele>1886.0</ele>
      </trkpt>
      <trkpt lat="44.69817" lon="6.150875">
        <time>2021-12-28T16:46:20+00:00</time>
        <ele>1886.0</ele>
      </trkpt>
      <trkpt lat="44.698182" lon="6.150868">
        <time>2021-12-28T16:46:29+00:00</time>
        <ele>1887.0</ele>
      </trkpt>
      <trkpt lat="44.698182" lon="6.150868">
        <time>2021-12-28T16:46:34+00:00</time>
        <ele>1887.0</ele>
      </trkpt>
      <trkpt lat="44.698182" lon="6.150868">
        <time>2021-12-28T16:46:37+00:00</time>
        <ele>1887.0</ele>
      </trkpt>
      <trkpt lat="44.698182" lon="6.150868">
        <time>2021-12-28T16:46:42+00:00</time>
        <ele>1887.0</ele>
      </trkpt>
      <trkpt lat="44.698182" lon="6.150869">
        <time>2021-12-28T16:46:45+00:00</time>
        <ele>1887.0</ele>
      </trkpt>
      <trkpt lat="44.698184" lon="6.150869">
        <time>2021-12-28T16:46:52+00:00</time>
        <ele>1887.0</ele>
      </trkpt>
      <trkpt lat="44.698188" lon="6.150878">
        <time>2021-12-28T16:47:05+00:00</time>
        <ele>1887.0</ele>
      </trkpt>
      <trkpt lat="44.698191" lon="6.150878">
        <time>2021-12-28T16:47:18+00:00</time>
        <ele>1887.0</ele>
      </trkpt>
      <trkpt lat="44.698188" lon="6.15087">
        <time>2021-12-28T16:47:22+00:00</time>
        <ele>1887.0</ele>
      </trkpt>
      <trkpt lat="44.698188" lon="6.150799">
        <time>2021-12-28T16:47:24+00:00</time>
        <ele>1886.0</ele>
      </trkpt>
      <trkpt lat="44.698175" lon="6.1507">
        <time>2021-12-28T16:47:26+00:00</time>
        <ele>1886.0</ele>
      </trkpt>
      <trkpt lat="44.698151" lon="6.150642">
        <time>2021-12-28T16:47:27+00:00</time>
        <ele>1885.0</ele>
      </trkpt>
      <trkpt lat="44.698119" lon="6.150575">
        <time>2021-12-28T16:47:28+00:00</time>
        <ele>1883.0</ele>
      </trkpt>
      <trkpt lat="44.698094" lon="6.150505">
        <time>2021-12-28T16:47:29+00:00</time>
        <ele>1882.0</ele>
      </trkpt>
      <trkpt lat="44.698073" lon="6.150427">
        <time>2021-12-28T16:47:30+00:00</time>
        <ele>1881.0</ele>
      </trkpt>
      <trkpt lat="44.698051" lon="6.150349">
        <time>2021-12-28T16:47:31+00:00</time>
        <ele>1880.0</ele>
      </trkpt>
      <trkpt lat="44.698036" lon="6.150285">
        <time>2021-12-28T16:47:32+00:00</time>
        <ele>1878.0</ele>
      </trkpt>
      <trkpt lat="44.698013" lon="6.150205">
        <time>2021-12-28T16:47:33+00:00</time>
        <ele>1877.0</ele>
      </trkpt>
      <trkpt lat="44.697987" lon="6.150127">
        <time>2021-12-28T16:47:34+00:00</time>
        <ele>1875.0</ele>
      </trkpt>
      <trkpt lat="44.697955" lon="6.150055">
        <time>2021-12-28T16:47:35+00:00</time>
        <ele>1874.0</ele>
      </trkpt>
      <trkpt lat="44.697916" lon="6.149986">
        <time>2021-12-28T16:47:36+00:00</time>
        <ele>1872.0</ele>
      </trkpt>
      <trkpt lat="44.69787" lon="6.149932">
        <time>2021-12-28T16:47:37+00:00</time>
        <ele>1870.0</ele>
      </trkpt>
      <trkpt lat="44.697825" lon="6.149883">
        <time>2021-12-28T16:47:38+00:00</time>
        <ele>1867.0</ele>
      </trkpt>
      <trkpt lat="44.697777" lon="6.149842">
        <time>2021-12-28T16:47:39+00:00</time>
        <ele>1865.0</ele>
      </trkpt>
      <trkpt lat="44.697712" lon="6.149793">
        <time>2021-12-28T16:47:40+00:00</time>
        <ele>1862.0</ele>
      </trkpt>
      <trkpt lat="44.69766" lon="6.149786">
        <time>2021-12-28T16:47:41+00:00</time>
        <ele>1860.0</ele>
      </trkpt>
      <trkpt lat="44.697576" lon="6.149772">
        <time>2021-12-28T16:47:42+00:00</time>
        <ele>1857.0</ele>
      </trkpt>
      <trkpt lat="44.697503" lon="6.149763">
        <time>2021-12-28T16:47:43+00:00</time>
        <ele>1855.0</ele>
      </trkpt>
      <trkpt lat="44.697426" lon="6.149756">
        <time>2021-12-28T16:47:44+00:00</time>
        <ele>1853.0</ele>
      </trkpt>
      <trkpt lat="44.697349" lon="6.14975">
        <time>2021-12-28T16:47:45+00:00</time>
        <ele>1850.0</ele>
      </trkpt>
      <trkpt lat="44.697269" lon="6.149732">
        <time>2021-12-28T16:47:46+00:00</time>
        <ele>1847.0</ele>
      </trkpt>
      <trkpt lat="44.697182" lon="6.149725">
        <time>2021-12-28T16:47:47+00:00</time>
        <ele>1844.0</ele>
      </trkpt>
      <trkpt lat="44.697093" lon="6.149726">
        <time>2021-12-28T16:47:48+00:00</time>
        <ele>1840.0</ele>
      </trkpt>
      <trkpt lat="44.697012" lon="6.149751">
        <time>2021-12-28T16:47:49+00:00</time>
        <ele>1837.0</ele>
      </trkpt>
      <trkpt lat="44.696951" lon="6.149786">
        <time>2021-12-28T16:47:50+00:00</time>
        <ele>1835.0</ele>
      </trkpt>
      <trkpt lat="44.696877" lon="6.149828">
        <time>2021-12-28T16:47:51+00:00</time>
        <ele>1833.0</ele>
      </trkpt>
      <trkpt lat="44.696811" lon="6.149885">
        <time>2021-12-28T16:47:52+00:00</time>
        <ele>1831.0</ele>
      </trkpt>
      <trkpt lat="44.696757" lon="6.149953">
        <time>2021-12-28T16:47:53+00:00</time>
        <ele>1830.0</ele>
      </trkpt>
      <trkpt lat="44.696711" lon="6.150026">
        <time>2021-12-28T16:47:54+00:00</time>
        <ele>1828.0</ele>
      </trkpt>
      <trkpt lat="44.696676" lon="6.1501">
        <time>2021-12-28T16:47:55+00:00</time>
        <ele>1827.0</ele>
      </trkpt>
      <trkpt lat="44.696629" lon="6.150219">
        <time>2021-12-28T16:47:57+00:00</time>
        <ele>1826.0</ele>
      </trkpt>
      <trkpt lat="44.696607" lon="6.150335">
        <time>2021-12-28T16:47:59+00:00</time>
        <ele>1826.0</ele>
      </trkpt>
      <trkpt lat="44.696565" lon="6.150474">
        <time>2021-12-28T16:48:01+00:00</time>
        <ele>1826.0</ele>
      </trkpt>
      <trkpt lat="44.696539" lon="6.150559">
        <time>2021-12-28T16:48:02+00:00</time>
        <ele>1826.0</ele>
      </trkpt>
      <trkpt lat="44.696469" lon="6.15077">
        <time>2021-12-28T16:48:04+00:00</time>
        <ele>1824.0</ele>
      </trkpt>
      <trkpt lat="44.69645" lon="6.15081">
        <time>2021-12-28T16:48:05+00:00</time>
        <ele>1824.0</ele>
      </trkpt>
      <trkpt lat="44.696401" lon="6.150906">
        <time>2021-12-28T16:48:06+00:00</time>
        <ele>1823.0</ele>
      </trkpt>
      <trkpt lat="44.696366" lon="6.150994">
        <time>2021-12-28T16:48:07+00:00</time>
        <ele>1822.0</ele>
      </trkpt>
      <trkpt lat="44.696324" lon="6.151076">
        <time>2021-12-28T16:48:08+00:00</time>
        <ele>1821.0</ele>
      </trkpt>
      <trkpt lat="44.696285" lon="6.151155">
        <time>2021-12-28T16:48:09+00:00</time>
        <ele>1820.0</ele>
      </trkpt>
      <trkpt lat="44.696254" lon="6.151207">
        <time>2021-12-28T16:48:10+00:00</time>
        <ele>1819.0</ele>
      </trkpt>
      <trkpt lat="44.69619" lon="6.151344">
        <time>2021-12-28T16:48:12+00:00</time>
        <ele>1817.0</ele>
      </trkpt>
      <trkpt lat="44.696164" lon="6.151405">
        <time>2021-12-28T16:48:13+00:00</time>
        <ele>1816.0</ele>
      </trkpt>
      <trkpt lat="44.69614" lon="6.151456">
        <time>2021-12-28T16:48:14+00:00</time>
        <ele>1815.0</ele>
      </trkpt>
      <trkpt lat="44.696076" lon="6.151582">
        <time>2021-12-28T16:48:16+00:00</time>
        <ele>1813.0</ele>
      </trkpt>
      <trkpt lat="44.696014" lon="6.151701">
        <time>2021-12-28T16:48:18+00:00</time>
        <ele>1811.0</ele>
      </trkpt>
      <trkpt lat="44.695968" lon="6.151811">
        <time>2021-12-28T16:48:20+00:00</time>
        <ele>1810.0</ele>
      </trkpt>
      <trkpt lat="44.695925" lon="6.151923">
        <time>2021-12-28T16:48:22+00:00</time>
        <ele>1808.0</ele>
      </trkpt>
      <trkpt lat="44.695898" lon="6.151997">
        <time>2021-12-28T16:48:23+00:00</time>
        <ele>1808.0</ele>
      </trkpt>
      <trkpt lat="44.69586" lon="6.15208">
        <time>2021-12-28T16:48:24+00:00</time>
        <ele>1807.0</ele>
      </trkpt>
      <trkpt lat="44.695813" lon="6.152187">
        <time>2021-12-28T16:48:25+00:00</time>
        <ele>1806.0</ele>
      </trkpt>
      <trkpt lat="44.695772" lon="6.152274">
        <time>2021-12-28T16:48:26+00:00</time>
        <ele>1805.0</ele>
      </trkpt>
      <trkpt lat="44.695729" lon="6.152357">
        <time>2021-12-28T16:48:27+00:00</time>
        <ele>1804.0</ele>
      </trkpt>
      <trkpt lat="44.69569" lon="6.152442">
        <time>2021-12-28T16:48:28+00:00</time>
        <ele>1802.0</ele>
      </trkpt>
      <trkpt lat="44.695655" lon="6.15253">
        <time>2021-12-28T16:48:29+00:00</time>
        <ele>1801.0</ele>
      </trkpt>
      <trkpt lat="44.695621" lon="6.15262">
        <time>2021-12-28T16:48:30+00:00</time>
        <ele>1800.0</ele>
      </trkpt>
      <trkpt lat="44.695564" lon="6.152783">
        <time>2021-12-28T16:48:32+00:00</time>
        <ele>1799.0</ele>
      </trkpt>
      <trkpt lat="44.695533" lon="6.152874">
        <time>2021-12-28T16:48:33+00:00</time>
        <ele>1799.0</ele>
      </trkpt>
      <trkpt lat="44.695493" lon="6.152979">
        <time>2021-12-28T16:48:34+00:00</time>
        <ele>1798.0</ele>
      </trkpt>
      <trkpt lat="44.695354" lon="6.153316">
        <time>2021-12-28T16:48:38+00:00</time>
        <ele>1796.0</ele>
      </trkpt>
      <trkpt lat="44.695322" lon="6.153393">
        <time>2021-12-28T16:48:39+00:00</time>
        <ele>1795.0</ele>
      </trkpt>
      <trkpt lat="44.695295" lon="6.153471">
        <time>2021-12-28T16:48:40+00:00</time>
        <ele>1796.0</ele>
      </trkpt>
      <trkpt lat="44.695197" lon="6.15365">
        <time>2021-12-28T16:48:43+00:00</time>
        <ele>1796.0</ele>
      </trkpt>
      <trkpt lat="44.695139" lon="6.153764">
        <time>2021-12-28T16:48:45+00:00</time>
        <ele>1797.0</ele>
      </trkpt>
      <trkpt lat="44.695073" lon="6.153872">
        <time>2021-12-28T16:48:47+00:00</time>
        <ele>1797.0</ele>
      </trkpt>
      <trkpt lat="44.694994" lon="6.153951">
        <time>2021-12-28T16:48:49+00:00</time>
        <ele>1796.0</ele>
      </trkpt>
      <trkpt lat="44.694952" lon="6.153986">
        <time>2021-12-28T16:48:50+00:00</time>
        <ele>1795.0</ele>
      </trkpt>
      <trkpt lat="44.694827" lon="6.154072">
        <time>2021-12-28T16:48:53+00:00</time>
        <ele>1791.0</ele>
      </trkpt>
      <trkpt lat="44.694768" lon="6.15411">
        <time>2021-12-28T16:48:55+00:00</time>
        <ele>1790.0</ele>
      </trkpt>
      <trkpt lat="44.694634" lon="6.154173">
        <time>2021-12-28T16:48:59+00:00</time>
        <ele>1787.0</ele>
      </trkpt>
      <trkpt lat="44.694561" lon="6.154198">
        <time>2021-12-28T16:49:01+00:00</time>
        <ele>1785.0</ele>
      </trkpt>
      <trkpt lat="44.694523" lon="6.154214">
        <time>2021-12-28T16:49:02+00:00</time>
        <ele>1785.0</ele>
      </trkpt>
      <trkpt lat="44.694444" lon="6.154255">
        <time>2021-12-28T16:49:04+00:00</time>
        <ele>1783.0</ele>
      </trkpt>
      <trkpt lat="44.69432" lon="6.154326">
        <time>2021-12-28T16:49:07+00:00</time>
        <ele>1780.0</ele>
      </trkpt>
      <trkpt lat="44.694249" lon="6.154388">
        <time>2021-12-28T16:49:09+00:00</time>
        <ele>1779.0</ele>
      </trkpt>
      <trkpt lat="44.694131" lon="6.154516">
        <time>2021-12-28T16:49:12+00:00</time>
        <ele>1778.0</ele>
      </trkpt>
      <trkpt lat="44.694051" lon="6.154591">
        <time>2021-12-28T16:49:14+00:00</time>
        <ele>1776.0</ele>
      </trkpt>
      <trkpt lat="44.693923" lon="6.154734">
        <time>2021-12-28T16:49:17+00:00</time>
        <ele>1773.0</ele>
      </trkpt>
      <trkpt lat="44.693843" lon="6.154821">
        <time>2021-12-28T16:49:19+00:00</time>
        <ele>1769.0</ele>
      </trkpt>
      <trkpt lat="44.69379" lon="6.154863">
        <time>2021-12-28T16:49:20+00:00</time>
        <ele>1767.0</ele>
      </trkpt>
      <trkpt lat="44.693747" lon="6.154896">
        <time>2021-12-28T16:49:21+00:00</time>
        <ele>1765.0</ele>
      </trkpt>
      <trkpt lat="44.693705" lon="6.154934">
        <time>2021-12-28T16:49:22+00:00</time>
        <ele>1763.0</ele>
      </trkpt>
      <trkpt lat="44.693641" lon="6.155023">
        <time>2021-12-28T16:49:24+00:00</time>
        <ele>1761.0</ele>
      </trkpt>
      <trkpt lat="44.693607" lon="6.155085">
        <time>2021-12-28T16:49:25+00:00</time>
        <ele>1759.0</ele>
      </trkpt>
      <trkpt lat="44.693573" lon="6.155159">
        <time>2021-12-28T16:49:26+00:00</time>
        <ele>1757.0</ele>
      </trkpt>
      <trkpt lat="44.693541" lon="6.155247">
        <time>2021-12-28T16:49:27+00:00</time>
        <ele>1755.0</ele>
      </trkpt>
      <trkpt lat="44.693516" lon="6.155342">
        <time>2021-12-28T16:49:28+00:00</time>
        <ele>1753.0</ele>
      </trkpt>
      <trkpt lat="44.693485" lon="6.155452">
        <time>2021-12-28T16:49:29+00:00</time>
        <ele>1751.0</ele>
      </trkpt>
      <trkpt lat="44.693472" lon="6.155528">
        <time>2021-12-28T16:49:30+00:00</time>
        <ele>1750.0</ele>
      </trkpt>
      <trkpt lat="44.693449" lon="6.155634">
        <time>2021-12-28T16:49:31+00:00</time>
        <ele>1748.0</ele>
      </trkpt>
      <trkpt lat="44.693437" lon="6.155704">
        <time>2021-12-28T16:49:32+00:00</time>
        <ele>1747.0</ele>
      </trkpt>
      <trkpt lat="44.69342" lon="6.155787">
        <time>2021-12-28T16:49:33+00:00</time>
        <ele>1745.0</ele>
      </trkpt>
      <trkpt lat="44.693404" lon="6.155871">
        <time>2021-12-28T16:49:34+00:00</time>
        <ele>1744.0</ele>
      </trkpt>
      <trkpt lat="44.69339" lon="6.15595">
        <time>2021-12-28T16:49:35+00:00</time>
        <ele>1742.0</ele>
      </trkpt>
      <trkpt lat="44.693377" lon="6.156033">
        <time>2021-12-28T16:49:36+00:00</time>
        <ele>1741.0</ele>
      </trkpt>
      <trkpt lat="44.693357" lon="6.156106">
        <time>2021-12-28T16:49:37+00:00</time>
        <ele>1739.0</ele>
      </trkpt>
      <trkpt lat="44.69334" lon="6.156163">
        <time>2021-12-28T16:49:38+00:00</time>
        <ele>1738.0</ele>
      </trkpt>
      <trkpt lat="44.693344" lon="6.156195">
        <time>2021-12-28T16:49:40+00:00</time>
        <ele>1738.0</ele>
      </trkpt>
      <trkpt lat="44.693345" lon="6.156197">
        <time>2021-12-28T16:49:41+00:00</time>
        <ele>1738.0</ele>
      </trkpt>
      <trkpt lat="44.693347" lon="6.156182">
        <time>2021-12-28T16:49:43+00:00</time>
        <ele>1738.0</ele>
      </trkpt>
      <trkpt lat="44.693354" lon="6.156171">
        <time>2021-12-28T16:49:49+00:00</time>
        <ele>1738.0</ele>
      </trkpt>
      <trkpt lat="44.693362" lon="6.156162">
        <time>2021-12-28T16:49:53+00:00</time>
        <ele>1739.0</ele>
      </trkpt>
      <trkpt lat="44.693369" lon="6.156156">
        <time>2021-12-28T16:50:11+00:00</time>
        <ele>1739.0</ele>
      </trkpt>
      <trkpt lat="44.693379" lon="6.156158">
        <time>2021-12-28T16:50:18+00:00</time>
        <ele>1739.0</ele>
      </trkpt>
      <trkpt lat="44.693347" lon="6.156239">
        <time>2021-12-28T16:50:20+00:00</time>
        <ele>1737.0</ele>
      </trkpt>
      <trkpt lat="44.693283" lon="6.156367">
        <time>2021-12-28T16:50:22+00:00</time>
        <ele>1734.0</ele>
      </trkpt>
      <trkpt lat="44.693253" lon="6.156439">
        <time>2021-12-28T16:50:23+00:00</time>
        <ele>1733.0</ele>
      </trkpt>
      <trkpt lat="44.693218" lon="6.156508">
        <time>2021-12-28T16:50:24+00:00</time>
        <ele>1731.0</ele>
      </trkpt>
      <trkpt lat="44.693175" lon="6.156578">
        <time>2021-12-28T16:50:25+00:00</time>
        <ele>1729.0</ele>
      </trkpt>
      <trkpt lat="44.693135" lon="6.156652">
        <time>2021-12-28T16:50:26+00:00</time>
        <ele>1727.0</ele>
      </trkpt>
      <trkpt lat="44.693102" lon="6.156719">
        <time>2021-12-28T16:50:27+00:00</time>
        <ele>1726.0</ele>
      </trkpt>
      <trkpt lat="44.69307" lon="6.156775">
        <time>2021-12-28T16:50:28+00:00</time>
        <ele>1724.0</ele>
      </trkpt>
      <trkpt lat="44.69304" lon="6.156831">
        <time>2021-12-28T16:50:29+00:00</time>
        <ele>1723.0</ele>
      </trkpt>
      <trkpt lat="44.693009" lon="6.156886">
        <time>2021-12-28T16:50:30+00:00</time>
        <ele>1722.0</ele>
      </trkpt>
      <trkpt lat="44.692973" lon="6.156936">
        <time>2021-12-28T16:50:31+00:00</time>
        <ele>1720.0</ele>
      </trkpt>
      <trkpt lat="44.692935" lon="6.156979">
        <time>2021-12-28T16:50:32+00:00</time>
        <ele>1719.0</ele>
      </trkpt>
      <trkpt lat="44.692897" lon="6.15703">
        <time>2021-12-28T16:50:33+00:00</time>
        <ele>1717.0</ele>
      </trkpt>
      <trkpt lat="44.692855" lon="6.157075">
        <time>2021-12-28T16:50:34+00:00</time>
        <ele>1716.0</ele>
      </trkpt>
      <trkpt lat="44.692796" lon="6.157119">
        <time>2021-12-28T16:50:35+00:00</time>
        <ele>1714.0</ele>
      </trkpt>
      <trkpt lat="44.692707" lon="6.157165">
        <time>2021-12-28T16:50:36+00:00</time>
        <ele>1712.0</ele>
      </trkpt>
      <trkpt lat="44.692629" lon="6.157222">
        <time>2021-12-28T16:50:37+00:00</time>
        <ele>1710.0</ele>
      </trkpt>
      <trkpt lat="44.692526" lon="6.157389">
        <time>2021-12-28T16:50:38+00:00</time>
        <ele>1707.0</ele>
      </trkpt>
      <trkpt lat="44.692484" lon="6.157493">
        <time>2021-12-28T16:50:40+00:00</time>
        <ele>1706.0</ele>
      </trkpt>
      <trkpt lat="44.692452" lon="6.157599">
        <time>2021-12-28T16:50:41+00:00</time>
        <ele>1705.0</ele>
      </trkpt>
      <trkpt lat="44.692423" lon="6.157724">
        <time>2021-12-28T16:50:42+00:00</time>
        <ele>1704.0</ele>
      </trkpt>
      <trkpt lat="44.692427" lon="6.157889">
        <time>2021-12-28T16:50:44+00:00</time>
        <ele>1703.0</ele>
      </trkpt>
      <trkpt lat="44.692446" lon="6.15798">
        <time>2021-12-28T16:50:45+00:00</time>
        <ele>1702.0</ele>
      </trkpt>
      <trkpt lat="44.692472" lon="6.15812">
        <time>2021-12-28T16:50:47+00:00</time>
        <ele>1699.0</ele>
      </trkpt>
      <trkpt lat="44.692498" lon="6.158243">
        <time>2021-12-28T16:50:49+00:00</time>
        <ele>1697.0</ele>
      </trkpt>
      <trkpt lat="44.692531" lon="6.158314">
        <time>2021-12-28T16:50:50+00:00</time>
        <ele>1696.0</ele>
      </trkpt>
      <trkpt lat="44.692563" lon="6.158354">
        <time>2021-12-28T16:50:51+00:00</time>
        <ele>1695.0</ele>
      </trkpt>
      <trkpt lat="44.692661" lon="6.158458">
        <time>2021-12-28T16:50:53+00:00</time>
        <ele>1693.0</ele>
      </trkpt>
      <trkpt lat="44.692704" lon="6.158519">
        <time>2021-12-28T16:50:54+00:00</time>
        <ele>1692.0</ele>
      </trkpt>
      <trkpt lat="44.692753" lon="6.158596">
        <time>2021-12-28T16:50:55+00:00</time>
        <ele>1689.0</ele>
      </trkpt>
      <trkpt lat="44.692793" lon="6.158656">
        <time>2021-12-28T16:50:56+00:00</time>
        <ele>1687.0</ele>
      </trkpt>
      <trkpt lat="44.692831" lon="6.158711">
        <time>2021-12-28T16:50:57+00:00</time>
        <ele>1686.0</ele>
      </trkpt>
      <trkpt lat="44.692863" lon="6.158757">
        <time>2021-12-28T16:50:58+00:00</time>
        <ele>1684.0</ele>
      </trkpt>
      <trkpt lat="44.692913" lon="6.158826">
        <time>2021-12-28T16:50:59+00:00</time>
        <ele>1682.0</ele>
      </trkpt>
      <trkpt lat="44.692945" lon="6.158886">
        <time>2021-12-28T16:51:00+00:00</time>
        <ele>1679.0</ele>
      </trkpt>
      <trkpt lat="44.692972" lon="6.15894">
        <time>2021-12-28T16:51:01+00:00</time>
        <ele>1677.0</ele>
      </trkpt>
      <trkpt lat="44.693008" lon="6.159001">
        <time>2021-12-28T16:51:02+00:00</time>
        <ele>1674.0</ele>
      </trkpt>
      <trkpt lat="44.693043" lon="6.15907">
        <time>2021-12-28T16:51:03+00:00</time>
        <ele>1672.0</ele>
      </trkpt>
      <trkpt lat="44.693081" lon="6.159157">
        <time>2021-12-28T16:51:04+00:00</time>
        <ele>1669.0</ele>
      </trkpt>
      <trkpt lat="44.693117" lon="6.159231">
        <time>2021-12-28T16:51:05+00:00</time>
        <ele>1667.0</ele>
      </trkpt>
      <trkpt lat="44.693156" lon="6.159304">
        <time>2021-12-28T16:51:06+00:00</time>
        <ele>1665.0</ele>
      </trkpt>
      <trkpt lat="44.693193" lon="6.15937">
        <time>2021-12-28T16:51:07+00:00</time>
        <ele>1664.0</ele>
      </trkpt>
      <trkpt lat="44.693224" lon="6.159426">
        <time>2021-12-28T16:51:08+00:00</time>
        <ele>1664.0</ele>
      </trkpt>
      <trkpt lat="44.693266" lon="6.159488">
        <time>2021-12-28T16:51:09+00:00</time>
        <ele>1663.0</ele>
      </trkpt>
      <trkpt lat="44.693316" lon="6.159527">
        <time>2021-12-28T16:51:10+00:00</time>
        <ele>1663.0</ele>
      </trkpt>
      <trkpt lat="44.693366" lon="6.159578">
        <time>2021-12-28T16:51:11+00:00</time>
        <ele>1663.0</ele>
      </trkpt>
      <trkpt lat="44.693385" lon="6.159609">
        <time>2021-12-28T16:51:12+00:00</time>
        <ele>1663.0</ele>
      </trkpt>
      <trkpt lat="44.693393" lon="6.159635">
        <time>2021-12-28T16:51:13+00:00</time>
        <ele>1663.0</ele>
      </trkpt>
      <trkpt lat="44.693385" lon="6.159645">
        <time>2021-12-28T16:51:14+00:00</time>
        <ele>1663.0</ele>
      </trkpt>
      <trkpt lat="44.693373" lon="6.159651">
        <time>2021-12-28T16:51:16+00:00</time>
        <ele>1663.0</ele>
      </trkpt>
      <trkpt lat="44.693344" lon="6.159642">
        <time>2021-12-28T16:51:24+00:00</time>
        <ele>1662.0</ele>
      </trkpt>
      <trkpt lat="44.693347" lon="6.159639">
        <time>2021-12-28T16:51:25+00:00</time>
        <ele>1663.0</ele>
      </trkpt>
      <trkpt lat="44.693352" lon="6.159643">
        <time>2021-12-28T16:51:36+00:00</time>
        <ele>1663.0</ele>
      </trkpt>
      <trkpt lat="44.693352" lon="6.159643">
        <time>2021-12-28T16:51:47+00:00</time>
        <ele>1663.0</ele>
      </trkpt>
      <trkpt lat="44.693351" lon="6.159643">
        <time>2021-12-28T16:51:51+00:00</time>
        <ele>1663.0</ele>
      </trkpt>
      <trkpt lat="44.693351" lon="6.159643">
        <time>2021-12-28T16:51:53+00:00</time>
        <ele>1663.0</ele>
      </trkpt>
      <trkpt lat="44.69335" lon="6.159644">
        <time>2021-12-28T16:51:55+00:00</time>
        <ele>1663.0</ele>
      </trkpt>
      <trkpt lat="44.69335" lon="6.159644">
        <time>2021-12-28T16:51:57+00:00</time>
        <ele>1663.0</ele>
      </trkpt>
      <trkpt lat="44.69335" lon="6.159644">
        <time>2021-12-28T16:52:00+00:00</time>
        <ele>1663.0</ele>
      </trkpt>
      <trkpt lat="44.693339" lon="6.159641">
        <time>2021-12-28T16:52:05+00:00</time>
        <ele>1662.0</ele>
      </trkpt>
      <trkpt lat="44.693324" lon="6.159633">
        <time>2021-12-28T16:52:21+00:00</time>
        <ele>1662.0</ele>
      </trkpt>
      <trkpt lat="44.693315" lon="6.159623">
        <time>2021-12-28T16:52:26+00:00</time>
        <ele>1662.0</ele>
      </trkpt>
      <trkpt lat="44.693318" lon="6.15962">
        <time>2021-12-28T16:52:45+00:00</time>
        <ele>1662.0</ele>
      </trkpt>
      <trkpt lat="44.693322" lon="6.159624">
        <time>2021-12-28T16:52:48+00:00</time>
        <ele>1662.0</ele>
      </trkpt>
      <trkpt lat="44.693331" lon="6.159626">
        <time>2021-12-28T16:52:52+00:00</time>
        <ele>1662.0</ele>
      </trkpt>
      <trkpt lat="44.693336" lon="6.15963">
        <time>2021-12-28T16:52:56+00:00</time>
        <ele>1662.0</ele>
      </trkpt>
      <trkpt lat="44.693382" lon="6.159676">
        <time>2021-12-28T16:52:58+00:00</time>
        <ele>1663.0</ele>
      </trkpt>
      <trkpt lat="44.693416" lon="6.159705">
        <time>2021-12-28T16:53:00+00:00</time>
        <ele>1663.0</ele>
      </trkpt>
      <trkpt lat="44.693439" lon="6.159719">
        <time>2021-12-28T16:53:02+00:00</time>
        <ele>1664.0</ele>
      </trkpt>
      <trkpt lat="44.693448" lon="6.159721">
        <time>2021-12-28T16:53:03+00:00</time>
        <ele>1664.0</ele>
      </trkpt>
      <trkpt lat="44.693456" lon="6.159732">
        <time>2021-12-28T16:53:04+00:00</time>
        <ele>1664.0</ele>
      </trkpt>
      <trkpt lat="44.693479" lon="6.15976">
        <time>2021-12-28T16:53:08+00:00</time>
        <ele>1664.0</ele>
      </trkpt>
      <trkpt lat="44.693474" lon="6.159804">
        <time>2021-12-28T16:53:11+00:00</time>
        <ele>1664.0</ele>
      </trkpt>
      <trkpt lat="44.693448" lon="6.159842">
        <time>2021-12-28T16:53:12+00:00</time>
        <ele>1663.0</ele>
      </trkpt>
      <trkpt lat="44.693402" lon="6.159881">
        <time>2021-12-28T16:53:13+00:00</time>
        <ele>1663.0</ele>
      </trkpt>
      <trkpt lat="44.693315" lon="6.159918">
        <time>2021-12-28T16:53:14+00:00</time>
        <ele>1662.0</ele>
      </trkpt>
      <trkpt lat="44.693186" lon="6.160001">
        <time>2021-12-28T16:53:15+00:00</time>
        <ele>1660.0</ele>
      </trkpt>
      <trkpt lat="44.693083" lon="6.160065">
        <time>2021-12-28T16:53:18+00:00</time>
        <ele>1657.0</ele>
      </trkpt>
      <trkpt lat="44.692982" lon="6.160135">
        <time>2021-12-28T16:53:20+00:00</time>
        <ele>1655.0</ele>
      </trkpt>
      <trkpt lat="44.69286" lon="6.160201">
        <time>2021-12-28T16:53:23+00:00</time>
        <ele>1654.0</ele>
      </trkpt>
      <trkpt lat="44.692706" lon="6.160287">
        <time>2021-12-28T16:53:27+00:00</time>
        <ele>1652.0</ele>
      </trkpt>
      <trkpt lat="44.692672" lon="6.160312">
        <time>2021-12-28T16:53:28+00:00</time>
        <ele>1651.0</ele>
      </trkpt>
      <trkpt lat="44.692639" lon="6.16034">
        <time>2021-12-28T16:53:29+00:00</time>
        <ele>1651.0</ele>
      </trkpt>
      <trkpt lat="44.692574" lon="6.160407">
        <time>2021-12-28T16:53:31+00:00</time>
        <ele>1652.0</ele>
      </trkpt>
      <trkpt lat="44.692512" lon="6.160476">
        <time>2021-12-28T16:53:33+00:00</time>
        <ele>1654.0</ele>
      </trkpt>
      <trkpt lat="44.692479" lon="6.16051">
        <time>2021-12-28T16:53:34+00:00</time>
        <ele>1655.0</ele>
      </trkpt>
      <trkpt lat="44.692349" lon="6.160605">
        <time>2021-12-28T16:53:38+00:00</time>
        <ele>1656.0</ele>
      </trkpt>
      <trkpt lat="44.692287" lon="6.160634">
        <time>2021-12-28T16:53:40+00:00</time>
        <ele>1655.0</ele>
      </trkpt>
      <trkpt lat="44.692192" lon="6.160655">
        <time>2021-12-28T16:53:43+00:00</time>
        <ele>1652.0</ele>
      </trkpt>
      <trkpt lat="44.692096" lon="6.16068">
        <time>2021-12-28T16:53:46+00:00</time>
        <ele>1650.0</ele>
      </trkpt>
      <trkpt lat="44.691961" lon="6.16075">
        <time>2021-12-28T16:53:51+00:00</time>
        <ele>1649.0</ele>
      </trkpt>
      <trkpt lat="44.691911" lon="6.160779">
        <time>2021-12-28T16:53:53+00:00</time>
        <ele>1649.0</ele>
      </trkpt>
      <trkpt lat="44.69178" lon="6.160881">
        <time>2021-12-28T16:53:58+00:00</time>
        <ele>1648.0</ele>
      </trkpt>
      <trkpt lat="44.69173" lon="6.160924">
        <time>2021-12-28T16:54:00+00:00</time>
        <ele>1648.0</ele>
      </trkpt>
      <trkpt lat="44.691644" lon="6.161">
        <time>2021-12-28T16:54:03+00:00</time>
        <ele>1646.0</ele>
      </trkpt>
      <trkpt lat="44.691537" lon="6.161077">
        <time>2021-12-28T16:54:06+00:00</time>
        <ele>1643.0</ele>
      </trkpt>
      <trkpt lat="44.691502" lon="6.161107">
        <time>2021-12-28T16:54:07+00:00</time>
        <ele>1642.0</ele>
      </trkpt>
      <trkpt lat="44.69141" lon="6.161211">
        <time>2021-12-28T16:54:10+00:00</time>
        <ele>1640.0</ele>
      </trkpt>
      <trkpt lat="44.691384" lon="6.161258">
        <time>2021-12-28T16:54:11+00:00</time>
        <ele>1640.0</ele>
      </trkpt>
      <trkpt lat="44.691355" lon="6.161309">
        <time>2021-12-28T16:54:12+00:00</time>
        <ele>1640.0</ele>
      </trkpt>
      <trkpt lat="44.691322" lon="6.161374">
        <time>2021-12-28T16:54:13+00:00</time>
        <ele>1640.0</ele>
      </trkpt>
      <trkpt lat="44.691272" lon="6.16148">
        <time>2021-12-28T16:54:15+00:00</time>
        <ele>1640.0</ele>
      </trkpt>
      <trkpt lat="44.691201" lon="6.161615">
        <time>2021-12-28T16:54:17+00:00</time>
        <ele>1638.0</ele>
      </trkpt>
      <trkpt lat="44.691145" lon="6.161695">
        <time>2021-12-28T16:54:18+00:00</time>
        <ele>1637.0</ele>
      </trkpt>
      <trkpt lat="44.691099" lon="6.16176">
        <time>2021-12-28T16:54:19+00:00</time>
        <ele>1635.0</ele>
      </trkpt>
      <trkpt lat="44.691019" lon="6.161876">
        <time>2021-12-28T16:54:21+00:00</time>
        <ele>1632.0</ele>
      </trkpt>
      <trkpt lat="44.690969" lon="6.161964">
        <time>2021-12-28T16:54:22+00:00</time>
        <ele>1630.0</ele>
      </trkpt>
      <trkpt lat="44.69094" lon="6.162034">
        <time>2021-12-28T16:54:23+00:00</time>
        <ele>1629.0</ele>
      </trkpt>
      <trkpt lat="44.690912" lon="6.162124">
        <time>2021-12-28T16:54:24+00:00</time>
        <ele>1628.0</ele>
      </trkpt>
      <trkpt lat="44.69089" lon="6.162225">
        <time>2021-12-28T16:54:25+00:00</time>
        <ele>1627.0</ele>
      </trkpt>
      <trkpt lat="44.690871" lon="6.162329">
        <time>2021-12-28T16:54:26+00:00</time>
        <ele>1626.0</ele>
      </trkpt>
      <trkpt lat="44.690851" lon="6.16244">
        <time>2021-12-28T16:54:27+00:00</time>
        <ele>1624.0</ele>
      </trkpt>
      <trkpt lat="44.690838" lon="6.16256">
        <time>2021-12-28T16:54:28+00:00</time>
        <ele>1623.0</ele>
      </trkpt>
      <trkpt lat="44.690826" lon="6.162682">
        <time>2021-12-28T16:54:29+00:00</time>
        <ele>1622.0</ele>
      </trkpt>
      <trkpt lat="44.690818" lon="6.162808">
        <time>2021-12-28T16:54:30+00:00</time>
        <ele>1621.0</ele>
      </trkpt>
      <trkpt lat="44.690809" lon="6.16293">
        <time>2021-12-28T16:54:31+00:00</time>
        <ele>1620.0</ele>
      </trkpt>
      <trkpt lat="44.690798" lon="6.163043">
        <time>2021-12-28T16:54:32+00:00</time>
        <ele>1619.0</ele>
      </trkpt>
      <trkpt lat="44.690791" lon="6.163152">
        <time>2021-12-28T16:54:33+00:00</time>
        <ele>1618.0</ele>
      </trkpt>
      <trkpt lat="44.690786" lon="6.163341">
        <time>2021-12-28T16:54:35+00:00</time>
        <ele>1617.0</ele>
      </trkpt>
      <trkpt lat="44.690783" lon="6.163419">
        <time>2021-12-28T16:54:36+00:00</time>
        <ele>1617.0</ele>
      </trkpt>
      <trkpt lat="44.690761" lon="6.163648">
        <time>2021-12-28T16:54:40+00:00</time>
        <ele>1617.0</ele>
      </trkpt>
      <trkpt lat="44.690726" lon="6.163903">
        <time>2021-12-28T16:54:46+00:00</time>
        <ele>1618.0</ele>
      </trkpt>
      <trkpt lat="44.690637" lon="6.164215">
        <time>2021-12-28T16:54:53+00:00</time>
        <ele>1621.0</ele>
      </trkpt>
      <trkpt lat="44.690575" lon="6.164451">
        <time>2021-12-28T16:54:58+00:00</time>
        <ele>1622.0</ele>
      </trkpt>
      <trkpt lat="44.690552" lon="6.164493">
        <time>2021-12-28T16:54:59+00:00</time>
        <ele>1622.0</ele>
      </trkpt>
      <trkpt lat="44.690403" lon="6.164832">
        <time>2021-12-28T16:55:07+00:00</time>
        <ele>1621.0</ele>
      </trkpt>
      <trkpt lat="44.69038" lon="6.164864">
        <time>2021-12-28T16:55:08+00:00</time>
        <ele>1620.0</ele>
      </trkpt>
      <trkpt lat="44.690295" lon="6.164984">
        <time>2021-12-28T16:55:11+00:00</time>
        <ele>1618.0</ele>
      </trkpt>
      <trkpt lat="44.690221" lon="6.165111">
        <time>2021-12-28T16:55:15+00:00</time>
        <ele>1617.0</ele>
      </trkpt>
      <trkpt lat="44.690186" lon="6.165205">
        <time>2021-12-28T16:55:19+00:00</time>
        <ele>1617.0</ele>
      </trkpt>
      <trkpt lat="44.690181" lon="6.165221">
        <time>2021-12-28T16:55:20+00:00</time>
        <ele>1617.0</ele>
      </trkpt>
      <trkpt lat="44.690177" lon="6.165247">
        <time>2021-12-28T16:55:21+00:00</time>
        <ele>1617.0</ele>
      </trkpt>
      <trkpt lat="44.690167" lon="6.165279">
        <time>2021-12-28T16:55:23+00:00</time>
        <ele>1617.0</ele>
      </trkpt>
      <trkpt lat="44.690164" lon="6.165293">
        <time>2021-12-28T16:55:24+00:00</time>
        <ele>1618.0</ele>
      </trkpt>
      <trkpt lat="44.690151" lon="6.165328">
        <time>2021-12-28T16:55:27+00:00</time>
        <ele>1618.0</ele>
      </trkpt>
      <trkpt lat="44.690146" lon="6.165338">
        <time>2021-12-28T16:55:28+00:00</time>
        <ele>1617.0</ele>
      </trkpt>
      <trkpt lat="44.690141" lon="6.165351">
        <time>2021-12-28T16:55:29+00:00</time>
        <ele>1617.0</ele>
      </trkpt>
      <trkpt lat="44.690136" lon="6.165376">
        <time>2021-12-28T16:55:31+00:00</time>
        <ele>1618.0</ele>
      </trkpt>
      <trkpt lat="44.690113" lon="6.165421">
        <time>2021-12-28T16:55:34+00:00</time>
        <ele>1617.0</ele>
      </trkpt>
      <trkpt lat="44.6901" lon="6.16545">
        <time>2021-12-28T16:55:35+00:00</time>
        <ele>1617.0</ele>
      </trkpt>
      <trkpt lat="44.69008" lon="6.165555">
        <time>2021-12-28T16:55:38+00:00</time>
        <ele>1618.0</ele>
      </trkpt>
      <trkpt lat="44.690068" lon="6.165638">
        <time>2021-12-28T16:55:40+00:00</time>
        <ele>1619.0</ele>
      </trkpt>
      <trkpt lat="44.690017" lon="6.165848">
        <time>2021-12-28T16:55:45+00:00</time>
        <ele>1620.0</ele>
      </trkpt>
      <trkpt lat="44.689961" lon="6.166079">
        <time>2021-12-28T16:55:51+00:00</time>
        <ele>1619.0</ele>
      </trkpt>
      <trkpt lat="44.689913" lon="6.16623">
        <time>2021-12-28T16:55:55+00:00</time>
        <ele>1618.0</ele>
      </trkpt>
      <trkpt lat="44.689831" lon="6.166421">
        <time>2021-12-28T16:56:00+00:00</time>
        <ele>1616.0</ele>
      </trkpt>
      <trkpt lat="44.689804" lon="6.166462">
        <time>2021-12-28T16:56:01+00:00</time>
        <ele>1615.0</ele>
      </trkpt>
      <trkpt lat="44.689714" lon="6.166573">
        <time>2021-12-28T16:56:03+00:00</time>
        <ele>1613.0</ele>
      </trkpt>
      <trkpt lat="44.689662" lon="6.166638">
        <time>2021-12-28T16:56:04+00:00</time>
        <ele>1612.0</ele>
      </trkpt>
      <trkpt lat="44.689606" lon="6.166679">
        <time>2021-12-28T16:56:05+00:00</time>
        <ele>1611.0</ele>
      </trkpt>
      <trkpt lat="44.689539" lon="6.166704">
        <time>2021-12-28T16:56:06+00:00</time>
        <ele>1610.0</ele>
      </trkpt>
      <trkpt lat="44.689472" lon="6.166705">
        <time>2021-12-28T16:56:07+00:00</time>
        <ele>1608.0</ele>
      </trkpt>
      <trkpt lat="44.689394" lon="6.166686">
        <time>2021-12-28T16:56:08+00:00</time>
        <ele>1607.0</ele>
      </trkpt>
      <trkpt lat="44.689316" lon="6.166648">
        <time>2021-12-28T16:56:09+00:00</time>
        <ele>1606.0</ele>
      </trkpt>
      <trkpt lat="44.689242" lon="6.166594">
        <time>2021-12-28T16:56:10+00:00</time>
        <ele>1604.0</ele>
      </trkpt>
      <trkpt lat="44.689175" lon="6.166551">
        <time>2021-12-28T16:56:11+00:00</time>
        <ele>1603.0</ele>
      </trkpt>
      <trkpt lat="44.689055" lon="6.166491">
        <time>2021-12-28T16:56:13+00:00</time>
        <ele>1601.0</ele>
      </trkpt>
      <trkpt lat="44.688928" lon="6.166471">
        <time>2021-12-28T16:56:15+00:00</time>
        <ele>1599.0</ele>
      </trkpt>
      <trkpt lat="44.688868" lon="6.166456">
        <time>2021-12-28T16:56:16+00:00</time>
        <ele>1598.0</ele>
      </trkpt>
      <trkpt lat="44.688809" lon="6.166447">
        <time>2021-12-28T16:56:17+00:00</time>
        <ele>1597.0</ele>
      </trkpt>
      <trkpt lat="44.688754" lon="6.166437">
        <time>2021-12-28T16:56:18+00:00</time>
        <ele>1596.0</ele>
      </trkpt>
      <trkpt lat="44.688657" lon="6.166413">
        <time>2021-12-28T16:56:20+00:00</time>
        <ele>1594.0</ele>
      </trkpt>
      <trkpt lat="44.688616" lon="6.166387">
        <time>2021-12-28T16:56:21+00:00</time>
        <ele>1593.0</ele>
      </trkpt>
      <trkpt lat="44.688589" lon="6.166351">
        <time>2021-12-28T16:56:22+00:00</time>
        <ele>1592.0</ele>
      </trkpt>
      <trkpt lat="44.688577" lon="6.166313">
        <time>2021-12-28T16:56:23+00:00</time>
        <ele>1592.0</ele>
      </trkpt>
      <trkpt lat="44.688572" lon="6.166283">
        <time>2021-12-28T16:56:24+00:00</time>
        <ele>1591.0</ele>
      </trkpt>
      <trkpt lat="44.688567" lon="6.166263">
        <time>2021-12-28T16:56:27+00:00</time>
        <ele>1591.0</ele>
      </trkpt>
      <trkpt lat="44.68858" lon="6.166247">
        <time>2021-12-28T16:56:33+00:00</time>
        <ele>1591.0</ele>
      </trkpt>
      <trkpt lat="44.688589" lon="6.166243">
        <time>2021-12-28T16:56:39+00:00</time>
        <ele>1591.0</ele>
      </trkpt>
      <trkpt lat="44.688589" lon="6.166243">
        <time>2021-12-28T16:56:40+00:00</time>
        <ele>1591.0</ele>
      </trkpt>
      <trkpt lat="44.688593" lon="6.166244">
        <time>2021-12-28T16:56:44+00:00</time>
        <ele>1591.0</ele>
      </trkpt>
      <trkpt lat="44.688593" lon="6.166244">
        <time>2021-12-28T16:56:46+00:00</time>
        <ele>1591.0</ele>
      </trkpt>
      <trkpt lat="44.688593" lon="6.166244">
        <time>2021-12-28T16:56:48+00:00</time>
        <ele>1591.0</ele>
      </trkpt>
      <trkpt lat="44.688593" lon="6.166244">
        <time>2021-12-28T16:56:50+00:00</time>
        <ele>1591.0</ele>
      </trkpt>
      <trkpt lat="44.688593" lon="6.166244">
        <time>2021-12-28T16:56:52+00:00</time>
        <ele>1591.0</ele>
      </trkpt>
      <trkpt lat="44.688593" lon="6.166243">
        <time>2021-12-28T16:56:57+00:00</time>
        <ele>1591.0</ele>
      </trkpt>
      <trkpt lat="44.688603" lon="6.166243">
        <time>2021-12-28T16:57:01+00:00</time>
        <ele>1591.0</ele>
      </trkpt>
      <trkpt lat="44.688605" lon="6.166243">
        <time>2021-12-28T16:57:04+00:00</time>
        <ele>1591.0</ele>
      </trkpt>
      <trkpt lat="44.688608" lon="6.166241">
        <time>2021-12-28T16:57:10+00:00</time>
        <ele>1591.0</ele>
      </trkpt>
      <trkpt lat="44.688622" lon="6.166162">
        <time>2021-12-28T16:57:13+00:00</time>
        <ele>1590.0</ele>
      </trkpt>
      <trkpt lat="44.68864" lon="6.166009">
        <time>2021-12-28T16:57:19+00:00</time>
        <ele>1589.0</ele>
      </trkpt>
      <trkpt lat="44.688641" lon="6.165958">
        <time>2021-12-28T16:57:21+00:00</time>
        <ele>1588.0</ele>
      </trkpt>
      <trkpt lat="44.688646" lon="6.16587">
        <time>2021-12-28T16:57:24+00:00</time>
        <ele>1587.0</ele>
      </trkpt>
      <trkpt lat="44.688667" lon="6.165771">
        <time>2021-12-28T16:57:28+00:00</time>
        <ele>1586.0</ele>
      </trkpt>
      <trkpt lat="44.688674" lon="6.16576">
        <time>2021-12-28T16:57:29+00:00</time>
        <ele>1586.0</ele>
      </trkpt>
      <trkpt lat="44.688749" lon="6.165633">
        <time>2021-12-28T16:57:36+00:00</time>
        <ele>1585.0</ele>
      </trkpt>
      <trkpt lat="44.688775" lon="6.165599">
        <time>2021-12-28T16:57:38+00:00</time>
        <ele>1586.0</ele>
      </trkpt>
      <trkpt lat="44.68883" lon="6.165535">
        <time>2021-12-28T16:57:42+00:00</time>
        <ele>1586.0</ele>
      </trkpt>
      <trkpt lat="44.688873" lon="6.165494">
        <time>2021-12-28T16:57:45+00:00</time>
        <ele>1587.0</ele>
      </trkpt>
      <trkpt lat="44.68889" lon="6.165475">
        <time>2021-12-28T16:57:46+00:00</time>
        <ele>1587.0</ele>
      </trkpt>
      <trkpt lat="44.688934" lon="6.165419">
        <time>2021-12-28T16:57:49+00:00</time>
        <ele>1587.0</ele>
      </trkpt>
      <trkpt lat="44.688989" lon="6.165355">
        <time>2021-12-28T16:57:53+00:00</time>
        <ele>1587.0</ele>
      </trkpt>
      <trkpt lat="44.689015" lon="6.165308">
        <time>2021-12-28T16:57:55+00:00</time>
        <ele>1587.0</ele>
      </trkpt>
      <trkpt lat="44.68906" lon="6.165237">
        <time>2021-12-28T16:57:58+00:00</time>
        <ele>1586.0</ele>
      </trkpt>
      <trkpt lat="44.68912" lon="6.165106">
        <time>2021-12-28T16:58:03+00:00</time>
        <ele>1585.0</ele>
      </trkpt>
      <trkpt lat="44.689207" lon="6.165015">
        <time>2021-12-28T16:58:08+00:00</time>
        <ele>1586.0</ele>
      </trkpt>
      <trkpt lat="44.68922" lon="6.165">
        <time>2021-12-28T16:58:09+00:00</time>
        <ele>1586.0</ele>
      </trkpt>
      <trkpt lat="44.689272" lon="6.164924">
        <time>2021-12-28T16:58:13+00:00</time>
        <ele>1586.0</ele>
      </trkpt>
      <trkpt lat="44.689283" lon="6.164896">
        <time>2021-12-28T16:58:14+00:00</time>
        <ele>1586.0</ele>
      </trkpt>
      <trkpt lat="44.689308" lon="6.164845">
        <time>2021-12-28T16:58:16+00:00</time>
        <ele>1586.0</ele>
      </trkpt>
      <trkpt lat="44.689348" lon="6.164701">
        <time>2021-12-28T16:58:23+00:00</time>
        <ele>1585.0</ele>
      </trkpt>
      <trkpt lat="44.689349" lon="6.16464">
        <time>2021-12-28T16:58:25+00:00</time>
        <ele>1585.0</ele>
      </trkpt>
      <trkpt lat="44.689348" lon="6.164586">
        <time>2021-12-28T16:58:28+00:00</time>
        <ele>1584.0</ele>
      </trkpt>
      <trkpt lat="44.689342" lon="6.164558">
        <time>2021-12-28T16:58:32+00:00</time>
        <ele>1584.0</ele>
      </trkpt>
      <trkpt lat="44.689331" lon="6.164522">
        <time>2021-12-28T16:58:38+00:00</time>
        <ele>1583.0</ele>
      </trkpt>
      <trkpt lat="44.689314" lon="6.16449">
        <time>2021-12-28T16:58:41+00:00</time>
        <ele>1583.0</ele>
      </trkpt>
      <trkpt lat="44.689305" lon="6.164479">
        <time>2021-12-28T16:58:44+00:00</time>
        <ele>1583.0</ele>
      </trkpt>
      <trkpt lat="44.689298" lon="6.164467">
        <time>2021-12-28T16:58:47+00:00</time>
        <ele>1582.0</ele>
      </trkpt>
      <trkpt lat="44.689282" lon="6.164428">
        <time>2021-12-28T16:58:53+00:00</time>
        <ele>1582.0</ele>
      </trkpt>
      <trkpt lat="44.689269" lon="6.164382">
        <time>2021-12-28T16:59:02+00:00</time>
        <ele>1581.0</ele>
      </trkpt>
      <trkpt lat="44.689246" lon="6.164375">
        <time>2021-12-28T16:59:08+00:00</time>
        <ele>1581.0</ele>
      </trkpt>
      <trkpt lat="44.6892" lon="6.164385">
        <time>2021-12-28T16:59:14+00:00</time>
        <ele>1580.0</ele>
      </trkpt>
      <trkpt lat="44.689158" lon="6.164397">
        <time>2021-12-28T16:59:18+00:00</time>
        <ele>1580.0</ele>
      </trkpt>
      <trkpt lat="44.689101" lon="6.164395">
        <time>2021-12-28T16:59:25+00:00</time>
        <ele>1579.0</ele>
      </trkpt>
      <trkpt lat="44.689025" lon="6.16441">
        <time>2021-12-28T16:59:32+00:00</time>
        <ele>1577.0</ele>
      </trkpt>
      <trkpt lat="44.688939" lon="6.164463">
        <time>2021-12-28T16:59:39+00:00</time>
        <ele>1576.0</ele>
      </trkpt>
      <trkpt lat="44.688895" lon="6.164476">
        <time>2021-12-28T16:59:42+00:00</time>
        <ele>1575.0</ele>
      </trkpt>
      <trkpt lat="44.688878" lon="6.164481">
        <time>2021-12-28T16:59:44+00:00</time>
        <ele>1575.0</ele>
      </trkpt>
      <trkpt lat="44.688865" lon="6.164457">
        <time>2021-12-28T16:59:46+00:00</time>
        <ele>1575.0</ele>
      </trkpt>
      <trkpt lat="44.688865" lon="6.164447">
        <time>2021-12-28T16:59:47+00:00</time>
        <ele>1574.0</ele>
      </trkpt>
      <trkpt lat="44.688861" lon="6.164441">
        <time>2021-12-28T16:59:48+00:00</time>
        <ele>1574.0</ele>
      </trkpt>
      <trkpt lat="44.688842" lon="6.164445">
        <time>2021-12-28T16:59:52+00:00</time>
        <ele>1574.0</ele>
      </trkpt>
      <trkpt lat="44.688834" lon="6.164481">
        <time>2021-12-28T16:59:59+00:00</time>
        <ele>1574.0</ele>
      </trkpt>
      <trkpt lat="44.688807" lon="6.164491">
        <time>2021-12-28T17:00:02+00:00</time>
        <ele>1574.0</ele>
      </trkpt>
      <trkpt lat="44.688762" lon="6.164496">
        <time>2021-12-28T17:00:04+00:00</time>
        <ele>1573.0</ele>
      </trkpt>
      <trkpt lat="44.688731" lon="6.1645">
        <time>2021-12-28T17:00:05+00:00</time>
        <ele>1573.0</ele>
      </trkpt>
      <trkpt lat="44.688641" lon="6.164531">
        <time>2021-12-28T17:00:09+00:00</time>
        <ele>1572.0</ele>
      </trkpt>
      <trkpt lat="44.688609" lon="6.16455">
        <time>2021-12-28T17:00:11+00:00</time>
        <ele>1572.0</ele>
      </trkpt>
      <trkpt lat="44.688552" lon="6.164587">
        <time>2021-12-28T17:00:15+00:00</time>
        <ele>1571.0</ele>
      </trkpt>
      <trkpt lat="44.688514" lon="6.164609">
        <time>2021-12-28T17:00:17+00:00</time>
        <ele>1571.0</ele>
      </trkpt>
      <trkpt lat="44.688493" lon="6.164621">
        <time>2021-12-28T17:00:18+00:00</time>
        <ele>1570.0</ele>
      </trkpt>
      <trkpt lat="44.68841" lon="6.164689">
        <time>2021-12-28T17:00:25+00:00</time>
        <ele>1569.0</ele>
      </trkpt>
      <trkpt lat="44.688337" lon="6.164767">
        <time>2021-12-28T17:00:32+00:00</time>
        <ele>1568.0</ele>
      </trkpt>
      <trkpt lat="44.688263" lon="6.164822">
        <time>2021-12-28T17:00:37+00:00</time>
        <ele>1567.0</ele>
      </trkpt>
      <trkpt lat="44.688243" lon="6.164826">
        <time>2021-12-28T17:00:40+00:00</time>
        <ele>1566.0</ele>
      </trkpt>
      <trkpt lat="44.688237" lon="6.164823">
        <time>2021-12-28T17:00:41+00:00</time>
        <ele>1566.0</ele>
      </trkpt>
      <trkpt lat="44.688231" lon="6.164815">
        <time>2021-12-28T17:00:42+00:00</time>
        <ele>1566.0</ele>
      </trkpt>
      <trkpt lat="44.688199" lon="6.164791">
        <time>2021-12-28T17:00:47+00:00</time>
        <ele>1565.0</ele>
      </trkpt>
      <trkpt lat="44.688124" lon="6.164747">
        <time>2021-12-28T17:00:52+00:00</time>
        <ele>1564.0</ele>
      </trkpt>
      <trkpt lat="44.688115" lon="6.164747">
        <time>2021-12-28T17:00:53+00:00</time>
        <ele>1564.0</ele>
      </trkpt>
      <trkpt lat="44.68808" lon="6.164777">
        <time>2021-12-28T17:00:58+00:00</time>
        <ele>1563.0</ele>
      </trkpt>
      <trkpt lat="44.68807" lon="6.164783">
        <time>2021-12-28T17:01:00+00:00</time>
        <ele>1563.0</ele>
      </trkpt>
      <trkpt lat="44.688058" lon="6.164779">
        <time>2021-12-28T17:01:04+00:00</time>
        <ele>1563.0</ele>
      </trkpt>
      <trkpt lat="44.688058" lon="6.16477">
        <time>2021-12-28T17:01:06+00:00</time>
        <ele>1563.0</ele>
      </trkpt>
      <trkpt lat="44.688058" lon="6.164761">
        <time>2021-12-28T17:01:14+00:00</time>
        <ele>1563.0</ele>
      </trkpt>
      <trkpt lat="44.688058" lon="6.164762">
        <time>2021-12-28T17:01:24+00:00</time>
        <ele>1563.0</ele>
      </trkpt>
      <trkpt lat="44.688058" lon="6.164763">
        <time>2021-12-28T17:01:30+00:00</time>
        <ele>1563.0</ele>
      </trkpt>
      <trkpt lat="44.688058" lon="6.164763">
        <time>2021-12-28T17:01:33+00:00</time>
        <ele>1563.0</ele>
      </trkpt>
      <trkpt lat="44.688076" lon="6.164815">
        <time>2021-12-28T17:01:45+00:00</time>
        <ele>1563.0</ele>
      </trkpt>
      <trkpt lat="44.688081" lon="6.164836">
        <time>2021-12-28T17:01:46+00:00</time>
        <ele>1563.0</ele>
      </trkpt>
      <trkpt lat="44.68809" lon="6.164938">
        <time>2021-12-28T17:01:53+00:00</time>
        <ele>1563.0</ele>
      </trkpt>
      <trkpt lat="44.688095" lon="6.164956">
        <time>2021-12-28T17:02:01+00:00</time>
        <ele>1563.0</ele>
      </trkpt>
      <trkpt lat="44.688097" lon="6.164962">
        <time>2021-12-28T17:02:06+00:00</time>
        <ele>1563.0</ele>
      </trkpt>
      <trkpt lat="44.688097" lon="6.164962">
        <time>2021-12-28T17:02:12+00:00</time>
        <ele>1563.0</ele>
      </trkpt>
      <trkpt lat="44.688097" lon="6.164962">
        <time>2021-12-28T17:02:17+00:00</time>
        <ele>1563.0</ele>
      </trkpt>
      <trkpt lat="44.688095" lon="6.164938">
        <time>2021-12-28T17:02:24+00:00</time>
        <ele>1563.0</ele>
      </trkpt>
      <trkpt lat="44.688091" lon="6.164915">
        <time>2021-12-28T17:02:25+00:00</time>
        <ele>1563.0</ele>
      </trkpt>
      <trkpt lat="44.688061" lon="6.164814">
        <time>2021-12-28T17:02:29+00:00</time>
        <ele>1563.0</ele>
      </trkpt>
      <trkpt lat="44.688063" lon="6.164788">
        <time>2021-12-28T17:02:30+00:00</time>
        <ele>1563.0</ele>
      </trkpt>
      <trkpt lat="44.688063" lon="6.164766">
        <time>2021-12-28T17:02:31+00:00</time>
        <ele>1563.0</ele>
      </trkpt>
      <trkpt lat="44.688056" lon="6.16475">
        <time>2021-12-28T17:02:36+00:00</time>
        <ele>1563.0</ele>
      </trkpt>
      <trkpt lat="44.688066" lon="6.164749">
        <time>2021-12-28T17:02:46+00:00</time>
        <ele>1563.0</ele>
      </trkpt>
      <trkpt lat="44.688056" lon="6.164749">
        <time>2021-12-28T17:03:01+00:00</time>
        <ele>1563.0</ele>
      </trkpt>
      <trkpt lat="44.688063" lon="6.164756">
        <time>2021-12-28T17:03:13+00:00</time>
        <ele>1563.0</ele>
      </trkpt>
      <trkpt lat="44.688098" lon="6.164819">
        <time>2021-12-28T17:03:16+00:00</time>
        <ele>1563.0</ele>
      </trkpt>
      <trkpt lat="44.688167" lon="6.164882">
        <time>2021-12-28T17:03:21+00:00</time>
        <ele>1565.0</ele>
      </trkpt>
      <trkpt lat="44.688165" lon="6.164873">
        <time>2021-12-28T17:03:23+00:00</time>
        <ele>1565.0</ele>
      </trkpt>
      <trkpt lat="44.688162" lon="6.164864">
        <time>2021-12-28T17:03:26+00:00</time>
        <ele>1564.0</ele>
      </trkpt>
      <trkpt lat="44.688159" lon="6.164855">
        <time>2021-12-28T17:03:28+00:00</time>
        <ele>1564.0</ele>
      </trkpt>
      <trkpt lat="44.688157" lon="6.164846">
        <time>2021-12-28T17:03:32+00:00</time>
        <ele>1564.0</ele>
      </trkpt>
      <trkpt lat="44.688154" lon="6.164837">
        <time>2021-12-28T17:03:33+00:00</time>
        <ele>1564.0</ele>
      </trkpt>
      <trkpt lat="44.688151" lon="6.164828">
        <time>2021-12-28T17:03:34+00:00</time>
        <ele>1564.0</ele>
      </trkpt>
      <trkpt lat="44.688149" lon="6.164818">
        <time>2021-12-28T17:03:36+00:00</time>
        <ele>1564.0</ele>
      </trkpt>
      <trkpt lat="44.688146" lon="6.164809">
        <time>2021-12-28T17:03:39+00:00</time>
        <ele>1564.0</ele>
      </trkpt>
      <trkpt lat="44.688143" lon="6.1648">
        <time>2021-12-28T17:03:41+00:00</time>
        <ele>1564.0</ele>
      </trkpt>
      <trkpt lat="44.688141" lon="6.164791">
        <time>2021-12-28T17:03:44+00:00</time>
        <ele>1564.0</ele>
      </trkpt>
      <trkpt lat="44.688138" lon="6.164782">
        <time>2021-12-28T17:03:50+00:00</time>
        <ele>1564.0</ele>
      </trkpt>
      <trkpt lat="44.688135" lon="6.164773">
        <time>2021-12-28T17:03:55+00:00</time>
        <ele>1564.0</ele>
      </trkpt>
      <trkpt lat="44.688133" lon="6.164764">
        <time>2021-12-28T17:03:56+00:00</time>
        <ele>1564.0</ele>
      </trkpt>
      <trkpt lat="44.68813" lon="6.164755">
        <time>2021-12-28T17:03:57+00:00</time>
        <ele>1564.0</ele>
      </trkpt>
      <trkpt lat="44.688131" lon="6.164764">
        <time>2021-12-28T17:04:00+00:00</time>
        <ele>1564.0</ele>
      </trkpt>
      <trkpt lat="44.688132" lon="6.164753">
        <time>2021-12-28T17:04:05+00:00</time>
        <ele>1564.0</ele>
      </trkpt>
      <trkpt lat="44.688147" lon="6.164767">
        <time>2021-12-28T17:04:08+00:00</time>
        <ele>1564.0</ele>
      </trkpt>
      <trkpt lat="44.688123" lon="6.164779">
        <time>2021-12-28T17:04:12+00:00</time>
        <ele>1564.0</ele>
      </trkpt>
      <trkpt lat="44.688106" lon="6.164782">
        <time>2021-12-28T17:04:18+00:00</time>
        <ele>1564.0</ele>
      </trkpt>
      <trkpt lat="44.688111" lon="6.164831">
        <time>2021-12-28T17:04:25+00:00</time>
        <ele>1564.0</ele>
      </trkpt>
      <trkpt lat="44.688112" lon="6.164832">
        <time>2021-12-28T17:04:26+00:00</time>
        <ele>1564.0</ele>
      </trkpt>
      <trkpt lat="44.68811" lon="6.164825">
        <time>2021-12-28T17:04:27+00:00</time>
        <ele>1564.0</ele>
      </trkpt>
      <trkpt lat="44.688111" lon="6.164832">
        <time>2021-12-28T17:04:30+00:00</time>
        <ele>1564.0</ele>
      </trkpt>
      <trkpt lat="44.688111" lon="6.164834">
        <time>2021-12-28T17:04:34+00:00</time>
        <ele>1564.0</ele>
      </trkpt>
      <trkpt lat="44.688111" lon="6.164834">
        <time>2021-12-28T17:04:35+00:00</time>
        <ele>1564.0</ele>
      </trkpt>
      <trkpt lat="44.688111" lon="6.164834">
        <time>2021-12-28T17:04:37+00:00</time>
        <ele>1564.0</ele>
      </trkpt>
      <trkpt lat="44.688111" lon="6.164834">
        <time>2021-12-28T17:04:40+00:00</time>
        <ele>1564.0</ele>
      </trkpt>
      <trkpt lat="44.688154" lon="6.164869">
        <time>2021-12-28T17:04:59+00:00</time>
        <ele>1564.0</ele>
      </trkpt>
      <trkpt lat="44.68819" lon="6.164875">
        <time>2021-12-28T17:05:01+00:00</time>
        <ele>1565.0</ele>
      </trkpt>
      <trkpt lat="44.688286" lon="6.16479">
        <time>2021-12-28T17:05:07+00:00</time>
        <ele>1567.0</ele>
      </trkpt>
      <trkpt lat="44.688303" lon="6.164726">
        <time>2021-12-28T17:05:15+00:00</time>
        <ele>1567.0</ele>
      </trkpt>
      <trkpt lat="44.688304" lon="6.164703">
        <time>2021-12-28T17:05:18+00:00</time>
        <ele>1567.0</ele>
      </trkpt>
      <trkpt lat="44.688303" lon="6.164689">
        <time>2021-12-28T17:05:21+00:00</time>
        <ele>1567.0</ele>
      </trkpt>
      <trkpt lat="44.688301" lon="6.164683">
        <time>2021-12-28T17:05:25+00:00</time>
        <ele>1567.0</ele>
      </trkpt>
      <trkpt lat="44.688296" lon="6.164686">
        <time>2021-12-28T17:05:27+00:00</time>
        <ele>1567.0</ele>
      </trkpt>
      <trkpt lat="44.688284" lon="6.164663">
        <time>2021-12-28T17:05:48+00:00</time>
        <ele>1567.0</ele>
      </trkpt>
      <trkpt lat="44.688285" lon="6.164646">
        <time>2021-12-28T17:05:56+00:00</time>
        <ele>1567.0</ele>
      </trkpt>
      <trkpt lat="44.688285" lon="6.164637">
        <time>2021-12-28T17:05:57+00:00</time>
        <ele>1567.0</ele>
      </trkpt>
      <trkpt lat="44.688289" lon="6.164621">
        <time>2021-12-28T17:06:05+00:00</time>
        <ele>1567.0</ele>
      </trkpt>
      <trkpt lat="44.688304" lon="6.16462">
        <time>2021-12-28T17:06:18+00:00</time>
        <ele>1568.0</ele>
      </trkpt>
      <trkpt lat="44.688306" lon="6.164624">
        <time>2021-12-28T17:06:23+00:00</time>
        <ele>1568.0</ele>
      </trkpt>
      <trkpt lat="44.688306" lon="6.164628">
        <time>2021-12-28T17:06:25+00:00</time>
        <ele>1568.0</ele>
      </trkpt>
      <trkpt lat="44.688307" lon="6.164656">
        <time>2021-12-28T17:06:36+00:00</time>
        <ele>1568.0</ele>
      </trkpt>
      <trkpt lat="44.688307" lon="6.164669">
        <time>2021-12-28T17:06:40+00:00</time>
        <ele>1568.0</ele>
      </trkpt>
      <trkpt lat="44.688306" lon="6.164691">
        <time>2021-12-28T17:06:50+00:00</time>
        <ele>1568.0</ele>
      </trkpt>
      <trkpt lat="44.688306" lon="6.164694">
        <time>2021-12-28T17:06:54+00:00</time>
        <ele>1568.0</ele>
      </trkpt>
      <trkpt lat="44.688299" lon="6.164697">
        <time>2021-12-28T17:06:58+00:00</time>
        <ele>1567.0</ele>
      </trkpt>
      <trkpt lat="44.688266" lon="6.164702">
        <time>2021-12-28T17:07:03+00:00</time>
        <ele>1567.0</ele>
      </trkpt>
      <trkpt lat="44.688247" lon="6.164719">
        <time>2021-12-28T17:07:10+00:00</time>
        <ele>1566.0</ele>
      </trkpt>
      <trkpt lat="44.688238" lon="6.164733">
        <time>2021-12-28T17:07:13+00:00</time>
        <ele>1566.0</ele>
      </trkpt>
      <trkpt lat="44.688231" lon="6.164776">
        <time>2021-12-28T17:07:15+00:00</time>
        <ele>1566.0</ele>
      </trkpt>
      <trkpt lat="44.688232" lon="6.164833">
        <time>2021-12-28T17:07:17+00:00</time>
        <ele>1566.0</ele>
      </trkpt>
      <trkpt lat="44.688232" lon="6.164894">
        <time>2021-12-28T17:07:21+00:00</time>
        <ele>1566.0</ele>
      </trkpt>
      <trkpt lat="44.688231" lon="6.164897">
        <time>2021-12-28T17:07:25+00:00</time>
        <ele>1566.0</ele>
      </trkpt>
      <trkpt lat="44.688229" lon="6.164905">
        <time>2021-12-28T17:07:27+00:00</time>
        <ele>1566.0</ele>
      </trkpt>
      <trkpt lat="44.688208" lon="6.16493">
        <time>2021-12-28T17:07:33+00:00</time>
        <ele>1565.0</ele>
      </trkpt>
      <trkpt lat="44.68822" lon="6.164922">
        <time>2021-12-28T17:07:36+00:00</time>
        <ele>1566.0</ele>
      </trkpt>
      <trkpt lat="44.688218" lon="6.164904">
        <time>2021-12-28T17:07:37+00:00</time>
        <ele>1566.0</ele>
      </trkpt>
      <trkpt lat="44.688218" lon="6.164904">
        <time>2021-12-28T17:07:40+00:00</time>
        <ele>1566.0</ele>
      </trkpt>
      <trkpt lat="44.688218" lon="6.164904">
        <time>2021-12-28T17:08:08+00:00</time>
        <ele>1566.0</ele>
      </trkpt>
      <trkpt lat="44.688234" lon="6.164748">
        <time>2021-12-28T17:08:13+00:00</time>
        <ele>1566.0</ele>
      </trkpt>
      <trkpt lat="44.688213" lon="6.164724">
        <time>2021-12-28T17:08:20+00:00</time>
        <ele>1566.0</ele>
      </trkpt>
      <trkpt lat="44.688229" lon="6.164779">
        <time>2021-12-28T17:08:28+00:00</time>
        <ele>1566.0</ele>
      </trkpt>
      <trkpt lat="44.688228" lon="6.164774">
        <time>2021-12-28T17:08:29+00:00</time>
        <ele>1566.0</ele>
      </trkpt>
      <trkpt lat="44.688236" lon="6.164817">
        <time>2021-12-28T17:08:32+00:00</time>
        <ele>1566.0</ele>
      </trkpt>
      <trkpt lat="44.688241" lon="6.164855">
        <time>2021-12-28T17:08:34+00:00</time>
        <ele>1566.0</ele>
      </trkpt>
      <trkpt lat="44.688282" lon="6.164847">
        <time>2021-12-28T17:08:40+00:00</time>
        <ele>1567.0</ele>
      </trkpt>
      <trkpt lat="44.688309" lon="6.16486">
        <time>2021-12-28T17:08:41+00:00</time>
        <ele>1568.0</ele>
      </trkpt>
      <trkpt lat="44.688323" lon="6.164864">
        <time>2021-12-28T17:08:42+00:00</time>
        <ele>1568.0</ele>
      </trkpt>
      <trkpt lat="44.688334" lon="6.16485">
        <time>2021-12-28T17:08:44+00:00</time>
        <ele>1568.0</ele>
      </trkpt>
      <trkpt lat="44.68834" lon="6.16485">
        <time>2021-12-28T17:08:45+00:00</time>
        <ele>1568.0</ele>
      </trkpt>
      <trkpt lat="44.688344" lon="6.164832">
        <time>2021-12-28T17:08:46+00:00</time>
        <ele>1568.0</ele>
      </trkpt>
      <trkpt lat="44.688342" lon="6.1648">
        <time>2021-12-28T17:08:48+00:00</time>
        <ele>1568.0</ele>
      </trkpt>
      <trkpt lat="44.688339" lon="6.164838">
        <time>2021-12-28T17:08:52+00:00</time>
        <ele>1568.0</ele>
      </trkpt>
      <trkpt lat="44.688339" lon="6.164853">
        <time>2021-12-28T17:08:53+00:00</time>
        <ele>1568.0</ele>
      </trkpt>
      <trkpt lat="44.688339" lon="6.164854">
        <time>2021-12-28T17:08:54+00:00</time>
        <ele>1568.0</ele>
      </trkpt>
      <trkpt lat="44.688328" lon="6.164804">
        <time>2021-12-28T17:08:59+00:00</time>
        <ele>1568.0</ele>
      </trkpt>
      <trkpt lat="44.688317" lon="6.164779">
        <time>2021-12-28T17:09:01+00:00</time>
        <ele>1568.0</ele>
      </trkpt>
      <trkpt lat="44.688306" lon="6.164784">
        <time>2021-12-28T17:09:02+00:00</time>
        <ele>1567.0</ele>
      </trkpt>
      <trkpt lat="44.688303" lon="6.164792">
        <time>2021-12-28T17:09:03+00:00</time>
        <ele>1567.0</ele>
      </trkpt>
      <trkpt lat="44.688308" lon="6.164809">
        <time>2021-12-28T17:09:05+00:00</time>
        <ele>1568.0</ele>
      </trkpt>
      <trkpt lat="44.688275" lon="6.164806">
        <time>2021-12-28T17:09:07+00:00</time>
        <ele>1567.0</ele>
      </trkpt>
      <trkpt lat="44.688283" lon="6.164783">
        <time>2021-12-28T17:09:09+00:00</time>
        <ele>1567.0</ele>
      </trkpt>
      <trkpt lat="44.688275" lon="6.164792">
        <time>2021-12-28T17:09:11+00:00</time>
        <ele>1567.0</ele>
      </trkpt>
      <trkpt lat="44.688258" lon="6.164761">
        <time>2021-12-28T17:09:17+00:00</time>
        <ele>1566.0</ele>
      </trkpt>
      <trkpt lat="44.688272" lon="6.16474">
        <time>2021-12-28T17:09:18+00:00</time>
        <ele>1567.0</ele>
      </trkpt>
      <trkpt lat="44.688273" lon="6.164726">
        <time>2021-12-28T17:09:19+00:00</time>
        <ele>1567.0</ele>
      </trkpt>
      <trkpt lat="44.688264" lon="6.164732">
        <time>2021-12-28T17:09:21+00:00</time>
        <ele>1567.0</ele>
      </trkpt>
      <trkpt lat="44.68826" lon="6.164709">
        <time>2021-12-28T17:09:25+00:00</time>
        <ele>1567.0</ele>
      </trkpt>
      <trkpt lat="44.688243" lon="6.164738">
        <time>2021-12-28T17:09:26+00:00</time>
        <ele>1566.0</ele>
      </trkpt>
      <trkpt lat="44.688248" lon="6.164754">
        <time>2021-12-28T17:09:27+00:00</time>
        <ele>1566.0</ele>
      </trkpt>
      <trkpt lat="44.688244" lon="6.164753">
        <time>2021-12-28T17:09:29+00:00</time>
        <ele>1566.0</ele>
      </trkpt>
      <trkpt lat="44.688218" lon="6.164738">
        <time>2021-12-28T17:09:34+00:00</time>
        <ele>1566.0</ele>
      </trkpt>
      <trkpt lat="44.688209" lon="6.164743">
        <time>2021-12-28T17:09:35+00:00</time>
        <ele>1565.0</ele>
      </trkpt>
      <trkpt lat="44.688207" lon="6.164722">
        <time>2021-12-28T17:09:36+00:00</time>
        <ele>1565.0</ele>
      </trkpt>
      <trkpt lat="44.688202" lon="6.164701">
        <time>2021-12-28T17:09:37+00:00</time>
        <ele>1565.0</ele>
      </trkpt>
      <trkpt lat="44.688194" lon="6.16469">
        <time>2021-12-28T17:09:38+00:00</time>
        <ele>1565.0</ele>
      </trkpt>
      <trkpt lat="44.688185" lon="6.164685">
        <time>2021-12-28T17:09:39+00:00</time>
        <ele>1565.0</ele>
      </trkpt>
      <trkpt lat="44.688182" lon="6.164683">
        <time>2021-12-28T17:09:40+00:00</time>
        <ele>1565.0</ele>
      </trkpt>
      <trkpt lat="44.688173" lon="6.164712">
        <time>2021-12-28T17:09:45+00:00</time>
        <ele>1565.0</ele>
      </trkpt>
      <trkpt lat="44.688171" lon="6.164727">
        <time>2021-12-28T17:09:49+00:00</time>
        <ele>1565.0</ele>
      </trkpt>
      <trkpt lat="44.688179" lon="6.164725">
        <time>2021-12-28T17:09:50+00:00</time>
        <ele>1565.0</ele>
      </trkpt>
      <trkpt lat="44.688185" lon="6.164732">
        <time>2021-12-28T17:09:51+00:00</time>
        <ele>1565.0</ele>
      </trkpt>
      <trkpt lat="44.688203" lon="6.164736">
        <time>2021-12-28T17:09:53+00:00</time>
        <ele>1565.0</ele>
      </trkpt>
      <trkpt lat="44.688217" lon="6.164761">
        <time>2021-12-28T17:09:55+00:00</time>
        <ele>1566.0</ele>
      </trkpt>
      <trkpt lat="44.68822" lon="6.164783">
        <time>2021-12-28T17:09:58+00:00</time>
        <ele>1566.0</ele>
      </trkpt>
      <trkpt lat="44.688221" lon="6.164788">
        <time>2021-12-28T17:10:01+00:00</time>
        <ele>1566.0</ele>
      </trkpt>
      <trkpt lat="44.688234" lon="6.164759">
        <time>2021-12-28T17:10:04+00:00</time>
        <ele>1566.0</ele>
      </trkpt>
      <trkpt lat="44.688223" lon="6.164762">
        <time>2021-12-28T17:10:07+00:00</time>
        <ele>1566.0</ele>
      </trkpt>
      <trkpt lat="44.688235" lon="6.164762">
        <time>2021-12-28T17:10:10+00:00</time>
        <ele>1566.0</ele>
      </trkpt>
      <trkpt lat="44.688223" lon="6.16478">
        <time>2021-12-28T17:10:12+00:00</time>
        <ele>1566.0</ele>
      </trkpt>
      <trkpt lat="44.688225" lon="6.16477">
        <time>2021-12-28T17:10:14+00:00</time>
        <ele>1566.0</ele>
      </trkpt>
      <trkpt lat="44.688234" lon="6.164759">
        <time>2021-12-28T17:10:20+00:00</time>
        <ele>1566.0</ele>
      </trkpt>
      <trkpt lat="44.688231" lon="6.164762">
        <time>2021-12-28T17:10:33+00:00</time>
        <ele>1566.0</ele>
      </trkpt>
      <trkpt lat="44.688231" lon="6.164762">
        <time>2021-12-28T17:10:35+00:00</time>
        <ele>1566.0</ele>
      </trkpt>
      <trkpt lat="44.688231" lon="6.164762">
        <time>2021-12-28T17:10:38+00:00</time>
        <ele>1566.0</ele>
      </trkpt>
      <trkpt lat="44.688231" lon="6.164743">
        <time>2021-12-28T17:10:53+00:00</time>
        <ele>1566.0</ele>
      </trkpt>
      <trkpt lat="44.688232" lon="6.164732">
        <time>2021-12-28T17:10:57+00:00</time>
        <ele>1566.0</ele>
      </trkpt>
      <trkpt lat="44.688237" lon="6.164731">
        <time>2021-12-28T17:10:59+00:00</time>
        <ele>1566.0</ele>
      </trkpt>
      <trkpt lat="44.688252" lon="6.16473">
        <time>2021-12-28T17:11:02+00:00</time>
        <ele>1566.0</ele>
      </trkpt>
      <trkpt lat="44.688255" lon="6.164725">
        <time>2021-12-28T17:11:06+00:00</time>
        <ele>1566.0</ele>
      </trkpt>
      <trkpt lat="44.688253" lon="6.164686">
        <time>2021-12-28T17:11:07+00:00</time>
        <ele>1566.0</ele>
      </trkpt>
      <trkpt lat="44.688236" lon="6.164687">
        <time>2021-12-28T17:11:10+00:00</time>
        <ele>1566.0</ele>
      </trkpt>
      <trkpt lat="44.688211" lon="6.164718">
        <time>2021-12-28T17:11:14+00:00</time>
        <ele>1566.0</ele>
      </trkpt>
      <trkpt lat="44.688214" lon="6.16472">
        <time>2021-12-28T17:11:15+00:00</time>
        <ele>1566.0</ele>
      </trkpt>
      <trkpt lat="44.688222" lon="6.164726">
        <time>2021-12-28T17:11:16+00:00</time>
        <ele>1566.0</ele>
      </trkpt>
      <trkpt lat="44.688215" lon="6.164819">
        <time>2021-12-28T17:11:21+00:00</time>
        <ele>1566.0</ele>
      </trkpt>
      <trkpt lat="44.688209" lon="6.164819">
        <time>2021-12-28T17:11:23+00:00</time>
        <ele>1565.0</ele>
      </trkpt>
      <trkpt lat="44.688219" lon="6.164766">
        <time>2021-12-28T17:11:25+00:00</time>
        <ele>1566.0</ele>
      </trkpt>
      <trkpt lat="44.688225" lon="6.164741">
        <time>2021-12-28T17:11:26+00:00</time>
        <ele>1566.0</ele>
      </trkpt>
      <trkpt lat="44.688231" lon="6.164698">
        <time>2021-12-28T17:11:28+00:00</time>
        <ele>1566.0</ele>
      </trkpt>
      <trkpt lat="44.688246" lon="6.164688">
        <time>2021-12-28T17:11:30+00:00</time>
        <ele>1566.0</ele>
      </trkpt>
      <trkpt lat="44.688252" lon="6.164674">
        <time>2021-12-28T17:11:32+00:00</time>
        <ele>1566.0</ele>
      </trkpt>
      <trkpt lat="44.688235" lon="6.164702">
        <time>2021-12-28T17:11:37+00:00</time>
        <ele>1566.0</ele>
      </trkpt>
      <trkpt lat="44.688244" lon="6.164668">
        <time>2021-12-28T17:11:41+00:00</time>
        <ele>1566.0</ele>
      </trkpt>
      <trkpt lat="44.688236" lon="6.164671">
        <time>2021-12-28T17:11:45+00:00</time>
        <ele>1566.0</ele>
      </trkpt>
      <trkpt lat="44.688236" lon="6.164685">
        <time>2021-12-28T17:11:46+00:00</time>
        <ele>1566.0</ele>
      </trkpt>
      <trkpt lat="44.688208" lon="6.16471">
        <time>2021-12-28T17:11:48+00:00</time>
        <ele>1565.0</ele>
      </trkpt>
      <trkpt lat="44.688203" lon="6.164696">
        <time>2021-12-28T17:11:49+00:00</time>
        <ele>1565.0</ele>
      </trkpt>
      <trkpt lat="44.6882" lon="6.16468">
        <time>2021-12-28T17:11:50+00:00</time>
        <ele>1565.0</ele>
      </trkpt>
      <trkpt lat="44.688175" lon="6.16469">
        <time>2021-12-28T17:11:51+00:00</time>
        <ele>1565.0</ele>
      </trkpt>
      <trkpt lat="44.688161" lon="6.164701">
        <time>2021-12-28T17:11:57+00:00</time>
        <ele>1565.0</ele>
      </trkpt>
      <trkpt lat="44.688165" lon="6.164693">
        <time>2021-12-28T17:11:58+00:00</time>
        <ele>1565.0</ele>
      </trkpt>
      <trkpt lat="44.688171" lon="6.164673">
        <time>2021-12-28T17:12:00+00:00</time>
        <ele>1565.0</ele>
      </trkpt>
      <trkpt lat="44.688178" lon="6.164673">
        <time>2021-12-28T17:12:04+00:00</time>
        <ele>1565.0</ele>
      </trkpt>
      <trkpt lat="44.688196" lon="6.164529">
        <time>2021-12-28T17:12:13+00:00</time>
        <ele>1566.0</ele>
      </trkpt>
      <trkpt lat="44.688225" lon="6.164496">
        <time>2021-12-28T17:12:15+00:00</time>
        <ele>1566.0</ele>
      </trkpt>
      <trkpt lat="44.688255" lon="6.164473">
        <time>2021-12-28T17:12:19+00:00</time>
        <ele>1567.0</ele>
      </trkpt>
      <trkpt lat="44.688249" lon="6.164507">
        <time>2021-12-28T17:12:20+00:00</time>
        <ele>1567.0</ele>
      </trkpt>
      <trkpt lat="44.68826" lon="6.164584">
        <time>2021-12-28T17:12:25+00:00</time>
        <ele>1567.0</ele>
      </trkpt>
      <trkpt lat="44.688255" lon="6.164657">
        <time>2021-12-28T17:12:32+00:00</time>
        <ele>1567.0</ele>
      </trkpt>
      <trkpt lat="44.688297" lon="6.164643">
        <time>2021-12-28T17:12:40+00:00</time>
        <ele>1567.0</ele>
      </trkpt>
      <trkpt lat="44.688296" lon="6.164635">
        <time>2021-12-28T17:12:45+00:00</time>
        <ele>1567.0</ele>
      </trkpt>
      <trkpt lat="44.688296" lon="6.164635">
        <time>2021-12-28T17:12:49+00:00</time>
        <ele>1567.0</ele>
      </trkpt>
      <trkpt lat="44.688271" lon="6.164574">
        <time>2021-12-28T17:13:14+00:00</time>
        <ele>1567.0</ele>
      </trkpt>
      <trkpt lat="44.688249" lon="6.164624">
        <time>2021-12-28T17:13:17+00:00</time>
        <ele>1566.0</ele>
      </trkpt>
      <trkpt lat="44.688222" lon="6.164688">
        <time>2021-12-28T17:13:19+00:00</time>
        <ele>1566.0</ele>
      </trkpt>
      <trkpt lat="44.688225" lon="6.164672">
        <time>2021-12-28T17:13:21+00:00</time>
        <ele>1566.0</ele>
      </trkpt>
      <trkpt lat="44.688204" lon="6.164616">
        <time>2021-12-28T17:13:26+00:00</time>
        <ele>1566.0</ele>
      </trkpt>
      <trkpt lat="44.688396" lon="6.164486">
        <time>2021-12-28T17:13:35+00:00</time>
        <ele>1569.0</ele>
      </trkpt>
      <trkpt lat="44.688395" lon="6.164465">
        <time>2021-12-28T17:13:39+00:00</time>
        <ele>1569.0</ele>
      </trkpt>
      <trkpt lat="44.688363" lon="6.164499">
        <time>2021-12-28T17:13:40+00:00</time>
        <ele>1569.0</ele>
      </trkpt>
      <trkpt lat="44.68843" lon="6.164383">
        <time>2021-12-28T17:13:47+00:00</time>
        <ele>1570.0</ele>
      </trkpt>
      <trkpt lat="44.688443" lon="6.164294">
        <time>2021-12-28T17:13:52+00:00</time>
        <ele>1570.0</ele>
      </trkpt>
      <trkpt lat="44.688442" lon="6.164295">
        <time>2021-12-28T17:13:53+00:00</time>
        <ele>1570.0</ele>
      </trkpt>
      <trkpt lat="44.688464" lon="6.164203">
        <time>2021-12-28T17:13:56+00:00</time>
        <ele>1571.0</ele>
      </trkpt>
      <trkpt lat="44.688448" lon="6.164227">
        <time>2021-12-28T17:14:00+00:00</time>
        <ele>1571.0</ele>
      </trkpt>
      <trkpt lat="44.68841" lon="6.164301">
        <time>2021-12-28T17:14:07+00:00</time>
        <ele>1570.0</ele>
      </trkpt>
      <trkpt lat="44.688402" lon="6.164328">
        <time>2021-12-28T17:14:09+00:00</time>
        <ele>1570.0</ele>
      </trkpt>
      <trkpt lat="44.688419" lon="6.16432">
        <time>2021-12-28T17:14:12+00:00</time>
        <ele>1570.0</ele>
      </trkpt>
      <trkpt lat="44.688436" lon="6.164319">
        <time>2021-12-28T17:14:14+00:00</time>
        <ele>1570.0</ele>
      </trkpt>
      <trkpt lat="44.688465" lon="6.164305">
        <time>2021-12-28T17:14:16+00:00</time>
        <ele>1571.0</ele>
      </trkpt>
      <trkpt lat="44.688511" lon="6.164264">
        <time>2021-12-28T17:14:19+00:00</time>
        <ele>1571.0</ele>
      </trkpt>
      <trkpt lat="44.688514" lon="6.164303">
        <time>2021-12-28T17:14:23+00:00</time>
        <ele>1571.0</ele>
      </trkpt>
      <trkpt lat="44.688511" lon="6.164315">
        <time>2021-12-28T17:14:25+00:00</time>
        <ele>1571.0</ele>
      </trkpt>
      <trkpt lat="44.6885" lon="6.164335">
        <time>2021-12-28T17:14:28+00:00</time>
        <ele>1571.0</ele>
      </trkpt>
      <trkpt lat="44.688457" lon="6.164358">
        <time>2021-12-28T17:14:31+00:00</time>
        <ele>1570.0</ele>
      </trkpt>
      <trkpt lat="44.688416" lon="6.1644">
        <time>2021-12-28T17:14:33+00:00</time>
        <ele>1569.0</ele>
      </trkpt>
      <trkpt lat="44.688337" lon="6.164532">
        <time>2021-12-28T17:14:36+00:00</time>
        <ele>1568.0</ele>
      </trkpt>
      <trkpt lat="44.688308" lon="6.164569">
        <time>2021-12-28T17:14:41+00:00</time>
        <ele>1568.0</ele>
      </trkpt>
      <trkpt lat="44.688332" lon="6.164561">
        <time>2021-12-28T17:14:44+00:00</time>
        <ele>1568.0</ele>
      </trkpt>
      <trkpt lat="44.688314" lon="6.164596">
        <time>2021-12-28T17:14:46+00:00</time>
        <ele>1568.0</ele>
      </trkpt>
      <trkpt lat="44.688308" lon="6.164612">
        <time>2021-12-28T17:14:47+00:00</time>
        <ele>1568.0</ele>
      </trkpt>
      <trkpt lat="44.688321" lon="6.164587">
        <time>2021-12-28T17:14:49+00:00</time>
        <ele>1568.0</ele>
      </trkpt>
      <trkpt lat="44.688323" lon="6.164565">
        <time>2021-12-28T17:14:50+00:00</time>
        <ele>1568.0</ele>
      </trkpt>
      <trkpt lat="44.688278" lon="6.16458">
        <time>2021-12-28T17:14:54+00:00</time>
        <ele>1567.0</ele>
      </trkpt>
      <trkpt lat="44.688251" lon="6.164591">
        <time>2021-12-28T17:14:56+00:00</time>
        <ele>1567.0</ele>
      </trkpt>
      <trkpt lat="44.688248" lon="6.164601">
        <time>2021-12-28T17:14:58+00:00</time>
        <ele>1567.0</ele>
      </trkpt>
      <trkpt lat="44.688261" lon="6.164588">
        <time>2021-12-28T17:15:01+00:00</time>
        <ele>1567.0</ele>
      </trkpt>
      <trkpt lat="44.688265" lon="6.164589">
        <time>2021-12-28T17:15:04+00:00</time>
        <ele>1567.0</ele>
      </trkpt>
      <trkpt lat="44.688281" lon="6.164584">
        <time>2021-12-28T17:15:08+00:00</time>
        <ele>1567.0</ele>
      </trkpt>
      <trkpt lat="44.68829" lon="6.164557">
        <time>2021-12-28T17:15:09+00:00</time>
        <ele>1567.0</ele>
      </trkpt>
      <trkpt lat="44.688305" lon="6.164552">
        <time>2021-12-28T17:15:11+00:00</time>
        <ele>1568.0</ele>
      </trkpt>
      <trkpt lat="44.688299" lon="6.164557">
        <time>2021-12-28T17:15:12+00:00</time>
        <ele>1568.0</ele>
      </trkpt>
      <trkpt lat="44.688303" lon="6.164598">
        <time>2021-12-28T17:15:15+00:00</time>
        <ele>1568.0</ele>
      </trkpt>
      <trkpt lat="44.688307" lon="6.164622">
        <time>2021-12-28T17:15:16+00:00</time>
        <ele>1568.0</ele>
      </trkpt>
      <trkpt lat="44.688315" lon="6.164653">
        <time>2021-12-28T17:15:18+00:00</time>
        <ele>1568.0</ele>
      </trkpt>
      <trkpt lat="44.688319" lon="6.164701">
        <time>2021-12-28T17:15:20+00:00</time>
        <ele>1568.0</ele>
      </trkpt>
      <trkpt lat="44.688323" lon="6.164721">
        <time>2021-12-28T17:15:22+00:00</time>
        <ele>1568.0</ele>
      </trkpt>
      <trkpt lat="44.68829" lon="6.164814">
        <time>2021-12-28T17:15:26+00:00</time>
        <ele>1567.0</ele>
      </trkpt>
      <trkpt lat="44.688275" lon="6.164826">
        <time>2021-12-28T17:15:27+00:00</time>
        <ele>1567.0</ele>
      </trkpt>
      <trkpt lat="44.688211" lon="6.164896">
        <time>2021-12-28T17:15:34+00:00</time>
        <ele>1566.0</ele>
      </trkpt>
      <trkpt lat="44.688141" lon="6.165021">
        <time>2021-12-28T17:15:39+00:00</time>
        <ele>1564.0</ele>
      </trkpt>
      <trkpt lat="44.688118" lon="6.164977">
        <time>2021-12-28T17:15:43+00:00</time>
        <ele>1564.0</ele>
      </trkpt>
      <trkpt lat="44.688126" lon="6.164915">
        <time>2021-12-28T17:15:45+00:00</time>
        <ele>1564.0</ele>
      </trkpt>
      <trkpt lat="44.688133" lon="6.164872">
        <time>2021-12-28T17:15:46+00:00</time>
        <ele>1564.0</ele>
      </trkpt>
      <trkpt lat="44.688156" lon="6.164795">
        <time>2021-12-28T17:15:51+00:00</time>
        <ele>1564.0</ele>
      </trkpt>
      <trkpt lat="44.688163" lon="6.164742">
        <time>2021-12-28T17:15:53+00:00</time>
        <ele>1564.0</ele>
      </trkpt>
      <trkpt lat="44.688163" lon="6.164723">
        <time>2021-12-28T17:15:54+00:00</time>
        <ele>1564.0</ele>
      </trkpt>
      <trkpt lat="44.68817" lon="6.1647">
        <time>2021-12-28T17:15:56+00:00</time>
        <ele>1565.0</ele>
      </trkpt>
      <trkpt lat="44.688176" lon="6.164694">
        <time>2021-12-28T17:15:57+00:00</time>
        <ele>1565.0</ele>
      </trkpt>
      <trkpt lat="44.688194" lon="6.164657">
        <time>2021-12-28T17:15:59+00:00</time>
        <ele>1565.0</ele>
      </trkpt>
      <trkpt lat="44.688233" lon="6.164643">
        <time>2021-12-28T17:16:03+00:00</time>
        <ele>1566.0</ele>
      </trkpt>
      <trkpt lat="44.688268" lon="6.164624">
        <time>2021-12-28T17:16:09+00:00</time>
        <ele>1567.0</ele>
      </trkpt>
      <trkpt lat="44.688268" lon="6.164627">
        <time>2021-12-28T17:16:11+00:00</time>
        <ele>1567.0</ele>
      </trkpt>
      <trkpt lat="44.688271" lon="6.164603">
        <time>2021-12-28T17:16:14+00:00</time>
        <ele>1567.0</ele>
      </trkpt>
      <trkpt lat="44.688279" lon="6.164587">
        <time>2021-12-28T17:16:17+00:00</time>
        <ele>1567.0</ele>
      </trkpt>
      <trkpt lat="44.688278" lon="6.16458">
        <time>2021-12-28T17:16:18+00:00</time>
        <ele>1567.0</ele>
      </trkpt>
      <trkpt lat="44.688264" lon="6.164569">
        <time>2021-12-28T17:16:20+00:00</time>
        <ele>1567.0</ele>
      </trkpt>
      <trkpt lat="44.688247" lon="6.164559">
        <time>2021-12-28T17:16:23+00:00</time>
        <ele>1567.0</ele>
      </trkpt>
      <trkpt lat="44.688259" lon="6.164586">
        <time>2021-12-28T17:16:30+00:00</time>
        <ele>1567.0</ele>
      </trkpt>
      <trkpt lat="44.688256" lon="6.164584">
        <time>2021-12-28T17:16:32+00:00</time>
        <ele>1567.0</ele>
      </trkpt>
      <trkpt lat="44.688252" lon="6.164584">
        <time>2021-12-28T17:16:34+00:00</time>
        <ele>1567.0</ele>
      </trkpt>
      <trkpt lat="44.688249" lon="6.164596">
        <time>2021-12-28T17:16:36+00:00</time>
        <ele>1567.0</ele>
      </trkpt>
      <trkpt lat="44.688249" lon="6.164604">
        <time>2021-12-28T17:16:37+00:00</time>
        <ele>1567.0</ele>
      </trkpt>
      <trkpt lat="44.688251" lon="6.164609">
        <time>2021-12-28T17:16:39+00:00</time>
        <ele>1567.0</ele>
      </trkpt>
      <trkpt lat="44.688266" lon="6.164592">
        <time>2021-12-28T17:16:42+00:00</time>
        <ele>1567.0</ele>
      </trkpt>
      <trkpt lat="44.688277" lon="6.164595">
        <time>2021-12-28T17:16:44+00:00</time>
        <ele>1567.0</ele>
      </trkpt>
      <trkpt lat="44.688285" lon="6.164587">
        <time>2021-12-28T17:16:46+00:00</time>
        <ele>1567.0</ele>
      </trkpt>
      <trkpt lat="44.688294" lon="6.164587">
        <time>2021-12-28T17:16:48+00:00</time>
        <ele>1567.0</ele>
      </trkpt>
      <trkpt lat="44.688302" lon="6.16462">
        <time>2021-12-28T17:16:50+00:00</time>
        <ele>1568.0</ele>
      </trkpt>
      <trkpt lat="44.688351" lon="6.164727">
        <time>2021-12-28T17:16:56+00:00</time>
        <ele>1568.0</ele>
      </trkpt>
      <trkpt lat="44.688337" lon="6.164684">
        <time>2021-12-28T17:16:58+00:00</time>
        <ele>1568.0</ele>
      </trkpt>
      <trkpt lat="44.688316" lon="6.164607">
        <time>2021-12-28T17:17:00+00:00</time>
        <ele>1568.0</ele>
      </trkpt>
      <trkpt lat="44.68831" lon="6.164611">
        <time>2021-12-28T17:17:01+00:00</time>
        <ele>1568.0</ele>
      </trkpt>
      <trkpt lat="44.688309" lon="6.164601">
        <time>2021-12-28T17:17:02+00:00</time>
        <ele>1568.0</ele>
      </trkpt>
      <trkpt lat="44.68831" lon="6.164587">
        <time>2021-12-28T17:17:03+00:00</time>
        <ele>1568.0</ele>
      </trkpt>
      <trkpt lat="44.688311" lon="6.164584">
        <time>2021-12-28T17:17:04+00:00</time>
        <ele>1568.0</ele>
      </trkpt>
      <trkpt lat="44.688296" lon="6.164618">
        <time>2021-12-28T17:17:07+00:00</time>
        <ele>1567.0</ele>
      </trkpt>
      <trkpt lat="44.688301" lon="6.164617">
        <time>2021-12-28T17:17:11+00:00</time>
        <ele>1567.0</ele>
      </trkpt>
      <trkpt lat="44.688301" lon="6.16461">
        <time>2021-12-28T17:17:12+00:00</time>
        <ele>1567.0</ele>
      </trkpt>
      <trkpt lat="44.688301" lon="6.164598">
        <time>2021-12-28T17:17:16+00:00</time>
        <ele>1568.0</ele>
      </trkpt>
      <trkpt lat="44.688303" lon="6.164614">
        <time>2021-12-28T17:17:20+00:00</time>
        <ele>1568.0</ele>
      </trkpt>
      <trkpt lat="44.688305" lon="6.164608">
        <time>2021-12-28T17:17:22+00:00</time>
        <ele>1568.0</ele>
      </trkpt>
      <trkpt lat="44.688298" lon="6.164628">
        <time>2021-12-28T17:17:24+00:00</time>
        <ele>1567.0</ele>
      </trkpt>
      <trkpt lat="44.688278" lon="6.164674">
        <time>2021-12-28T17:17:26+00:00</time>
        <ele>1567.0</ele>
      </trkpt>
      <trkpt lat="44.688278" lon="6.164674">
        <time>2021-12-28T17:17:30+00:00</time>
        <ele>1567.0</ele>
      </trkpt>
      <trkpt lat="44.688252" lon="6.164715">
        <time>2021-12-28T17:17:32+00:00</time>
        <ele>1566.0</ele>
      </trkpt>
      <trkpt lat="44.688243" lon="6.16473">
        <time>2021-12-28T17:17:33+00:00</time>
        <ele>1566.0</ele>
      </trkpt>
      <trkpt lat="44.688225" lon="6.164753">
        <time>2021-12-28T17:17:36+00:00</time>
        <ele>1566.0</ele>
      </trkpt>
      <trkpt lat="44.688213" lon="6.164773">
        <time>2021-12-28T17:17:37+00:00</time>
        <ele>1566.0</ele>
      </trkpt>
      <trkpt lat="44.688181" lon="6.164814">
        <time>2021-12-28T17:17:38+00:00</time>
        <ele>1565.0</ele>
      </trkpt>
      <trkpt lat="44.68814" lon="6.164865">
        <time>2021-12-28T17:17:39+00:00</time>
        <ele>1564.0</ele>
      </trkpt>
      <trkpt lat="44.688133" lon="6.164885">
        <time>2021-12-28T17:17:40+00:00</time>
        <ele>1564.0</ele>
      </trkpt>
      <trkpt lat="44.688151" lon="6.164869">
        <time>2021-12-28T17:17:42+00:00</time>
        <ele>1564.0</ele>
      </trkpt>
      <trkpt lat="44.688195" lon="6.164836">
        <time>2021-12-28T17:17:45+00:00</time>
        <ele>1565.0</ele>
      </trkpt>
      <trkpt lat="44.688227" lon="6.164737">
        <time>2021-12-28T17:17:53+00:00</time>
        <ele>1566.0</ele>
      </trkpt>
      <trkpt lat="44.688234" lon="6.164722">
        <time>2021-12-28T17:17:55+00:00</time>
        <ele>1566.0</ele>
      </trkpt>
      <trkpt lat="44.688241" lon="6.164718">
        <time>2021-12-28T17:17:56+00:00</time>
        <ele>1566.0</ele>
      </trkpt>
      <trkpt lat="44.688246" lon="6.164715">
        <time>2021-12-28T17:17:57+00:00</time>
        <ele>1566.0</ele>
      </trkpt>
      <trkpt lat="44.68826" lon="6.164693">
        <time>2021-12-28T17:17:59+00:00</time>
        <ele>1567.0</ele>
      </trkpt>
      <trkpt lat="44.688274" lon="6.164661">
        <time>2021-12-28T17:18:02+00:00</time>
        <ele>1567.0</ele>
      </trkpt>
      <trkpt lat="44.688253" lon="6.164667">
        <time>2021-12-28T17:18:06+00:00</time>
        <ele>1566.0</ele>
      </trkpt>
      <trkpt lat="44.688255" lon="6.164651">
        <time>2021-12-28T17:18:07+00:00</time>
        <ele>1567.0</ele>
      </trkpt>
      <trkpt lat="44.68824" lon="6.164652">
        <time>2021-12-28T17:18:08+00:00</time>
        <ele>1566.0</ele>
      </trkpt>
      <trkpt lat="44.688212" lon="6.164675">
        <time>2021-12-28T17:18:12+00:00</time>
        <ele>1566.0</ele>
      </trkpt>
      <trkpt lat="44.688201" lon="6.164687">
        <time>2021-12-28T17:18:17+00:00</time>
        <ele>1565.0</ele>
      </trkpt>
      <trkpt lat="44.688212" lon="6.164672">
        <time>2021-12-28T17:18:19+00:00</time>
        <ele>1566.0</ele>
      </trkpt>
      <trkpt lat="44.688222" lon="6.16471">
        <time>2021-12-28T17:18:29+00:00</time>
        <ele>1566.0</ele>
      </trkpt>
      <trkpt lat="44.688219" lon="6.16472">
        <time>2021-12-28T17:18:32+00:00</time>
        <ele>1566.0</ele>
      </trkpt>
      <trkpt lat="44.688209" lon="6.164726">
        <time>2021-12-28T17:18:33+00:00</time>
        <ele>1565.0</ele>
      </trkpt>
      <trkpt lat="44.688222" lon="6.164721">
        <time>2021-12-28T17:18:35+00:00</time>
        <ele>1566.0</ele>
      </trkpt>
      <trkpt lat="44.688228" lon="6.16472">
        <time>2021-12-28T17:18:36+00:00</time>
        <ele>1566.0</ele>
      </trkpt>
      <trkpt lat="44.688212" lon="6.164706">
        <time>2021-12-28T17:18:37+00:00</time>
        <ele>1566.0</ele>
      </trkpt>
      <trkpt lat="44.688211" lon="6.164768">
        <time>2021-12-28T17:18:38+00:00</time>
        <ele>1566.0</ele>
      </trkpt>
      <trkpt lat="44.688211" lon="6.164762">
        <time>2021-12-28T17:18:39+00:00</time>
        <ele>1566.0</ele>
      </trkpt>
      <trkpt lat="44.688216" lon="6.164718">
        <time>2021-12-28T17:18:42+00:00</time>
        <ele>1566.0</ele>
      </trkpt>
      <trkpt lat="44.68822" lon="6.164719">
        <time>2021-12-28T17:18:48+00:00</time>
        <ele>1566.0</ele>
      </trkpt>
      <trkpt lat="44.688181" lon="6.164663">
        <time>2021-12-28T17:18:54+00:00</time>
        <ele>1565.0</ele>
      </trkpt>
      <trkpt lat="44.68824" lon="6.164676">
        <time>2021-12-28T17:19:00+00:00</time>
        <ele>1566.0</ele>
      </trkpt>
      <trkpt lat="44.688227" lon="6.164723">
        <time>2021-12-28T17:19:02+00:00</time>
        <ele>1566.0</ele>
      </trkpt>
      <trkpt lat="44.688227" lon="6.16475">
        <time>2021-12-28T17:19:04+00:00</time>
        <ele>1566.0</ele>
      </trkpt>
      <trkpt lat="44.688246" lon="6.164747">
        <time>2021-12-28T17:19:10+00:00</time>
        <ele>1566.0</ele>
      </trkpt>
      <trkpt lat="44.688249" lon="6.164779">
        <time>2021-12-28T17:19:15+00:00</time>
        <ele>1566.0</ele>
      </trkpt>
      <trkpt lat="44.688279" lon="6.164763">
        <time>2021-12-28T17:19:19+00:00</time>
        <ele>1567.0</ele>
      </trkpt>
      <trkpt lat="44.688291" lon="6.164701">
        <time>2021-12-28T17:19:29+00:00</time>
        <ele>1567.0</ele>
      </trkpt>
      <trkpt lat="44.688283" lon="6.164733">
        <time>2021-12-28T17:19:31+00:00</time>
        <ele>1567.0</ele>
      </trkpt>
      <trkpt lat="44.688253" lon="6.164723">
        <time>2021-12-28T17:19:37+00:00</time>
        <ele>1566.0</ele>
      </trkpt>
      <trkpt lat="44.688254" lon="6.164663">
        <time>2021-12-28T17:19:39+00:00</time>
        <ele>1567.0</ele>
      </trkpt>
      <trkpt lat="44.68825" lon="6.164595">
        <time>2021-12-28T17:19:49+00:00</time>
        <ele>1567.0</ele>
      </trkpt>
      <trkpt lat="44.688256" lon="6.164607">
        <time>2021-12-28T17:19:52+00:00</time>
        <ele>1567.0</ele>
      </trkpt>
      <trkpt lat="44.688297" lon="6.164616">
        <time>2021-12-28T17:19:58+00:00</time>
        <ele>1567.0</ele>
      </trkpt>
      <trkpt lat="44.688309" lon="6.164539">
        <time>2021-12-28T17:20:05+00:00</time>
        <ele>1568.0</ele>
      </trkpt>
      <trkpt lat="44.688326" lon="6.164485">
        <time>2021-12-28T17:20:08+00:00</time>
        <ele>1568.0</ele>
      </trkpt>
      <trkpt lat="44.688331" lon="6.164433">
        <time>2021-12-28T17:20:10+00:00</time>
        <ele>1568.0</ele>
      </trkpt>
      <trkpt lat="44.688334" lon="6.164409">
        <time>2021-12-28T17:20:13+00:00</time>
        <ele>1568.0</ele>
      </trkpt>
      <trkpt lat="44.688325" lon="6.164412">
        <time>2021-12-28T17:20:17+00:00</time>
        <ele>1568.0</ele>
      </trkpt>
      <trkpt lat="44.68834" lon="6.164394">
        <time>2021-12-28T17:20:21+00:00</time>
        <ele>1568.0</ele>
      </trkpt>
      <trkpt lat="44.688263" lon="6.164447">
        <time>2021-12-28T17:20:30+00:00</time>
        <ele>1567.0</ele>
      </trkpt>
      <trkpt lat="44.688243" lon="6.164488">
        <time>2021-12-28T17:20:32+00:00</time>
        <ele>1567.0</ele>
      </trkpt>
      <trkpt lat="44.688221" lon="6.164508">
        <time>2021-12-28T17:20:35+00:00</time>
        <ele>1566.0</ele>
      </trkpt>
      <trkpt lat="44.688184" lon="6.164533">
        <time>2021-12-28T17:20:39+00:00</time>
        <ele>1566.0</ele>
      </trkpt>
      <trkpt lat="44.688187" lon="6.164527">
        <time>2021-12-28T17:20:41+00:00</time>
        <ele>1566.0</ele>
      </trkpt>
      <trkpt lat="44.688197" lon="6.164504">
        <time>2021-12-28T17:20:42+00:00</time>
        <ele>1566.0</ele>
      </trkpt>
      <trkpt lat="44.688211" lon="6.164497">
        <time>2021-12-28T17:20:43+00:00</time>
        <ele>1566.0</ele>
      </trkpt>
      <trkpt lat="44.688234" lon="6.164572">
        <time>2021-12-28T17:20:46+00:00</time>
        <ele>1566.0</ele>
      </trkpt>
      <trkpt lat="44.688245" lon="6.164683">
        <time>2021-12-28T17:20:48+00:00</time>
        <ele>1566.0</ele>
      </trkpt>
      <trkpt lat="44.688249" lon="6.164819">
        <time>2021-12-28T17:20:51+00:00</time>
        <ele>1566.0</ele>
      </trkpt>
      <trkpt lat="44.688253" lon="6.164846">
        <time>2021-12-28T17:20:54+00:00</time>
        <ele>1566.0</ele>
      </trkpt>
      <trkpt lat="44.688235" lon="6.1648">
        <time>2021-12-28T17:20:57+00:00</time>
        <ele>1566.0</ele>
      </trkpt>
      <trkpt lat="44.68824" lon="6.1648">
        <time>2021-12-28T17:20:58+00:00</time>
        <ele>1566.0</ele>
      </trkpt>
      <trkpt lat="44.688249" lon="6.164797">
        <time>2021-12-28T17:20:59+00:00</time>
        <ele>1566.0</ele>
      </trkpt>
      <trkpt lat="44.688257" lon="6.164772">
        <time>2021-12-28T17:21:00+00:00</time>
        <ele>1566.0</ele>
      </trkpt>
      <trkpt lat="44.688263" lon="6.164738">
        <time>2021-12-28T17:21:01+00:00</time>
        <ele>1567.0</ele>
      </trkpt>
      <trkpt lat="44.688274" lon="6.164644">
        <time>2021-12-28T17:21:04+00:00</time>
        <ele>1567.0</ele>
      </trkpt>
      <trkpt lat="44.688278" lon="6.164622">
        <time>2021-12-28T17:21:05+00:00</time>
        <ele>1567.0</ele>
      </trkpt>
      <trkpt lat="44.688287" lon="6.164546">
        <time>2021-12-28T17:21:09+00:00</time>
        <ele>1567.0</ele>
      </trkpt>
      <trkpt lat="44.688293" lon="6.164503">
        <time>2021-12-28T17:21:11+00:00</time>
        <ele>1567.0</ele>
      </trkpt>
      <trkpt lat="44.688293" lon="6.164484">
        <time>2021-12-28T17:21:13+00:00</time>
        <ele>1567.0</ele>
      </trkpt>
      <trkpt lat="44.688298" lon="6.164457">
        <time>2021-12-28T17:21:17+00:00</time>
        <ele>1568.0</ele>
      </trkpt>
      <trkpt lat="44.688303" lon="6.164453">
        <time>2021-12-28T17:21:18+00:00</time>
        <ele>1568.0</ele>
      </trkpt>
      <trkpt lat="44.688317" lon="6.164488">
        <time>2021-12-28T17:21:22+00:00</time>
        <ele>1568.0</ele>
      </trkpt>
      <trkpt lat="44.688319" lon="6.164488">
        <time>2021-12-28T17:21:23+00:00</time>
        <ele>1568.0</ele>
      </trkpt>
      <trkpt lat="44.688306" lon="6.16453">
        <time>2021-12-28T17:21:26+00:00</time>
        <ele>1568.0</ele>
      </trkpt>
      <trkpt lat="44.688305" lon="6.164565">
        <time>2021-12-28T17:21:28+00:00</time>
        <ele>1568.0</ele>
      </trkpt>
      <trkpt lat="44.688309" lon="6.164565">
        <time>2021-12-28T17:21:31+00:00</time>
        <ele>1568.0</ele>
      </trkpt>
      <trkpt lat="44.688303" lon="6.164562">
        <time>2021-12-28T17:21:34+00:00</time>
        <ele>1568.0</ele>
      </trkpt>
      <trkpt lat="44.688304" lon="6.164566">
        <time>2021-12-28T17:21:38+00:00</time>
        <ele>1568.0</ele>
      </trkpt>
      <trkpt lat="44.688296" lon="6.164572">
        <time>2021-12-28T17:21:44+00:00</time>
        <ele>1567.0</ele>
      </trkpt>
      <trkpt lat="44.6883" lon="6.164568">
        <time>2021-12-28T17:21:45+00:00</time>
        <ele>1568.0</ele>
      </trkpt>
      <trkpt lat="44.688314" lon="6.16457">
        <time>2021-12-28T17:21:47+00:00</time>
        <ele>1568.0</ele>
      </trkpt>
      <trkpt lat="44.688306" lon="6.164615">
        <time>2021-12-28T17:21:50+00:00</time>
        <ele>1568.0</ele>
      </trkpt>
      <trkpt lat="44.688282" lon="6.164699">
        <time>2021-12-28T17:21:57+00:00</time>
        <ele>1567.0</ele>
      </trkpt>
      <trkpt lat="44.688275" lon="6.164727">
        <time>2021-12-28T17:21:58+00:00</time>
        <ele>1567.0</ele>
      </trkpt>
      <trkpt lat="44.68826" lon="6.164743">
        <time>2021-12-28T17:22:00+00:00</time>
        <ele>1567.0</ele>
      </trkpt>
      <trkpt lat="44.688261" lon="6.16475">
        <time>2021-12-28T17:22:02+00:00</time>
        <ele>1567.0</ele>
      </trkpt>
      <trkpt lat="44.688267" lon="6.164775">
        <time>2021-12-28T17:22:03+00:00</time>
        <ele>1567.0</ele>
      </trkpt>
      <trkpt lat="44.68827" lon="6.164797">
        <time>2021-12-28T17:22:05+00:00</time>
        <ele>1567.0</ele>
      </trkpt>
      <trkpt lat="44.688269" lon="6.164778">
        <time>2021-12-28T17:22:06+00:00</time>
        <ele>1567.0</ele>
      </trkpt>
      <trkpt lat="44.688267" lon="6.164779">
        <time>2021-12-28T17:22:07+00:00</time>
        <ele>1567.0</ele>
      </trkpt>
      <trkpt lat="44.688261" lon="6.164791">
        <time>2021-12-28T17:22:09+00:00</time>
        <ele>1567.0</ele>
      </trkpt>
      <trkpt lat="44.688259" lon="6.16482">
        <time>2021-12-28T17:22:12+00:00</time>
        <ele>1567.0</ele>
      </trkpt>
      <trkpt lat="44.688244" lon="6.164834">
        <time>2021-12-28T17:22:15+00:00</time>
        <ele>1566.0</ele>
      </trkpt>
      <trkpt lat="44.688243" lon="6.164834">
        <time>2021-12-28T17:22:16+00:00</time>
        <ele>1566.0</ele>
      </trkpt>
      <trkpt lat="44.688241" lon="6.16484">
        <time>2021-12-28T17:22:17+00:00</time>
        <ele>1566.0</ele>
      </trkpt>
      <trkpt lat="44.688249" lon="6.16485">
        <time>2021-12-28T17:22:21+00:00</time>
        <ele>1566.0</ele>
      </trkpt>
      <trkpt lat="44.68827" lon="6.164678">
        <time>2021-12-28T17:22:23+00:00</time>
        <ele>1567.0</ele>
      </trkpt>
      <trkpt lat="44.688277" lon="6.164569">
        <time>2021-12-28T17:22:24+00:00</time>
        <ele>1567.0</ele>
      </trkpt>
      <trkpt lat="44.688332" lon="6.164433">
        <time>2021-12-28T17:22:26+00:00</time>
        <ele>1568.0</ele>
      </trkpt>
      <trkpt lat="44.688344" lon="6.164459">
        <time>2021-12-28T17:22:27+00:00</time>
        <ele>1568.0</ele>
      </trkpt>
      <trkpt lat="44.68831" lon="6.164411">
        <time>2021-12-28T17:22:30+00:00</time>
        <ele>1568.0</ele>
      </trkpt>
      <trkpt lat="44.688286" lon="6.164396">
        <time>2021-12-28T17:22:33+00:00</time>
        <ele>1568.0</ele>
      </trkpt>
      <trkpt lat="44.688281" lon="6.164379">
        <time>2021-12-28T17:22:34+00:00</time>
        <ele>1568.0</ele>
      </trkpt>
      <trkpt lat="44.688276" lon="6.164402">
        <time>2021-12-28T17:22:36+00:00</time>
        <ele>1568.0</ele>
      </trkpt>
      <trkpt lat="44.688276" lon="6.164424">
        <time>2021-12-28T17:22:37+00:00</time>
        <ele>1567.0</ele>
      </trkpt>
      <trkpt lat="44.68818" lon="6.16453">
        <time>2021-12-28T17:22:43+00:00</time>
        <ele>1565.0</ele>
      </trkpt>
      <trkpt lat="44.688201" lon="6.164494">
        <time>2021-12-28T17:22:48+00:00</time>
        <ele>1566.0</ele>
      </trkpt>
      <trkpt lat="44.688228" lon="6.164518">
        <time>2021-12-28T17:22:54+00:00</time>
        <ele>1566.0</ele>
      </trkpt>
      <trkpt lat="44.68822" lon="6.164548">
        <time>2021-12-28T17:22:56+00:00</time>
        <ele>1566.0</ele>
      </trkpt>
      <trkpt lat="44.68821" lon="6.164561">
        <time>2021-12-28T17:22:58+00:00</time>
        <ele>1566.0</ele>
      </trkpt>
      <trkpt lat="44.688214" lon="6.164578">
        <time>2021-12-28T17:23:01+00:00</time>
        <ele>1566.0</ele>
      </trkpt>
      <trkpt lat="44.688214" lon="6.164632">
        <time>2021-12-28T17:23:03+00:00</time>
        <ele>1566.0</ele>
      </trkpt>
      <trkpt lat="44.688214" lon="6.164687">
        <time>2021-12-28T17:23:06+00:00</time>
        <ele>1566.0</ele>
      </trkpt>
      <trkpt lat="44.688213" lon="6.164712">
        <time>2021-12-28T17:23:08+00:00</time>
        <ele>1566.0</ele>
      </trkpt>
      <trkpt lat="44.688214" lon="6.164736">
        <time>2021-12-28T17:23:12+00:00</time>
        <ele>1566.0</ele>
      </trkpt>
      <trkpt lat="44.688218" lon="6.164774">
        <time>2021-12-28T17:23:14+00:00</time>
        <ele>1566.0</ele>
      </trkpt>
      <trkpt lat="44.688227" lon="6.164772">
        <time>2021-12-28T17:23:15+00:00</time>
        <ele>1566.0</ele>
      </trkpt>
      <trkpt lat="44.688248" lon="6.164751">
        <time>2021-12-28T17:23:16+00:00</time>
        <ele>1566.0</ele>
      </trkpt>
      <trkpt lat="44.688293" lon="6.164681">
        <time>2021-12-28T17:23:21+00:00</time>
        <ele>1567.0</ele>
      </trkpt>
      <trkpt lat="44.688327" lon="6.164626">
        <time>2021-12-28T17:23:23+00:00</time>
        <ele>1568.0</ele>
      </trkpt>
      <trkpt lat="44.688338" lon="6.164603">
        <time>2021-12-28T17:23:24+00:00</time>
        <ele>1568.0</ele>
      </trkpt>
      <trkpt lat="44.688281" lon="6.164476">
        <time>2021-12-28T17:23:33+00:00</time>
        <ele>1567.0</ele>
      </trkpt>
      <trkpt lat="44.688318" lon="6.164408">
        <time>2021-12-28T17:23:47+00:00</time>
        <ele>1568.0</ele>
      </trkpt>
      <trkpt lat="44.688306" lon="6.164517">
        <time>2021-12-28T17:24:01+00:00</time>
        <ele>1568.0</ele>
      </trkpt>
      <trkpt lat="44.688243" lon="6.164619">
        <time>2021-12-28T17:24:03+00:00</time>
        <ele>1566.0</ele>
      </trkpt>
      <trkpt lat="44.688203" lon="6.164706">
        <time>2021-12-28T17:24:07+00:00</time>
        <ele>1565.0</ele>
      </trkpt>
      <trkpt lat="44.688204" lon="6.164752">
        <time>2021-12-28T17:24:12+00:00</time>
        <ele>1565.0</ele>
      </trkpt>
      <trkpt lat="44.688193" lon="6.164782">
        <time>2021-12-28T17:24:15+00:00</time>
        <ele>1565.0</ele>
      </trkpt>
      <trkpt lat="44.688208" lon="6.164734">
        <time>2021-12-28T17:24:19+00:00</time>
        <ele>1565.0</ele>
      </trkpt>
      <trkpt lat="44.688213" lon="6.164703">
        <time>2021-12-28T17:24:21+00:00</time>
        <ele>1566.0</ele>
      </trkpt>
      <trkpt lat="44.688229" lon="6.16464">
        <time>2021-12-28T17:24:25+00:00</time>
        <ele>1566.0</ele>
      </trkpt>
      <trkpt lat="44.688288" lon="6.164621">
        <time>2021-12-28T17:24:36+00:00</time>
        <ele>1567.0</ele>
      </trkpt>
      <trkpt lat="44.688289" lon="6.164609">
        <time>2021-12-28T17:24:38+00:00</time>
        <ele>1567.0</ele>
      </trkpt>
      <trkpt lat="44.688299" lon="6.164601">
        <time>2021-12-28T17:24:39+00:00</time>
        <ele>1567.0</ele>
      </trkpt>
      <trkpt lat="44.688289" lon="6.16461">
        <time>2021-12-28T17:24:41+00:00</time>
        <ele>1567.0</ele>
      </trkpt>
      <trkpt lat="44.688257" lon="6.164544">
        <time>2021-12-28T17:24:51+00:00</time>
        <ele>1567.0</ele>
      </trkpt>
      <trkpt lat="44.688323" lon="6.164512">
        <time>2021-12-28T17:25:05+00:00</time>
        <ele>1568.0</ele>
      </trkpt>
      <trkpt lat="44.688332" lon="6.164507">
        <time>2021-12-28T17:25:06+00:00</time>
        <ele>1568.0</ele>
      </trkpt>
      <trkpt lat="44.688341" lon="6.164549">
        <time>2021-12-28T17:25:11+00:00</time>
        <ele>1568.0</ele>
      </trkpt>
      <trkpt lat="44.688334" lon="6.164578">
        <time>2021-12-28T17:25:13+00:00</time>
        <ele>1568.0</ele>
      </trkpt>
      <trkpt lat="44.688335" lon="6.16459">
        <time>2021-12-28T17:25:14+00:00</time>
        <ele>1568.0</ele>
      </trkpt>
      <trkpt lat="44.688343" lon="6.164579">
        <time>2021-12-28T17:25:15+00:00</time>
        <ele>1568.0</ele>
      </trkpt>
      <trkpt lat="44.688348" lon="6.164574">
        <time>2021-12-28T17:25:17+00:00</time>
        <ele>1568.0</ele>
      </trkpt>
      <trkpt lat="44.688332" lon="6.164599">
        <time>2021-12-28T17:25:19+00:00</time>
        <ele>1568.0</ele>
      </trkpt>
      <trkpt lat="44.688333" lon="6.16458">
        <time>2021-12-28T17:25:20+00:00</time>
        <ele>1568.0</ele>
      </trkpt>
      <trkpt lat="44.688334" lon="6.164561">
        <time>2021-12-28T17:25:21+00:00</time>
        <ele>1568.0</ele>
      </trkpt>
      <trkpt lat="44.688324" lon="6.164554">
        <time>2021-12-28T17:25:23+00:00</time>
        <ele>1568.0</ele>
      </trkpt>
      <trkpt lat="44.688318" lon="6.164522">
        <time>2021-12-28T17:25:25+00:00</time>
        <ele>1568.0</ele>
      </trkpt>
      <trkpt lat="44.688311" lon="6.164525">
        <time>2021-12-28T17:25:26+00:00</time>
        <ele>1568.0</ele>
      </trkpt>
      <trkpt lat="44.6883" lon="6.164527">
        <time>2021-12-28T17:25:27+00:00</time>
        <ele>1568.0</ele>
      </trkpt>
      <trkpt lat="44.688294" lon="6.164532">
        <time>2021-12-28T17:25:28+00:00</time>
        <ele>1567.0</ele>
      </trkpt>
      <trkpt lat="44.688276" lon="6.164542">
        <time>2021-12-28T17:25:30+00:00</time>
        <ele>1567.0</ele>
      </trkpt>
      <trkpt lat="44.688254" lon="6.164514">
        <time>2021-12-28T17:25:34+00:00</time>
        <ele>1567.0</ele>
      </trkpt>
      <trkpt lat="44.688246" lon="6.164504">
        <time>2021-12-28T17:25:35+00:00</time>
        <ele>1567.0</ele>
      </trkpt>
      <trkpt lat="44.688229" lon="6.16451">
        <time>2021-12-28T17:25:38+00:00</time>
        <ele>1566.0</ele>
      </trkpt>
      <trkpt lat="44.688218" lon="6.164508">
        <time>2021-12-28T17:25:41+00:00</time>
        <ele>1566.0</ele>
      </trkpt>
      <trkpt lat="44.688223" lon="6.164496">
        <time>2021-12-28T17:25:43+00:00</time>
        <ele>1566.0</ele>
      </trkpt>
      <trkpt lat="44.688208" lon="6.164509">
        <time>2021-12-28T17:25:45+00:00</time>
        <ele>1566.0</ele>
      </trkpt>
      <trkpt lat="44.688202" lon="6.164518">
        <time>2021-12-28T17:25:46+00:00</time>
        <ele>1566.0</ele>
      </trkpt>
      <trkpt lat="44.688192" lon="6.164526">
        <time>2021-12-28T17:25:47+00:00</time>
        <ele>1566.0</ele>
      </trkpt>
      <trkpt lat="44.688178" lon="6.16456">
        <time>2021-12-28T17:25:49+00:00</time>
        <ele>1565.0</ele>
      </trkpt>
      <trkpt lat="44.688188" lon="6.164582">
        <time>2021-12-28T17:25:51+00:00</time>
        <ele>1565.0</ele>
      </trkpt>
      <trkpt lat="44.6882" lon="6.164591">
        <time>2021-12-28T17:25:55+00:00</time>
        <ele>1566.0</ele>
      </trkpt>
      <trkpt lat="44.688214" lon="6.164593">
        <time>2021-12-28T17:25:57+00:00</time>
        <ele>1566.0</ele>
      </trkpt>
      <trkpt lat="44.688222" lon="6.164592">
        <time>2021-12-28T17:25:58+00:00</time>
        <ele>1566.0</ele>
      </trkpt>
      <trkpt lat="44.688223" lon="6.164588">
        <time>2021-12-28T17:25:59+00:00</time>
        <ele>1566.0</ele>
      </trkpt>
      <trkpt lat="44.688228" lon="6.164578">
        <time>2021-12-28T17:26:00+00:00</time>
        <ele>1566.0</ele>
      </trkpt>
      <trkpt lat="44.688231" lon="6.164578">
        <time>2021-12-28T17:26:01+00:00</time>
        <ele>1566.0</ele>
      </trkpt>
      <trkpt lat="44.688241" lon="6.164594">
        <time>2021-12-28T17:26:02+00:00</time>
        <ele>1566.0</ele>
      </trkpt>
      <trkpt lat="44.688241" lon="6.164594">
        <time>2021-12-28T17:26:04+00:00</time>
        <ele>1566.0</ele>
      </trkpt>
      <trkpt lat="44.688241" lon="6.164599">
        <time>2021-12-28T17:26:07+00:00</time>
        <ele>1566.0</ele>
      </trkpt>
      <trkpt lat="44.688257" lon="6.16466">
        <time>2021-12-28T17:26:10+00:00</time>
        <ele>1567.0</ele>
      </trkpt>
      <trkpt lat="44.688259" lon="6.164659">
        <time>2021-12-28T17:26:13+00:00</time>
        <ele>1567.0</ele>
      </trkpt>
      <trkpt lat="44.68824" lon="6.164655">
        <time>2021-12-28T17:26:15+00:00</time>
        <ele>1566.0</ele>
      </trkpt>
      <trkpt lat="44.688176" lon="6.164585">
        <time>2021-12-28T17:26:20+00:00</time>
        <ele>1565.0</ele>
      </trkpt>
      <trkpt lat="44.688228" lon="6.164612">
        <time>2021-12-28T17:26:22+00:00</time>
        <ele>1566.0</ele>
      </trkpt>
      <trkpt lat="44.688241" lon="6.164617">
        <time>2021-12-28T17:26:25+00:00</time>
        <ele>1566.0</ele>
      </trkpt>
      <trkpt lat="44.688239" lon="6.164641">
        <time>2021-12-28T17:26:26+00:00</time>
        <ele>1566.0</ele>
      </trkpt>
      <trkpt lat="44.688239" lon="6.164672">
        <time>2021-12-28T17:26:27+00:00</time>
        <ele>1566.0</ele>
      </trkpt>
      <trkpt lat="44.688237" lon="6.164688">
        <time>2021-12-28T17:26:28+00:00</time>
        <ele>1566.0</ele>
      </trkpt>
      <trkpt lat="44.688256" lon="6.164623">
        <time>2021-12-28T17:26:32+00:00</time>
        <ele>1567.0</ele>
      </trkpt>
      <trkpt lat="44.688247" lon="6.164617">
        <time>2021-12-28T17:26:34+00:00</time>
        <ele>1566.0</ele>
      </trkpt>
      <trkpt lat="44.688239" lon="6.164655">
        <time>2021-12-28T17:26:36+00:00</time>
        <ele>1566.0</ele>
      </trkpt>
      <trkpt lat="44.6883" lon="6.164676">
        <time>2021-12-28T17:26:41+00:00</time>
        <ele>1567.0</ele>
      </trkpt>
      <trkpt lat="44.688308" lon="6.164632">
        <time>2021-12-28T17:26:46+00:00</time>
        <ele>1568.0</ele>
      </trkpt>
      <trkpt lat="44.688307" lon="6.164642">
        <time>2021-12-28T17:26:47+00:00</time>
        <ele>1568.0</ele>
      </trkpt>
      <trkpt lat="44.688314" lon="6.16462">
        <time>2021-12-28T17:26:49+00:00</time>
        <ele>1568.0</ele>
      </trkpt>
      <trkpt lat="44.688323" lon="6.164682">
        <time>2021-12-28T17:26:53+00:00</time>
        <ele>1568.0</ele>
      </trkpt>
      <trkpt lat="44.688334" lon="6.164718">
        <time>2021-12-28T17:26:55+00:00</time>
        <ele>1568.0</ele>
      </trkpt>
      <trkpt lat="44.688343" lon="6.164731">
        <time>2021-12-28T17:26:56+00:00</time>
        <ele>1568.0</ele>
      </trkpt>
      <trkpt lat="44.688346" lon="6.164733">
        <time>2021-12-28T17:26:57+00:00</time>
        <ele>1568.0</ele>
      </trkpt>
      <trkpt lat="44.688346" lon="6.164738">
        <time>2021-12-28T17:26:58+00:00</time>
        <ele>1568.0</ele>
      </trkpt>
      <trkpt lat="44.688367" lon="6.164696">
        <time>2021-12-28T17:27:02+00:00</time>
        <ele>1569.0</ele>
      </trkpt>
      <trkpt lat="44.688373" lon="6.164668">
        <time>2021-12-28T17:27:03+00:00</time>
        <ele>1569.0</ele>
      </trkpt>
      <trkpt lat="44.688341" lon="6.16459">
        <time>2021-12-28T17:27:06+00:00</time>
        <ele>1568.0</ele>
      </trkpt>
      <trkpt lat="44.688329" lon="6.16455">
        <time>2021-12-28T17:27:08+00:00</time>
        <ele>1568.0</ele>
      </trkpt>
      <trkpt lat="44.688328" lon="6.164555">
        <time>2021-12-28T17:27:11+00:00</time>
        <ele>1568.0</ele>
      </trkpt>
      <trkpt lat="44.688327" lon="6.164559">
        <time>2021-12-28T17:27:12+00:00</time>
        <ele>1568.0</ele>
      </trkpt>
      <trkpt lat="44.688325" lon="6.164564">
        <time>2021-12-28T17:27:16+00:00</time>
        <ele>1568.0</ele>
      </trkpt>
      <trkpt lat="44.688324" lon="6.164569">
        <time>2021-12-28T17:27:17+00:00</time>
        <ele>1568.0</ele>
      </trkpt>
      <trkpt lat="44.688323" lon="6.164573">
        <time>2021-12-28T17:27:20+00:00</time>
        <ele>1568.0</ele>
      </trkpt>
      <trkpt lat="44.688321" lon="6.164578">
        <time>2021-12-28T17:27:22+00:00</time>
        <ele>1568.0</ele>
      </trkpt>
      <trkpt lat="44.68832" lon="6.164583">
        <time>2021-12-28T17:27:25+00:00</time>
        <ele>1568.0</ele>
      </trkpt>
      <trkpt lat="44.688319" lon="6.164587">
        <time>2021-12-28T17:27:28+00:00</time>
        <ele>1568.0</ele>
      </trkpt>
      <trkpt lat="44.688317" lon="6.164592">
        <time>2021-12-28T17:27:31+00:00</time>
        <ele>1568.0</ele>
      </trkpt>
      <trkpt lat="44.688316" lon="6.164597">
        <time>2021-12-28T17:27:32+00:00</time>
        <ele>1568.0</ele>
      </trkpt>
      <trkpt lat="44.688315" lon="6.164601">
        <time>2021-12-28T17:27:34+00:00</time>
        <ele>1568.0</ele>
      </trkpt>
      <trkpt lat="44.688313" lon="6.164606">
        <time>2021-12-28T17:27:35+00:00</time>
        <ele>1568.0</ele>
      </trkpt>
      <trkpt lat="44.688312" lon="6.164611">
        <time>2021-12-28T17:27:36+00:00</time>
        <ele>1568.0</ele>
      </trkpt>
      <trkpt lat="44.688311" lon="6.164615">
        <time>2021-12-28T17:27:37+00:00</time>
        <ele>1568.0</ele>
      </trkpt>
      <trkpt lat="44.688309" lon="6.16462">
        <time>2021-12-28T17:27:38+00:00</time>
        <ele>1568.0</ele>
      </trkpt>
      <trkpt lat="44.688308" lon="6.164625">
        <time>2021-12-28T17:27:39+00:00</time>
        <ele>1568.0</ele>
      </trkpt>
      <trkpt lat="44.688307" lon="6.164629">
        <time>2021-12-28T17:27:41+00:00</time>
        <ele>1568.0</ele>
      </trkpt>
      <trkpt lat="44.688305" lon="6.164634">
        <time>2021-12-28T17:27:43+00:00</time>
        <ele>1568.0</ele>
      </trkpt>
      <trkpt lat="44.688304" lon="6.164638">
        <time>2021-12-28T17:27:45+00:00</time>
        <ele>1568.0</ele>
      </trkpt>
      <trkpt lat="44.688303" lon="6.164643">
        <time>2021-12-28T17:27:46+00:00</time>
        <ele>1567.0</ele>
      </trkpt>
      <trkpt lat="44.688301" lon="6.164648">
        <time>2021-12-28T17:27:47+00:00</time>
        <ele>1567.0</ele>
      </trkpt>
      <trkpt lat="44.6883" lon="6.164652">
        <time>2021-12-28T17:27:49+00:00</time>
        <ele>1567.0</ele>
      </trkpt>
      <trkpt lat="44.688299" lon="6.164657">
        <time>2021-12-28T17:27:53+00:00</time>
        <ele>1567.0</ele>
      </trkpt>
      <trkpt lat="44.688298" lon="6.164662">
        <time>2021-12-28T17:27:56+00:00</time>
        <ele>1567.0</ele>
      </trkpt>
      <trkpt lat="44.688296" lon="6.164666">
        <time>2021-12-28T17:28:01+00:00</time>
        <ele>1567.0</ele>
      </trkpt>
      <trkpt lat="44.688295" lon="6.164671">
        <time>2021-12-28T17:28:07+00:00</time>
        <ele>1567.0</ele>
      </trkpt>
      <trkpt lat="44.688294" lon="6.164676">
        <time>2021-12-28T17:28:10+00:00</time>
        <ele>1567.0</ele>
      </trkpt>
      <trkpt lat="44.688292" lon="6.16468">
        <time>2021-12-28T17:28:11+00:00</time>
        <ele>1567.0</ele>
      </trkpt>
      <trkpt lat="44.688291" lon="6.164685">
        <time>2021-12-28T17:28:14+00:00</time>
        <ele>1567.0</ele>
      </trkpt>
      <trkpt lat="44.68829" lon="6.16469">
        <time>2021-12-28T17:28:16+00:00</time>
        <ele>1567.0</ele>
      </trkpt>
      <trkpt lat="44.688288" lon="6.164694">
        <time>2021-12-28T17:28:17+00:00</time>
        <ele>1567.0</ele>
      </trkpt>
      <trkpt lat="44.688287" lon="6.164699">
        <time>2021-12-28T17:28:18+00:00</time>
        <ele>1567.0</ele>
      </trkpt>
      <trkpt lat="44.688286" lon="6.164704">
        <time>2021-12-28T17:28:19+00:00</time>
        <ele>1567.0</ele>
      </trkpt>
      <trkpt lat="44.688284" lon="6.164708">
        <time>2021-12-28T17:28:20+00:00</time>
        <ele>1567.0</ele>
      </trkpt>
      <trkpt lat="44.688283" lon="6.164713">
        <time>2021-12-28T17:28:21+00:00</time>
        <ele>1567.0</ele>
      </trkpt>
      <trkpt lat="44.688282" lon="6.164718">
        <time>2021-12-28T17:28:22+00:00</time>
        <ele>1567.0</ele>
      </trkpt>
      <trkpt lat="44.68828" lon="6.164722">
        <time>2021-12-28T17:28:23+00:00</time>
        <ele>1567.0</ele>
      </trkpt>
      <trkpt lat="44.688279" lon="6.164727">
        <time>2021-12-28T17:28:24+00:00</time>
        <ele>1567.0</ele>
      </trkpt>
      <trkpt lat="44.688278" lon="6.164732">
        <time>2021-12-28T17:28:25+00:00</time>
        <ele>1567.0</ele>
      </trkpt>
      <trkpt lat="44.688276" lon="6.164736">
        <time>2021-12-28T17:28:27+00:00</time>
        <ele>1567.0</ele>
      </trkpt>
      <trkpt lat="44.688275" lon="6.164741">
        <time>2021-12-28T17:28:30+00:00</time>
        <ele>1567.0</ele>
      </trkpt>
      <trkpt lat="44.688303" lon="6.164773">
        <time>2021-12-28T17:28:31+00:00</time>
        <ele>1567.0</ele>
      </trkpt>
      <trkpt lat="44.688293" lon="6.164781">
        <time>2021-12-28T17:28:32+00:00</time>
        <ele>1567.0</ele>
      </trkpt>
      <trkpt lat="44.68829" lon="6.164781">
        <time>2021-12-28T17:28:33+00:00</time>
        <ele>1567.0</ele>
      </trkpt>
      <trkpt lat="44.688301" lon="6.164795">
        <time>2021-12-28T17:28:35+00:00</time>
        <ele>1567.0</ele>
      </trkpt>
      <trkpt lat="44.688317" lon="6.164801">
        <time>2021-12-28T17:28:36+00:00</time>
        <ele>1568.0</ele>
      </trkpt>
      <trkpt lat="44.688323" lon="6.164814">
        <time>2021-12-28T17:28:38+00:00</time>
        <ele>1568.0</ele>
      </trkpt>
      <trkpt lat="44.68829" lon="6.164815">
        <time>2021-12-28T17:28:39+00:00</time>
        <ele>1567.0</ele>
      </trkpt>
      <trkpt lat="44.688196" lon="6.164851">
        <time>2021-12-28T17:28:41+00:00</time>
        <ele>1565.0</ele>
      </trkpt>
      <trkpt lat="44.688099" lon="6.164874">
        <time>2021-12-28T17:28:44+00:00</time>
        <ele>1563.0</ele>
      </trkpt>
      <trkpt lat="44.688089" lon="6.164895">
        <time>2021-12-28T17:28:45+00:00</time>
        <ele>1563.0</ele>
      </trkpt>
      <trkpt lat="44.68809" lon="6.1649">
        <time>2021-12-28T17:28:47+00:00</time>
        <ele>1563.0</ele>
      </trkpt>
      <trkpt lat="44.688089" lon="6.164885">
        <time>2021-12-28T17:28:48+00:00</time>
        <ele>1563.0</ele>
      </trkpt>
      <trkpt lat="44.688082" lon="6.164892">
        <time>2021-12-28T17:28:49+00:00</time>
        <ele>1563.0</ele>
      </trkpt>
      <trkpt lat="44.688084" lon="6.164895">
        <time>2021-12-28T17:28:51+00:00</time>
        <ele>1563.0</ele>
      </trkpt>
      <trkpt lat="44.688094" lon="6.164994">
        <time>2021-12-28T17:28:56+00:00</time>
        <ele>1563.0</ele>
      </trkpt>
      <trkpt lat="44.688106" lon="6.165016">
        <time>2021-12-28T17:28:57+00:00</time>
        <ele>1563.0</ele>
      </trkpt>
      <trkpt lat="44.688129" lon="6.16499">
        <time>2021-12-28T17:28:59+00:00</time>
        <ele>1564.0</ele>
      </trkpt>
      <trkpt lat="44.688136" lon="6.164991">
        <time>2021-12-28T17:29:01+00:00</time>
        <ele>1564.0</ele>
      </trkpt>
      <trkpt lat="44.688104" lon="6.165097">
        <time>2021-12-28T17:29:04+00:00</time>
        <ele>1564.0</ele>
      </trkpt>
      <trkpt lat="44.688039" lon="6.165187">
        <time>2021-12-28T17:29:05+00:00</time>
        <ele>1562.0</ele>
      </trkpt>
      <trkpt lat="44.687954" lon="6.165275">
        <time>2021-12-28T17:29:07+00:00</time>
        <ele>1560.0</ele>
      </trkpt>
      <trkpt lat="44.687876" lon="6.165274">
        <time>2021-12-28T17:29:09+00:00</time>
        <ele>1559.0</ele>
      </trkpt>
      <trkpt lat="44.687801" lon="6.165237">
        <time>2021-12-28T17:29:11+00:00</time>
        <ele>1557.0</ele>
      </trkpt>
      <trkpt lat="44.687793" lon="6.165281">
        <time>2021-12-28T17:29:13+00:00</time>
        <ele>1557.0</ele>
      </trkpt>
      <trkpt lat="44.68782" lon="6.165334">
        <time>2021-12-28T17:29:14+00:00</time>
        <ele>1558.0</ele>
      </trkpt>
    </trkseg>
  </trk>
</gpx>
